[[{"header":{"parameterUnit":"m.s-1","parameterCategory":1,"la1":30.6,"la2":28.766,"lo1":-90.7593,"lo2":-88.6598,"dx":0.0162,"dy":0.0183,"nx":116,"ny":114,"refTime":"2023-01-22T06:00:00:Z","depth":0,"parameterNumber":2,"parameterNumberName":"U-component_of_WINDS"},"data":[0.0,0.0,0.0,0.0,0.0,0.0,0.0,0.0,0.0,0.0,0.0,0.0,0.0,0.0,0.0,0.0,0.0,0.0,0.0,0.0,0.0,0.0,0.0,0.0,0.0,0.0,0.0,0.0,0.0,0.0,0.0,0.0,0.0,0.0,0.0,0.0,0.0,0.0,0.0,0.0,0.0,0.0,0.0,0.0,0.0,0.0,0.0,0.0,0.0,0.0,0.0,0.0,0.0,0.0,0.0,0.0,0.0,0.0,0.0,0.0,0.0,0.0,0.0,0.0,0.0,0.0,0.0,0.0,0.0,0.0,0.0,0.0,0.0,0.0,0.0,0.0,0.0,0.0,0.0,0.0,0.0,0.0,0.0,0.0,0.0,0.0,0.0,0.0,0.0,0.0,0.0,0.0,0.0,0.0,0.0,0.0,0.0,0.0,0.0,0.0,0.0,0.0,0.0,0.0,0.0,0.0,0.0,0.0,0.0,0.0,0.0,0.0,0.0,0.0,0.0,0.0,0.0,0.0,0.0,0.0,0.0,0.0,0.0,0.0,0.0,0.0,0.0,0.0,0.0,0.0,0.0,0.0,0.0,0.0,0.0,0.0,0.0,0.0,0.0,0.0,0.0,0.0,0.0,0.0,0.0,0.0,0.0,0.0,0.0,0.0,0.0,0.0,0.0,0.0,0.0,0.0,0.0,0.0,0.0,0.0,0.0,0.0,0.0,0.0,0.0,0.0,0.0,0.0,0.0,0.0,0.0,0.0,0.0,0.0,0.0,0.0,0.0,0.0,0.0,0.0,0.0,0.0,0.0,0.0,0.0,0.0,0.0,0.0,0.0,0.0,0.0,0.0,0.0,0.0,0.0,0.0,0.0,0.0,0.0,0.0,0.0,0.0,0.0,0.0,0.0,0.0,0.0,0.0,0.0,0.0,0.0,0.0,0.0,0.0,0.0,0.0,0.0,0.0,0.0,0.0,0.0,0.0,0.0,0.0,0.0,0.0,0.0,0.0,0.0,0.0,0.0,0.0,0.0,0.0,0.0,0.0,0.0,0.0,0.0,0.0,0.0,0.0,0.0,0.0,0.0,0.0,0.0,0.0,0.0,0.0,0.0,0.0,0.0,0.0,0.0,0.0,0.0,0.0,0.0,0.0,0.0,0.0,0.0,0.0,0.0,0.0,0.0,0.0,0.0,0.0,0.0,0.0,0.0,0.0,0.0,0.0,0.0,0.0,0.0,0.0,0.0,0.0,0.0,0.0,0.0,0.0,0.0,0.0,0.0,0.0,0.0,0.0,0.0,0.0,0.0,0.0,0.0,0.0,0.0,0.0,0.0,0.0,0.0,0.0,0.0,0.0,0.0,0.0,0.0,0.0,0.0,0.0,0.0,0.0,0.0,0.0,0.0,0.0,0.0,0.0,0.0,0.0,0.0,0.0,0.0,0.0,0.0,0.0,0.0,0.0,0.0,0.0,0.0,0.0,0.0,0.0,0.0,0.0,0.0,0.0,0.0,0.0,0.0,0.0,0.0,0.0,0.0,0.0,0.0,0.0,0.0,0.0,0.0,0.0,0.0,0.0,0.0,0.0,0.0,0.0,0.0,0.0,0.0,0.0,0.0,0.0,0.0,0.0,0.0,0.0,0.0,0.0,0.0,0.0,0.0,0.0,0.0,0.0,0.0,0.0,0.0,0.0,0.0,0.0,0.0,0.0,0.0,0.0,0.0,0.0,0.0,0.0,0.0,0.0,0.0,0.0,0.0,0.0,0.0,0.0,0.0,0.0,0.0,0.0,0.0,0.0,0.0,0.0,0.0,0.0,0.0,0.0,0.0,0.0,0.0,0.0,0.0,0.0,0.0,0.0,0.0,0.0,0.0,0.0,0.0,0.0,0.0,0.0,0.0,0.0,0.0,0.0,0.0,0.0,0.0,0.0,0.0,0.0,0.0,0.0,0.0,0.0,0.0,0.0,0.0,0.0,0.0,0.0,0.0,0.0,0.0,0.0,0.0,0.0,0.0,0.0,0.0,0.0,0.0,0.0,0.0,0.0,0.0,0.0,0.0,0.0,0.0,0.0,0.0,0.0,0.0,0.0,0.0,0.0,0.0,0.0,0.0,0.0,0.0,0.0,0.0,0.0,0.0,0.0,0.0,0.0,0.0,0.0,0.0,0.0,0.0,0.0,0.0,0.0,0.0,0.0,0.0,0.0,0.0,0.0,0.0,0.0,0.0,0.0,0.0,0.0,0.0,0.0,0.0,0.0,0.0,0.0,0.0,0.0,0.0,0.0,0.0,0.0,0.0,0.0,0.0,0.0,0.0,0.0,0.0,0.0,0.0,0.0,0.0,0.0,0.0,0.0,0.0,0.0,0.0,0.0,0.0,0.0,0.0,0.0,0.0,0.0,0.0,0.0,0.0,0.0,0.0,0.0,0.0,0.0,0.0,0.0,0.0,0.0,0.0,0.0,0.0,0.0,0.0,0.0,0.0,0.0,0.0,0.0,0.0,0.0,0.0,0.0,0.0,0.0,0.0,0.0,0.0,0.0,0.0,0.0,0.0,0.0,0.0,0.0,0.0,0.0,0.0,0.0,0.0,0.0,0.0,0.0,0.0,0.0,0.0,0.0,0.0,0.0,0.0,0.0,0.0,0.0,0.0,0.0,0.0,0.0,0.0,0.0,0.0,0.0,0.0,0.0,0.0,0.0,0.0,0.0,0.0,0.0,0.0,0.0,0.0,0.0,0.0,0.0,0.0,0.0,0.0,0.0,0.0,0.0,0.0,0.0,0.0,0.0,0.0,0.0,0.0,0.0,0.0,0.0,0.0,0.0,0.0,0.0,0.0,0.0,0.0,0.0,0.0,0.0,0.0,0.0,0.0,0.0,0.0,0.0,0.0,0.0,0.0,0.0,0.0,0.0,0.0,0.0,0.0,0.0,0.0,0.0,0.0,0.0,0.0,0.0,0.0,0.0,0.0,0.0,0.0,0.0,0.0,0.0,0.0,0.0,0.0,0.0,0.0,0.0,0.0,0.0,0.0,0.0,0.0,0.0,0.0,0.0,0.0,0.0,0.0,0.0,0.0,0.0,0.0,0.0,0.0,0.0,0.0,0.0,0.0,0.0,0.0,0.0,0.0,0.0,0.0,0.0,0.0,0.0,0.0,0.0,0.0,0.0,0.0,0.0,0.0,0.0,0.0,0.0,0.0,0.0,0.0,0.0,0.0,0.0,0.0,0.0,0.0,0.0,0.0,0.0,0.0,0.0,0.0,0.0,0.0,0.0,0.0,0.0,0.0,0.0,0.0,0.0,0.0,0.0,0.0,0.0,0.0,0.0,0.0,0.0,0.0,0.0,0.0,0.0,0.0,0.0,0.0,0.0,0.0,0.0,0.0,0.0,0.0,0.0,0.0,0.0,0.0,0.0,0.0,0.0,0.0,0.0,0.0,0.0,0.0,0.0,0.0,0.0,0.0,0.0,0.0,0.0,0.0,0.0,0.0,0.0,0.0,0.0,0.0,0.0,0.0,0.0,0.0,0.0,0.0,0.0,0.0,0.0,0.0,0.0,0.0,0.0,0.0,0.0,0.0,0.0,0.0,0.0,0.0,0.0,0.0,0.0,0.0,0.0,0.0,0.0,0.0,0.0,0.0,0.0,0.0,0.0,0.0,0.0,0.0,0.0,0.0,0.0,0.0,0.0,0.0,0.0,0.0,0.0,0.0,0.0,0.0,0.0,0.0,0.0,0.0,0.0,0.0,0.0,0.0,0.0,0.0,0.0,0.0,0.0,0.0,0.0,0.0,0.0,0.0,0.0,0.0,0.0,0.0,0.0,0.0,0.0,0.0,0.0,0.0,0.0,0.0,0.0,0.0,0.0,0.0,0.0,0.0,0.0,0.0,0.0,0.0,0.0,0.0,0.0,0.0,0.0,0.0,0.0,0.0,0.0,0.0,0.0,0.0,0.0,0.0,0.0,0.0,0.0,0.0,0.0,0.0,0.0,0.0,0.0,0.0,0.0,0.0,0.0,0.0,0.0,0.0,0.0,0.0,0.0,0.0,0.0,0.0,0.0,0.0,0.0,0.0,0.0,0.0,0.0,0.0,0.0,0.0,0.0,0.0,0.0,0.0,0.0,0.0,0.0,0.0,0.0,0.0,0.0,0.0,0.0,0.0,0.0,0.0,0.0,0.0,0.0,0.0,0.0,0.0,0.0,0.0,0.0,0.0,0.0,0.0,0.0,0.0,0.0,0.0,0.0,0.0,0.0,0.0,0.0,0.0,0.0,0.0,0.0,0.0,0.0,0.0,0.0,0.0,0.0,0.0,0.0,0.0,0.0,0.0,0.0,0.0,0.0,0.0,0.0,0.0,0.0,0.0,0.0,0.0,0.0,0.0,0.0,0.0,0.0,0.0,0.0,0.0,0.0,0.0,0.0,0.0,0.0,0.0,0.0,0.0,0.0,0.0,0.0,0.0,0.0,0.0,0.0,0.0,0.0,0.0,0.0,0.0,0.0,0.0,0.0,0.0,0.0,0.0,0.0,0.0,0.0,0.0,0.0,0.0,0.0,0.0,0.0,0.0,0.0,0.0,0.0,0.0,0.0,0.0,0.0,0.0,0.0,0.0,0.0,0.0,0.0,0.0,0.0,0.0,0.0,0.0,0.0,0.0,0.0,0.0,0.0,0.0,0.0,0.0,0.0,0.0,0.0,0.0,0.0,0.0,0.0,0.0,0.0,0.0,0.0,0.0,0.0,0.0,0.0,0.0,0.0,0.0,0.0,0.0,0.0,0.0,0.0,0.0,0.0,0.0,0.0,0.0,0.0,0.0,0.0,0.0,0.0,0.0,0.0,0.0,0.0,0.0,0.0,0.0,0.0,0.0,0.0,0.0,0.0,0.0,0.0,0.0,0.0,0.0,0.0,0.0,0.0,0.0,0.0,0.0,0.0,0.0,0.0,0.0,0.0,0.0,0.0,0.0,0.0,0.0,0.0,0.0,0.0,0.0,0.0,0.0,0.0,0.0,0.0,0.0,0.0,0.0,0.0,0.0,0.0,0.0,0.0,0.0,0.0,0.0,0.0,0.0,0.0,0.0,0.0,0.0,0.0,0.0,0.0,0.0,0.0,0.0,0.0,0.0,0.0,0.0,0.0,0.0,0.0,0.0,0.0,0.0,0.0,0.0,0.0,0.0,0.0,0.0,0.0,0.0,0.0,0.0,0.0,0.0,0.0,0.0,0.0,0.0,0.0,0.0,0.0,0.0,0.0,0.0,0.0,0.0,0.0,0.0,0.0,0.0,0.0,0.0,0.0,0.0,0.0,0.0,0.0,0.0,0.0,0.0,0.0,0.0,0.0,0.0,0.0,0.0,0.0,0.0,0.0,0.0,0.0,0.0,0.0,0.0,0.0,0.0,0.0,0.0,0.0,0.0,0.0,0.0,0.0,0.0,0.0,0.0,0.0,0.0,0.0,0.0,0.0,0.0,0.0,0.0,0.0,0.0,0.0,0.0,0.0,0.0,0.0,0.0,0.0,0.0,0.0,0.0,0.0,0.0,0.0,0.0,0.0,0.0,0.0,0.0,0.0,0.0,0.0,0.0,0.0,0.0,0.0,0.0,0.0,0.0,0.0,0.0,0.0,0.0,0.0,0.0,0.0,0.0,0.0,0.0,0.0,0.0,0.0,0.0,0.0,0.0,0.0,0.0,0.0,0.0,0.0,0.0,0.0,0.0,0.0,0.0,0.0,0.0,0.0,0.0,0.0,0.0,0.0,0.0,0.0,0.0,0.0,0.0,0.0,0.0,0.0,0.0,0.0,0.0,0.0,0.0,0.0,0.0,0.0,0.0,0.0,0.0,0.0,0.0,0.0,0.0,0.0,0.0,0.0,0.0,0.0,0.0,0.0,0.0,0.0,0.0,0.0,0.0,0.0,0.0,0.0,0.0,0.0,0.0,0.0,0.0,0.0,0.0,0.0,0.0,0.0,0.0,0.0,0.0,0.0,0.0,0.0,0.0,0.0,0.0,0.0,0.0,0.0,0.0,0.0,0.0,0.0,0.0,0.0,0.0,0.0,0.0,0.0,0.0,0.0,0.0,0.0,0.0,0.0,0.0,0.0,2.5963,0.0,0.0,0.0,0.0,0.0,0.0,0.0,0.0,0.0,0.0,0.0,0.0,0.0,0.0,0.0,0.0,0.0,0.0,0.0,0.0,0.0,0.0,0.0,0.0,0.0,0.0,0.0,0.0,0.0,0.0,0.0,0.0,0.0,0.0,0.0,0.0,0.0,0.0,0.0,0.0,0.0,0.0,0.0,0.0,0.0,0.0,0.0,0.0,0.0,0.0,0.0,0.0,0.0,0.0,0.0,0.0,0.0,0.0,0.0,0.0,0.0,0.0,0.0,0.0,0.0,0.0,0.0,0.0,0.0,0.0,0.0,0.0,0.0,0.0,0.0,0.0,0.0,0.0,0.0,0.0,0.0,0.0,0.0,0.0,0.0,0.0,0.0,0.0,0.0,0.0,0.0,0.0,0.0,0.0,0.0,0.0,0.0,0.0,0.0,0.0,0.0,0.0,0.0,0.0,0.0,0.0,0.0,0.0,0.0,0.0,0.0,0.0,0.0,0.0,0.0,0.0,2.698,0.0,0.0,0.0,0.0,0.0,0.0,0.0,0.0,0.0,0.0,0.0,0.0,0.0,0.0,0.0,0.0,0.0,0.0,0.0,0.0,0.0,0.0,0.0,0.0,0.0,0.0,0.0,0.0,0.0,0.0,0.0,0.0,0.0,0.0,0.0,0.0,0.0,0.0,0.0,0.0,0.0,0.0,0.0,0.0,0.0,0.0,0.0,0.0,0.0,0.0,0.0,0.0,0.0,0.0,0.0,0.0,0.0,0.0,0.0,0.0,0.0,0.0,0.0,0.0,0.0,0.0,0.0,0.0,0.0,0.0,0.0,0.0,0.0,0.0,0.0,0.0,0.0,0.0,0.0,0.0,0.0,0.0,0.0,0.0,0.0,0.0,0.0,0.0,0.0,0.0,0.0,0.0,0.0,0.0,0.0,0.0,0.0,0.0,0.0,0.0,0.0,0.0,0.0,0.0,0.0,0.0,0.0,0.0,0.0,0.0,2.9401,2.9401,2.957,2.9714,2.916,2.919,2.9579,0.0,0.0,0.0,0.0,0.0,0.0,0.0,0.0,0.0,0.0,0.0,0.0,0.0,0.0,0.0,0.0,0.0,0.0,0.0,0.0,0.0,0.0,0.0,0.0,0.0,0.0,0.0,0.0,0.0,0.0,0.0,0.0,0.0,0.0,0.0,0.0,0.0,0.0,0.0,0.0,0.0,0.0,0.0,0.0,0.0,0.0,0.0,0.0,0.0,0.0,0.0,0.0,0.0,0.0,0.0,0.0,0.0,0.0,0.0,0.0,0.0,0.0,0.0,0.0,0.0,0.0,0.0,0.0,0.0,0.0,0.0,0.0,0.0,0.0,0.0,0.0,0.0,0.0,0.0,0.0,0.0,0.0,0.0,0.0,0.0,0.0,0.0,2.5029,2.5118,0.0,0.0,0.0,0.0,0.0,0.0,0.0,0.0,0.0,0.0,0.0,0.0,0.0,0.0,2.9094,2.9169,2.9312,2.9525,2.9579,2.9579,2.9579,2.9579,2.9879,3.0372,3.0298,0.0,2.9579,2.9579,0.0,0.0,0.0,0.0,0.0,0.0,0.0,0.0,0.0,0.0,0.0,0.0,0.0,0.0,0.0,0.0,0.0,0.0,0.0,0.0,0.0,0.0,0.0,0.0,0.0,0.0,0.0,0.0,0.0,0.0,0.0,0.0,0.0,0.0,0.0,0.0,0.0,0.0,0.0,0.0,0.0,0.0,0.0,0.0,0.0,0.0,0.0,0.0,0.0,0.0,0.0,0.0,0.0,0.0,0.0,0.0,0.0,0.0,0.0,0.0,0.0,0.0,0.0,0.0,0.0,0.0,0.0,0.0,0.0,0.0,0.0,0.0,0.0,0.0,0.0,0.0,0.0,0.0,0.0,0.0,0.0,0.0,0.0,0.0,0.0,2.493,2.5286,2.5541,2.5584,2.5731,0.0,0.0,0.0,0.0,0.0,0.0,0.0,0.0,0.0,2.9262,2.9262,2.9481,3.0033,3.0033,3.0242,3.0687,3.0687,3.0687,3.0687,3.0687,3.0821,3.1091,3.1091,3.0926,3.0687,3.0687,3.0687,3.0687,0.0,0.0,0.0,0.0,0.0,3.0687,0.0,0.0,0.0,0.0,0.0,0.0,0.0,0.0,0.0,0.0,0.0,0.0,0.0,0.0,0.0,0.0,0.0,0.0,0.0,0.0,0.0,0.0,0.0,0.0,0.0,0.0,0.0,0.0,0.0,0.0,0.0,0.0,0.0,0.0,0.0,0.0,0.0,0.0,0.0,0.0,0.0,0.0,0.0,0.0,0.0,0.0,0.0,0.0,0.0,0.0,0.0,0.0,0.0,0.0,0.0,0.0,0.0,0.0,0.0,0.0,0.0,0.0,0.0,0.0,0.0,0.0,0.0,0.0,0.0,0.0,0.0,0.0,0.0,0.0,0.0,0.0,0.0,2.5487,2.5874,2.6353,2.6542,2.6806,0.0,0.0,0.0,0.0,0.0,0.0,2.9404,2.9404,2.9548,2.9963,2.9878,3.0157,3.0761,3.0776,3.1031,3.1482,3.1482,3.1482,3.1482,3.1482,3.1482,3.1482,3.1482,3.1571,3.1764,3.1541,3.1482,3.1482,3.1482,3.1482,0.0,3.1482,3.1482,3.1482,0.0,0.0,0.0,0.0,0.0,0.0,0.0,0.0,0.0,0.0,0.0,0.0,0.0,0.0,0.0,0.0,0.0,0.0,0.0,0.0,0.0,0.0,0.0,0.0,0.0,0.0,0.0,0.0,0.0,0.0,0.0,0.0,0.0,0.0,0.0,0.0,0.0,0.0,0.0,0.0,0.0,0.0,0.0,0.0,0.0,0.0,0.0,0.0,0.0,0.0,0.0,0.0,0.0,0.0,0.0,0.0,0.0,0.0,0.0,0.0,0.0,0.0,0.0,0.0,0.0,0.0,0.0,0.0,0.0,0.0,0.0,0.0,0.0,0.0,0.0,0.0,0.0,0.0,0.0,2.7909,2.8157,0.0,0.0,0.0,0.0,2.9053,2.9083,2.9433,3.0223,3.0268,3.0607,3.1362,3.1377,3.1392,3.1422,3.1422,3.1437,3.1482,3.1482,3.1482,3.1482,3.1482,3.1482,3.1482,3.1482,3.1884,3.2422,3.1735,3.1482,3.1482,3.1482,3.1482,3.1482,3.1482,3.1482,3.1482,0.0,0.0,0.0,0.0,0.0,0.0,0.0,0.0,0.0,0.0,0.0,0.0,0.0,0.0,0.0,0.0,0.0,0.0,0.0,0.0,0.0,0.0,0.0,0.0,0.0,0.0,0.0,0.0,0.0,0.0,0.0,0.0,0.0,0.0,0.0,0.0,0.0,0.0,0.0,0.0,0.0,0.0,0.0,0.0,0.0,0.0,0.0,0.0,0.0,0.0,0.0,0.0,0.0,0.0,0.0,0.0,0.0,0.0,0.0,0.0,0.0,0.0,0.0,0.0,0.0,0.0,0.0,0.0,0.0,0.0,0.0,0.0,0.0,0.0,0.0,0.0,0.0,0.0,0.0,2.8685,2.8936,0.0,0.0,2.9592,2.9844,2.9844,3.0357,3.0755,3.1051,3.1066,3.1228,3.1467,3.1482,3.1676,3.2153,3.2153,3.2377,3.2796,3.2796,3.2796,3.2796,3.2796,3.2796,3.2796,3.2796,3.2931,3.3125,3.2901,3.2796,3.2796,3.2796,3.2796,3.2796,3.2796,3.2796,3.2796,0.0,0.0,0.0,0.0,0.0,0.0,0.0,0.0,0.0,0.0,0.0,0.0,0.0,0.0,0.0,0.0,0.0,0.0,0.0,0.0,0.0,0.0,0.0,0.0,0.0,0.0,0.0,0.0,0.0,0.0,0.0,0.0,0.0,0.0,0.0,0.0,0.0,0.0,0.0,0.0,0.0,0.0,2.7233,0.0,0.0,0.0,0.0,0.0,0.0,0.0,0.0,0.0,0.0,0.0,0.0,0.0,0.0,0.0,0.0,0.0,0.0,0.0,0.0,0.0,0.0,0.0,0.0,0.0,0.0,0.0,0.0,0.0,0.0,0.0,0.0,0.0,0.0,0.0,2.8931,2.9404,2.9659,2.9803,2.9859,3.0386,3.0696,3.0696,3.1228,3.1482,3.1482,3.1676,3.1869,3.1869,3.2078,3.2407,3.2841,3.2841,3.3066,3.3499,3.3499,3.3499,3.3499,3.3499,3.3499,3.3499,3.3499,3.3619,3.3829,3.3829,3.3963,3.4128,3.3679,3.3499,3.3499,3.3499,3.3499,3.3499,0.0,0.0,0.0,0.0,0.0,0.0,0.0,0.0,0.0,0.0,0.0,0.0,0.0,0.0,0.0,0.0,0.0,0.0,0.0,0.0,0.0,0.0,0.0,0.0,0.0,0.0,0.0,0.0,0.0,0.0,0.0,0.0,0.0,0.0,0.0,0.0,0.0,0.0,0.0,0.0,0.0,0.0,2.7401,0.0,0.0,0.0,0.0,0.0,0.0,0.0,0.0,0.0,0.0,0.0,0.0,0.0,0.0,0.0,0.0,0.0,0.0,0.0,0.0,0.0,0.0,0.0,0.0,0.0,0.0,0.0,0.0,0.0,0.0,0.0,0.0,0.0,2.9182,2.9307,2.9614,3.0083,3.0369,3.0735,3.1276,3.1409,3.1482,3.1497,3.1497,3.1511,3.1541,3.2198,3.2542,3.2542,3.3155,3.3499,3.3529,3.3544,3.3559,3.3589,3.3604,3.3619,3.3619,3.3619,3.3619,3.3619,3.3619,3.3978,3.4562,3.4562,3.4966,3.5429,3.4083,3.3559,3.3559,3.3559,3.3559,3.3559,0.0,0.0,0.0,0.0,0.0,0.0,0.0,0.0,0.0,0.0,0.0,0.0,0.0,0.0,0.0,0.0,0.0,0.0,0.0,0.0,0.0,0.0,0.0,0.0,0.0,0.0,0.0,0.0,0.0,0.0,0.0,0.0,0.0,0.0,0.0,0.0,0.0,0.0,0.0,0.0,0.0,0.0,2.7524,0.0,0.0,0.0,0.0,0.0,0.0,0.0,0.0,0.0,0.0,0.0,0.0,0.0,0.0,0.0,0.0,0.0,0.0,0.0,0.0,0.0,0.0,0.0,0.0,0.0,0.0,0.0,0.0,0.0,0.0,0.0,0.0,3.0045,2.9989,3.0086,3.0436,3.1051,3.1198,3.1258,3.1452,3.1467,3.1676,3.2213,3.2243,3.2452,3.2931,3.3125,3.323,3.323,3.3395,3.3724,3.4203,3.4696,3.519,3.5669,3.6118,3.6327,3.6327,3.6327,3.6327,3.6327,3.6327,3.6432,3.6596,3.6596,3.6716,3.6761,3.5459,3.4951,3.4951,3.4951,3.4951,3.5026,0.0,0.0,0.0,0.0,0.0,0.0,0.0,0.0,0.0,0.0,0.0,0.0,0.0,0.0,0.0,0.0,0.0,0.0,0.0,0.0,0.0,0.0,0.0,0.0,0.0,0.0,0.0,0.0,0.0,0.0,0.0,0.0,0.0,0.0,0.0,0.0,0.0,0.0,0.0,0.0,0.0,0.0,2.8008,2.7906,2.7778,2.7575,2.7423,2.7437,2.7488,2.7488,0.0,0.0,0.0,0.0,0.0,0.0,0.0,0.0,0.0,0.0,0.0,0.0,0.0,0.0,0.0,0.0,0.0,0.0,0.0,0.0,0.0,0.0,0.0,0.0,3.0785,3.0785,3.0785,3.0884,3.1091,3.1422,3.1482,3.1586,3.1913,3.1943,3.2213,3.2871,3.2931,3.3095,3.3469,3.3754,3.4038,3.4322,3.4607,3.5055,3.5699,3.6103,3.6492,3.6881,3.724,3.7404,3.7404,3.7404,3.7404,0.0,3.7404,3.7404,3.7404,3.7404,3.7404,0.0,0.0,0.0,0.0,0.0,3.6312,3.6357,0.0,0.0,0.0,0.0,0.0,0.0,0.0,0.0,0.0,0.0,0.0,0.0,0.0,0.0,0.0,0.0,0.0,0.0,0.0,0.0,0.0,0.0,0.0,0.0,0.0,0.0,0.0,0.0,0.0,0.0,0.0,0.0,0.0,0.0,0.0,0.0,0.0,0.0,0.0,0.0,0.0,0.0,2.8712,2.8712,2.8293,2.773,2.773,2.7634,2.7625,2.7625,0.0,0.0,0.0,0.0,0.0,0.0,0.0,0.0,0.0,0.0,0.0,0.0,0.0,0.0,0.0,0.0,0.0,0.0,0.0,0.0,0.0,0.0,0.0,0.0,3.1409,3.1482,3.1482,3.1541,3.1556,3.1482,3.1541,3.1884,3.2452,3.2587,3.2901,3.3559,3.3604,3.3679,3.3829,0.0,0.0,0.0,0.0,3.6851,3.7404,3.7479,3.7524,3.7524,3.7599,3.7644,3.7644,3.7698,3.7766,3.7766,3.782,3.782,3.7766,3.782,3.7865,3.7841,3.7494,3.7404,3.7404,3.7473,3.7473,0.0,0.0,0.0,0.0,0.0,0.0,0.0,0.0,0.0,0.0,0.0,0.0,0.0,0.0,0.0,0.0,0.0,0.0,0.0,0.0,0.0,0.0,0.0,0.0,0.0,0.0,0.0,0.0,0.0,0.0,0.0,0.0,0.0,0.0,0.0,0.0,0.0,0.0,0.0,0.0,0.0,0.0,0.0,2.94,2.94,2.8981,2.8412,2.8412,2.8038,2.7625,2.7625,2.7625,2.7625,2.7625,0.0,0.0,0.0,0.0,0.0,0.0,0.0,0.0,0.0,0.0,0.0,0.0,0.0,0.0,0.0,0.0,0.0,0.0,0.0,0.0,3.1452,3.1467,3.1482,3.1482,3.1988,3.2123,3.1541,3.2003,3.2377,3.2497,3.2991,3.3574,3.4233,3.4292,3.4756,3.5848,3.6028,0.0,3.7015,3.7165,3.7285,3.7404,3.7943,3.8197,3.8197,0.0,0.0,3.902,3.9625,3.9887,3.9956,4.0469,4.0401,3.9941,4.0453,4.0712,4.0414,3.8211,3.7404,3.7473,3.8065,3.7931,3.7548,0.0,0.0,0.0,0.0,0.0,0.0,0.0,0.0,0.0,0.0,0.0,0.0,0.0,0.0,0.0,0.0,0.0,0.0,0.0,0.0,0.0,0.0,0.0,0.0,0.0,0.0,0.0,0.0,0.0,0.0,0.0,0.0,0.0,0.0,0.0,0.0,0.0,0.0,0.0,0.0,0.0,0.0,3.0522,3.0178,2.9639,2.9056,2.8727,2.8382,2.8083,2.8083,2.8083,2.8143,2.8472,2.8577,2.8577,0.0,0.0,0.0,0.0,0.0,0.0,0.0,0.0,0.0,0.0,0.0,0.0,0.0,0.0,3.1467,0.0,0.0,3.1482,3.1482,3.175,3.2018,3.2018,3.2587,3.2766,3.2093,3.2602,3.314,3.3469,3.3784,3.4397,3.5415,3.5474,3.5908,3.6896,3.6941,3.724,3.7883,3.7898,3.8063,3.8407,3.8736,3.908,3.9394,3.9753,4.0083,4.0397,4.0807,4.0952,4.0952,4.1281,4.1281,4.0952,4.1281,4.1393,4.1243,3.9914,3.9651,4.0045,4.0789,4.0857,4.0631,0.0,0.0,0.0,0.0,0.0,0.0,0.0,0.0,0.0,0.0,0.0,0.0,0.0,0.0,0.0,0.0,0.0,0.0,0.0,0.0,0.0,0.0,0.0,0.0,0.0,0.0,0.0,0.0,0.0,0.0,0.0,0.0,0.0,0.0,0.0,0.0,0.0,0.0,0.0,0.0,0.0,0.0,3.1422,3.0911,3.0313,2.9684,2.916,2.8891,2.8786,2.8786,2.8786,2.8891,2.9415,2.9579,2.9579,2.9579,2.9669,0.0,0.0,0.0,0.0,0.0,0.0,0.0,0.0,0.0,3.1482,3.1482,3.1482,3.1482,3.1482,3.1482,3.1511,3.1646,3.2168,3.2557,3.2691,3.3275,3.3484,3.2961,3.3365,3.3948,3.4607,3.4786,3.537,3.6567,3.6671,3.6941,3.7569,3.7599,3.7898,3.8571,3.8721,3.905,3.9604,3.9738,4.0068,4.0591,4.0591,4.0876,4.1384,4.1671,4.1805,4.1805,4.2012,4.2145,4.2203,4.1938,4.2014,4.2269,4.2269,4.2683,4.3379,4.3621,4.3579,4.351,0.0,0.0,0.0,0.0,0.0,0.0,0.0,0.0,0.0,0.0,0.0,0.0,0.0,0.0,0.0,0.0,0.0,0.0,0.0,0.0,0.0,0.0,0.0,0.0,0.0,0.0,0.0,0.0,0.0,0.0,0.0,0.0,0.0,0.0,0.0,0.0,0.0,0.0,0.0,0.0,0.0,0.0,3.1467,3.1392,3.1001,3.0387,3.0313,2.9939,2.9475,2.9475,2.9475,2.949,2.9564,2.9579,2.9579,2.9579,0.0,3.0402,3.0402,3.0851,0.0,3.1405,3.1362,3.1377,0.0,0.0,3.1482,3.1482,3.1482,3.1482,3.1482,3.1482,3.1661,3.2302,3.2467,3.2721,3.3305,3.3948,3.4337,3.4262,3.4322,3.4637,3.5325,3.5923,3.6552,3.7255,3.73,3.7584,3.8242,3.8287,3.8601,3.929,3.9873,4.0217,4.0292,4.0876,4.119,4.1265,4.1265,4.1309,4.1445,4.2782,4.3333,4.3403,4.4106,4.4788,4.5242,4.3938,4.4151,4.519,4.5275,4.5729,4.6062,4.4262,4.3177,4.2807,0.0,0.0,0.0,0.0,0.0,0.0,0.0,0.0,0.0,0.0,0.0,0.0,0.0,0.0,0.0,0.0,0.0,0.0,0.0,0.0,0.0,0.0,0.0,0.0,0.0,0.0,0.0,0.0,0.0,0.0,0.0,0.0,0.0,0.0,0.0,0.0,0.0,0.0,0.0,0.0,0.0,0.0,3.1482,3.1482,3.136,3.1046,3.0657,3.0342,0.0,0.0,3.0118,3.0193,3.0597,3.0717,3.0717,3.0717,3.0896,0.0,3.1106,0.0,0.0,0.0,3.1482,3.1482,3.1482,3.1482,3.1482,3.1482,3.1482,3.1601,3.2033,3.2108,3.2317,0.0,3.341,3.3754,3.4023,3.4651,3.522,3.5594,3.5639,3.5759,3.6043,3.6641,3.7285,3.7928,3.7973,3.8272,3.896,3.899,3.929,3.9963,4.0247,4.0591,4.0965,4.125,4.1579,4.1953,4.1953,4.2147,4.2521,4.3153,4.3664,4.418,4.447,4.5024,4.5665,4.5094,4.5199,4.5665,4.5751,4.5927,4.6189,4.6164,4.5953,4.5785,0.0,0.0,0.0,0.0,0.0,0.0,0.0,0.0,0.0,0.0,0.0,0.0,0.0,0.0,0.0,0.0,0.0,0.0,0.0,0.0,0.0,0.0,0.0,0.0,0.0,0.0,0.0,0.0,0.0,0.0,0.0,0.0,0.0,0.0,0.0,0.0,0.0,0.0,0.0,0.0,0.0,0.0,3.1482,3.1482,3.1482,3.1407,3.0971,3.0791,0.0,0.0,3.0791,3.0866,3.1375,3.1482,3.1482,3.1482,3.1482,3.1482,3.1482,0.0,0.0,3.1482,3.1482,3.1482,3.1482,3.1482,3.1482,3.1482,3.1616,3.1943,3.2422,3.2662,0.0,3.3664,3.4158,3.4547,3.4726,3.534,3.5953,3.6432,3.6791,3.7015,3.7015,3.7419,3.7958,3.8631,3.8676,3.8975,3.9649,3.9694,3.9993,4.0651,4.0846,4.1175,4.1654,4.1833,4.2162,4.2626,4.2626,4.3022,4.363,4.4066,4.4721,4.5463,4.5463,4.5825,4.634,4.634,4.634,4.634,4.634,4.634,4.6496,4.7571,4.7853,4.7704,0.0,0.0,0.0,0.0,0.0,0.0,0.0,0.0,0.0,0.0,0.0,0.0,0.0,0.0,0.0,0.0,0.0,0.0,0.0,0.0,0.0,0.0,0.0,0.0,0.0,0.0,0.0,0.0,0.0,0.0,0.0,0.0,0.0,0.0,0.0,0.0,0.0,0.0,0.0,0.0,0.0,0.0,3.1482,3.1482,3.1482,3.1482,3.1452,0.0,0.0,0.0,3.1437,3.1452,3.1467,3.1482,0.0,3.1482,3.1482,0.0,0.0,0.0,3.1482,3.1482,3.1482,3.1482,3.1482,3.1482,3.1482,3.1482,3.2048,3.2497,3.2512,3.3036,3.3679,3.4337,3.4472,3.4711,3.5385,3.6043,3.6462,3.6492,3.7584,3.8332,0.0,3.8347,3.8646,3.9334,3.9394,3.9679,4.0337,4.0367,4.0666,4.1324,4.1968,4.2312,4.2327,4.2955,4.3284,4.3299,4.3299,4.3678,4.451,4.6024,4.7118,4.7853,4.7853,4.7935,4.7935,4.7935,4.7935,4.7935,4.7935,4.7935,4.7935,4.8001,4.7488,4.6965,0.0,0.0,0.0,0.0,0.0,0.0,0.0,0.0,0.0,0.0,0.0,0.0,0.0,0.0,0.0,0.0,0.0,0.0,0.0,0.0,0.0,0.0,0.0,0.0,0.0,0.0,0.0,0.0,0.0,0.0,0.0,0.0,0.0,0.0,0.0,0.0,0.0,0.0,0.0,0.0,0.0,0.0,3.0851,3.0851,3.1135,3.1482,0.0,0.0,0.0,0.0,0.0,0.0,3.1482,0.0,0.0,3.1482,0.0,0.0,0.0,0.0,3.1482,3.1482,3.1482,3.1482,3.1482,3.1482,3.1601,3.2093,3.2362,3.2781,3.3649,3.3993,3.4367,3.504,3.516,3.54,3.6058,3.6357,3.6791,3.7644,3.8123,0.0,0.0,0.0,0.0,3.9394,3.9828,4.0172,4.0382,4.0816,4.1354,4.2013,4.2252,4.2861,4.3808,4.396,4.4358,4.4887,4.4373,4.4526,4.5258,4.4721,4.5227,4.641,4.5897,4.6253,4.7186,4.7186,4.7488,4.8001,4.8001,4.8001,4.8001,4.8001,4.7853,4.7638,0.0,0.0,0.0,0.0,0.0,0.0,0.0,0.0,0.0,0.0,0.0,0.0,0.0,0.0,0.0,0.0,0.0,0.0,0.0,0.0,0.0,0.0,0.0,0.0,0.0,0.0,0.0,0.0,0.0,0.0,0.0,0.0,0.0,0.0,0.0,0.0,0.0,0.0,0.0,0.0,0.0,0.0,3.0537,3.0776,3.115,0.0,0.0,0.0,0.0,0.0,0.0,0.0,0.0,0.0,0.0,0.0,0.0,0.0,0.0,3.1482,3.1482,3.1482,3.1482,3.1541,3.1824,3.1884,3.2078,3.2736,3.3051,3.3469,3.4322,3.4681,3.4996,3.5429,3.5699,3.6013,3.6432,3.6881,3.7464,3.8287,3.8601,0.0,0.0,0.0,0.0,3.9768,4.0172,4.0606,4.107,4.1504,4.2028,4.2686,4.2701,4.327,4.451,4.451,4.4737,4.5258,4.5036,4.5184,4.5697,4.5169,4.552,4.648,4.5969,4.6324,4.7253,4.7253,4.7555,4.8001,4.8001,4.8001,4.8001,4.8001,4.8001,4.8001,0.0,0.0,0.0,0.0,0.0,0.0,0.0,0.0,0.0,0.0,0.0,0.0,0.0,0.0,0.0,0.0,0.0,0.0,0.0,0.0,0.0,0.0,0.0,0.0,0.0,0.0,0.0,0.0,0.0,0.0,0.0,0.0,0.0,0.0,0.0,0.0,0.0,0.0,0.0,0.0,0.0,0.0,3.0477,3.1165,0.0,0.0,0.0,0.0,0.0,0.0,0.0,0.0,0.0,0.0,0.0,0.0,0.0,3.1482,3.1482,3.1482,3.1482,3.1482,3.1497,3.1749,3.2362,3.2542,3.2751,3.341,3.4038,3.4487,0.0,0.0,3.5504,3.5504,3.6058,3.6492,3.6537,3.7614,3.8407,0.0,0.0,0.0,0.0,0.0,0.0,4.0502,0.0,4.1055,4.2297,4.2387,4.2701,4.3314,4.3329,4.3771,4.451,4.4586,4.4586,4.4662,4.5332,4.5697,4.5769,4.7218,4.7919,4.7935,4.7935,4.7919,4.7935,4.7935,4.7935,4.8001,4.8001,4.8001,4.8001,4.8001,4.8001,4.8001,0.0,0.0,0.0,0.0,0.0,0.0,0.0,0.0,0.0,0.0,0.0,0.0,0.0,0.0,0.0,0.0,0.0,0.0,0.0,0.0,0.0,0.0,0.0,0.0,0.0,0.0,0.0,0.0,0.0,0.0,0.0,0.0,0.0,0.0,0.0,0.0,0.0,0.0,0.0,0.0,0.0,0.0,2.916,0.0,0.0,0.0,0.0,0.0,0.0,0.0,0.0,0.0,0.0,0.0,3.1482,0.0,0.0,3.1482,3.1482,3.1482,3.1482,3.1482,3.1898,3.2302,3.2482,3.2901,3.344,3.4098,3.4352,3.4637,0.0,0.0,0.0,3.5504,3.6058,0.0,3.7105,3.7883,0.0,0.0,0.0,3.9619,4.0113,4.0307,0.0,0.0,4.1863,4.2013,4.2342,4.2821,4.3165,4.3329,4.3849,4.4586,4.5405,4.5969,4.6237,4.6237,4.5825,4.5985,4.6534,4.634,4.655,4.705,4.655,4.662,4.7118,4.7118,4.7488,4.8001,4.8001,4.8001,4.8001,4.8001,4.8001,4.8001,0.0,0.0,0.0,0.0,0.0,0.0,0.0,0.0,0.0,0.0,0.0,0.0,0.0,0.0,0.0,0.0,0.0,0.0,0.0,0.0,0.0,0.0,0.0,0.0,0.0,0.0,0.0,0.0,0.0,0.0,0.0,0.0,0.0,0.0,0.0,0.0,0.0,0.0,0.0,0.0,0.0,0.0,0.0,0.0,0.0,0.0,0.0,0.0,0.0,0.0,0.0,3.1482,3.1482,3.1482,3.1482,3.1482,0.0,3.1482,3.1482,3.1482,3.1541,3.1898,3.2243,3.2662,3.3245,3.3664,3.4113,3.4786,3.4921,0.0,0.0,0.0,0.0,0.0,0.0,0.0,3.736,3.8242,3.899,0.0,3.9424,0.0,4.0337,4.0666,4.125,0.0,0.0,4.2491,4.2776,4.3434,4.3693,4.3329,4.4434,4.5258,4.5697,4.6111,4.6324,4.6324,4.5913,4.6127,4.6811,4.6775,4.6913,4.7337,0.0,4.6913,4.7337,4.7337,4.7555,4.8001,4.8001,4.8001,4.8001,4.8001,4.8001,4.8001,0.0,0.0,0.0,0.0,0.0,0.0,0.0,0.0,0.0,0.0,0.0,0.0,0.0,0.0,0.0,0.0,0.0,0.0,0.0,0.0,0.0,0.0,0.0,0.0,0.0,0.0,0.0,0.0,0.0,0.0,0.0,0.0,0.0,0.0,0.0,0.0,0.0,0.0,0.0,0.0,0.0,0.0,0.0,0.0,0.0,0.0,0.0,0.0,0.0,0.0,3.1482,3.1482,3.1482,3.1482,3.1482,3.1482,3.1482,3.1482,3.1482,3.1482,3.1631,3.2347,3.2587,3.2961,3.4188,3.4547,3.4786,3.5385,0.0,0.0,3.5504,0.0,3.5534,3.5624,0.0,3.7434,3.7524,3.8631,3.9424,3.9424,3.9499,3.9813,4.0472,4.113,4.1788,4.2447,4.2491,4.2746,4.3299,4.4066,4.4297,4.3771,4.5036,4.5769,4.5841,4.5769,4.5697,4.5697,4.5697,4.6127,4.6811,4.7638,4.8001,4.8001,0.0,0.0,4.8001,4.8001,4.8001,4.8001,4.8001,4.8001,4.8001,4.8001,4.8001,4.8001,0.0,0.0,0.0,0.0,0.0,0.0,0.0,0.0,0.0,0.0,0.0,0.0,0.0,0.0,0.0,0.0,0.0,0.0,0.0,0.0,0.0,0.0,0.0,0.0,0.0,0.0,0.0,0.0,0.0,0.0,0.0,0.0,0.0,0.0,0.0,0.0,0.0,0.0,0.0,0.0,0.0,0.0,0.0,0.0,0.0,0.0,0.0,0.0,0.0,0.0,3.1482,3.1482,3.1482,3.1482,3.1482,3.1482,3.1482,3.1482,3.1482,3.1482,3.1631,3.2347,3.2916,3.3529,3.4307,3.4921,0.0,0.0,0.0,3.5504,3.5504,3.5504,0.0,3.6237,0.0,0.0,0.0,0.0,3.9424,0.0,0.0,0.0,0.0,0.0,0.0,0.0,0.0,0.0,4.3329,4.4066,4.502,4.6166,4.5897,4.5969,4.6604,4.5969,4.5697,4.5697,4.5697,4.6127,4.6811,4.7638,4.8001,4.8001,0.0,0.0,4.8001,4.8001,4.8001,4.8001,4.8001,4.8001,4.8001,4.8001,4.8001,4.8001,0.0,0.0,0.0,0.0,0.0,0.0,0.0,0.0,0.0,0.0,0.0,0.0,0.0,0.0,0.0,0.0,0.0,0.0,0.0,0.0,0.0,0.0,0.0,0.0,0.0,0.0,0.0,0.0,0.0,0.0,0.0,0.0,0.0,0.0,0.0,0.0,0.0,0.0,0.0,0.0,0.0,0.0,0.0,0.0,0.0,0.0,0.0,0.0,0.0,0.0,3.124,3.1482,3.1482,3.1482,3.1482,3.1482,3.1482,3.1482,3.1482,3.1482,3.1631,3.2347,3.3006,3.3664,3.4322,0.0,0.0,0.0,0.0,3.5504,3.5504,0.0,0.0,0.0,0.0,0.0,0.0,0.0,0.0,0.0,0.0,0.0,0.0,0.0,0.0,0.0,0.0,0.0,4.3329,4.4066,4.5243,4.6742,4.6464,4.6464,4.6828,4.6464,4.6253,4.6253,4.6253,4.6689,4.7421,4.7853,4.8001,4.8001,0.0,0.0,4.8001,4.8001,4.8001,4.8001,4.8001,4.8001,4.8001,4.8001,4.8001,4.8001,0.0,0.0,0.0,0.0,0.0,0.0,0.0,0.0,0.0,0.0,0.0,0.0,0.0,0.0,0.0,0.0,0.0,0.0,0.0,0.0,0.0,0.0,0.0,0.0,0.0,0.0,0.0,0.0,0.0,0.0,0.0,0.0,0.0,0.0,0.0,0.0,0.0,0.0,0.0,0.0,0.0,0.0,0.0,0.0,0.0,0.0,0.0,0.0,0.0,0.0,3.0866,3.1345,3.1422,3.1482,3.1482,3.1482,3.1482,3.1482,3.1482,3.1482,3.1631,3.2347,3.3006,3.3664,3.4322,3.5011,0.0,0.0,0.0,0.0,0.0,0.0,0.0,0.0,0.0,0.0,0.0,0.0,0.0,0.0,0.0,0.0,0.0,0.0,0.0,0.0,0.0,0.0,0.0,4.4297,4.5374,4.6742,4.6811,4.6811,4.6811,4.6811,4.6811,4.6811,4.6811,4.7186,4.8001,4.8001,4.8001,4.8001,0.0,0.0,0.0,4.8166,4.8249,4.8249,4.8415,4.8481,4.8465,4.853,4.8465,4.8481,0.0,0.0,0.0,0.0,0.0,0.0,0.0,0.0,0.0,0.0,0.0,0.0,0.0,0.0,0.0,0.0,0.0,0.0,0.0,0.0,0.0,0.0,0.0,0.0,0.0,0.0,0.0,0.0,0.0,0.0,0.0,0.0,0.0,0.0,0.0,0.0,0.0,0.0,0.0,0.0,0.0,0.0,0.0,0.0,0.0,0.0,0.0,0.0,0.0,0.0,0.0,3.0717,3.1345,3.1482,3.1482,3.1482,0.0,0.0,3.1482,3.1482,3.1631,3.2347,3.3006,3.3664,3.4322,0.0,0.0,0.0,3.5504,3.5504,0.0,0.0,0.0,0.0,0.0,0.0,0.0,0.0,0.0,0.0,0.0,0.0,0.0,0.0,0.0,0.0,0.0,0.0,0.0,4.5184,4.5969,4.6742,4.6811,4.6811,4.6811,4.6811,4.6811,4.6811,4.6811,4.7186,4.8001,4.8001,4.8001,4.8001,0.0,0.0,0.0,4.873,4.9011,4.9077,4.9756,5.0005,5.0005,5.0158,5.0108,5.0005,0.0,0.0,0.0,0.0,0.0,0.0,0.0,0.0,0.0,0.0,0.0,0.0,0.0,0.0,0.0,0.0,0.0,0.0,0.0,0.0,0.0,0.0,0.0,0.0,0.0,0.0,0.0,0.0,0.0,0.0,0.0,0.0,0.0,0.0,0.0,0.0,0.0,0.0,0.0,0.0,0.0,0.0,0.0,0.0,0.0,0.0,0.0,0.0,0.0,0.0,0.0,0.0,3.1315,3.1482,0.0,0.0,3.1482,3.1482,3.1482,3.1482,3.1541,3.1795,3.2721,3.3559,3.3829,0.0,0.0,3.5504,3.5504,3.5504,3.5504,0.0,0.0,0.0,0.0,0.0,0.0,0.0,0.0,0.0,0.0,0.0,0.0,0.0,0.0,0.0,0.0,0.0,0.0,4.5551,4.6056,4.6742,4.7253,4.7488,4.7488,4.7488,4.7488,4.7488,4.7488,4.7704,4.8001,4.8001,4.8001,4.8034,0.0,0.0,0.0,4.9475,4.9773,4.9806,5.0104,5.0272,5.0307,5.0323,5.0375,5.0493,0.0,0.0,0.0,0.0,0.0,0.0,0.0,0.0,0.0,0.0,0.0,0.0,0.0,0.0,0.0,0.0,0.0,0.0,0.0,0.0,0.0,0.0,0.0,0.0,0.0,0.0,0.0,0.0,0.0,0.0,0.0,0.0,0.0,0.0,0.0,0.0,0.0,0.0,0.0,0.0,0.0,0.0,0.0,0.0,0.0,0.0,0.0,0.0,0.0,0.0,0.0,0.0,0.0,0.0,0.0,0.0,3.1482,3.1482,3.1482,3.1482,3.1482,3.1482,3.2377,3.32,0.0,0.0,0.0,3.519,3.537,3.5504,3.5504,3.5504,3.5923,3.7195,0.0,3.7883,0.0,0.0,0.0,0.0,0.0,0.0,0.0,0.0,0.0,0.0,0.0,0.0,0.0,4.6056,4.6253,4.6811,4.7555,4.8001,4.8001,4.8001,4.8001,4.8001,4.8001,4.8001,4.8001,4.8001,4.8001,0.0,0.0,0.0,0.0,5.0189,5.0587,5.0604,5.0888,5.1023,5.1058,5.1108,5.116,5.1262,0.0,0.0,0.0,0.0,0.0,0.0,0.0,0.0,0.0,0.0,0.0,0.0,0.0,0.0,0.0,0.0,0.0,0.0,0.0,0.0,0.0,0.0,0.0,0.0,0.0,0.0,0.0,0.0,0.0,0.0,0.0,0.0,0.0,0.0,0.0,0.0,0.0,0.0,0.0,0.0,0.0,0.0,0.0,0.0,0.0,0.0,0.0,0.0,0.0,0.0,0.0,0.0,0.0,0.0,0.0,0.0,3.1482,3.1482,3.1482,3.1482,3.1482,3.1482,3.2033,3.2527,0.0,0.0,0.0,0.0,3.5026,3.5504,3.5504,3.5504,3.5923,3.7195,3.7404,3.7883,3.923,0.0,0.0,0.0,0.0,0.0,0.0,0.0,0.0,0.0,0.0,0.0,0.0,0.0,4.6811,4.6811,4.7555,4.8001,4.8001,4.8001,4.8001,4.8001,4.8001,4.8001,4.8001,4.8001,0.0,0.0,0.0,0.0,0.0,5.0857,5.1508,5.1575,5.2516,5.2747,5.2607,5.3025,5.2886,5.2607,0.0,0.0,0.0,0.0,0.0,0.0,0.0,0.0,0.0,0.0,0.0,0.0,0.0,0.0,0.0,0.0,0.0,0.0,0.0,0.0,0.0,0.0,0.0,0.0,0.0,0.0,0.0,0.0,0.0,0.0,0.0,0.0,0.0,0.0,0.0,0.0,0.0,0.0,0.0,0.0,0.0,0.0,0.0,0.0,0.0,0.0,0.0,0.0,0.0,0.0,0.0,0.0,0.0,0.0,0.0,0.0,0.0,0.0,3.1482,3.1482,3.1482,3.1482,3.2018,3.2512,3.2512,0.0,0.0,0.0,0.0,0.0,3.5504,3.5504,3.5923,3.7195,3.7404,3.7883,0.0,0.0,0.0,0.0,0.0,0.0,0.0,0.0,0.0,0.0,0.0,0.0,0.0,0.0,4.7638,4.7638,4.7853,4.8001,4.8001,4.8001,4.8001,4.8001,4.8001,4.8001,4.8001,4.8115,0.0,0.0,0.0,0.0,0.0,5.2013,5.2483,5.2516,5.2803,5.2972,5.2972,5.2972,5.3058,5.3212,0.0,0.0,0.0,0.0,0.0,0.0,0.0,0.0,0.0,0.0,0.0,0.0,0.0,0.0,0.0,0.0,0.0,0.0,0.0,0.0,0.0,0.0,0.0,0.0,0.0,0.0,0.0,0.0,0.0,0.0,0.0,0.0,0.0,0.0,0.0,0.0,0.0,0.0,0.0,0.0,0.0,0.0,0.0,0.0,0.0,0.0,0.0,0.0,0.0,0.0,0.0,0.0,0.0,0.0,0.0,0.0,0.0,0.0,0.0,3.1482,3.1482,3.1482,3.1839,0.0,0.0,0.0,0.0,0.0,0.0,0.0,0.0,3.5504,3.5923,3.7195,3.7404,3.7883,0.0,0.0,0.0,0.0,0.0,0.0,0.0,0.0,0.0,0.0,0.0,0.0,0.0,0.0,4.8001,4.8049,4.8001,4.8001,4.8001,4.8001,4.8001,4.8001,4.8001,4.8001,4.8001,0.0,0.0,0.0,0.0,0.0,0.0,5.2553,5.3041,5.3041,5.3127,5.3195,5.3179,5.3127,5.3212,5.3348,0.0,0.0,0.0,0.0,0.0,0.0,0.0,0.0,0.0,0.0,0.0,0.0,0.0,0.0,0.0,0.0,0.0,0.0,0.0,0.0,0.0,0.0,0.0,0.0,0.0,0.0,0.0,0.0,0.0,0.0,0.0,0.0,0.0,0.0,0.0,0.0,0.0,0.0,0.0,0.0,0.0,0.0,0.0,0.0,0.0,0.0,0.0,0.0,0.0,0.0,0.0,0.0,0.0,0.0,0.0,0.0,0.0,0.0,0.0,0.0,0.0,0.0,0.0,0.0,0.0,0.0,0.0,0.0,0.0,0.0,0.0,0.0,3.5983,3.721,3.7449,3.7928,0.0,0.0,0.0,0.0,0.0,0.0,0.0,0.0,0.0,0.0,0.0,0.0,0.0,0.0,0.0,4.8163,4.8049,4.8001,4.8066,4.8066,4.8066,4.8066,4.8066,4.8066,4.8066,0.0,0.0,0.0,0.0,0.0,0.0,5.2539,5.3247,5.3264,5.3433,5.3416,5.3264,5.3416,5.3348,5.3264,0.0,0.0,0.0,0.0,0.0,0.0,0.0,0.0,0.0,0.0,0.0,0.0,0.0,0.0,0.0,0.0,0.0,0.0,0.0,0.0,0.0,0.0,0.0,0.0,0.0,0.0,0.0,0.0,0.0,0.0,0.0,0.0,0.0,0.0,0.0,0.0,0.0,0.0,0.0,0.0,0.0,0.0,0.0,0.0,0.0,0.0,0.0,0.0,0.0,0.0,0.0,0.0,0.0,0.0,0.0,0.0,0.0,0.0,0.0,0.0,0.0,0.0,0.0,0.0,0.0,0.0,0.0,0.0,0.0,0.0,0.0,0.0,0.0,3.7285,3.7823,3.8452,0.0,0.0,0.0,0.0,0.0,0.0,0.0,0.0,0.0,0.0,0.0,0.0,0.0,0.0,0.0,4.8163,4.8163,4.8244,4.8356,4.8356,4.8356,4.8356,4.8356,4.8356,4.8356,0.0,0.0,0.0,0.0,0.0,5.1999,5.3028,5.3416,5.3416,5.3501,5.3501,5.3433,5.3501,5.3501,5.3433,0.0,0.0,0.0,0.0,0.0,0.0,0.0,0.0,0.0,0.0,0.0,0.0,0.0,0.0,0.0,0.0,0.0,0.0,0.0,0.0,0.0,0.0,0.0,0.0,0.0,0.0,0.0,0.0,0.0,0.0,0.0,0.0,0.0,0.0,0.0,0.0,0.0,0.0,0.0,0.0,0.0,0.0,0.0,0.0,0.0,0.0,0.0,0.0,0.0,2.7625,2.7625,2.7694,0.0,0.0,0.0,0.0,3.0986,0.0,0.0,0.0,0.0,0.0,0.0,0.0,0.0,0.0,0.0,0.0,0.0,0.0,0.0,0.0,0.0,0.0,3.853,0.0,0.0,0.0,0.0,0.0,0.0,0.0,0.0,0.0,0.0,0.0,0.0,0.0,0.0,0.0,0.0,0.0,4.85,4.85,4.8483,4.8483,4.8483,4.8483,4.8483,4.8483,4.8483,0.0,0.0,0.0,0.0,0.0,5.186,5.2638,5.3179,5.3501,5.3501,5.3501,5.3501,5.3501,5.3501,5.3501,0.0,0.0,0.0,0.0,0.0,0.0,0.0,0.0,0.0,0.0,0.0,0.0,0.0,0.0,0.0,0.0,0.0,0.0,0.0,0.0,0.0,0.0,0.0,0.0,0.0,0.0,0.0,0.0,0.0,0.0,0.0,0.0,0.0,0.0,0.0,0.0,0.0,0.0,0.0,0.0,0.0,0.0,0.0,0.0,0.0,0.0,0.0,0.0,0.0,2.7625,2.7625,2.773,2.8263,0.0,0.0,0.0,0.0,0.0,0.0,0.0,0.0,0.0,0.0,0.0,0.0,0.0,0.0,0.0,0.0,0.0,0.0,0.0,0.0,0.0,0.0,0.0,0.0,0.0,0.0,0.0,0.0,0.0,0.0,0.0,0.0,0.0,0.0,0.0,0.0,0.0,0.0,0.0,4.8786,4.8707,4.8547,4.8547,4.8547,4.8547,4.8547,4.8547,4.861,4.8753,0.0,0.0,0.0,0.0,5.1268,5.1995,5.2773,5.3501,5.3501,5.3501,5.3501,5.3501,5.3501,5.3501,0.0,0.0,0.0,0.0,0.0,0.0,0.0,0.0,0.0,0.0,0.0,0.0,0.0,0.0,0.0,0.0,0.0,0.0,0.0,0.0,0.0,0.0,0.0,0.0,0.0,0.0,0.0,0.0,0.0,0.0,0.0,0.0,0.0,0.0,0.0,0.0,0.0,0.0,0.0,0.0,0.0,0.0,0.0,0.0,0.0,0.0,0.0,0.0,0.0,2.7625,2.7625,2.764,2.7694,0.0,0.0,0.0,0.0,0.0,0.0,0.0,0.0,0.0,0.0,0.0,0.0,0.0,0.0,0.0,0.0,0.0,0.0,0.0,0.0,0.0,0.0,0.0,0.0,0.0,0.0,0.0,0.0,0.0,0.0,0.0,0.0,0.0,0.0,0.0,0.0,0.0,0.0,0.0,0.0,4.8832,4.894,4.894,4.894,4.894,4.894,4.894,4.894,4.894,4.894,0.0,0.0,5.0524,5.1268,5.1995,5.2773,5.3501,5.3501,5.3501,5.3501,5.3501,5.3501,5.3501,0.0,0.0,0.0,0.0,0.0,0.0,0.0,0.0,0.0,0.0,0.0,0.0,0.0,0.0,0.0,0.0,0.0,0.0,0.0,0.0,0.0,0.0,0.0,0.0,0.0,0.0,0.0,0.0,0.0,0.0,0.0,0.0,0.0,0.0,0.0,0.0,0.0,0.0,0.0,0.0,0.0,0.0,0.0,0.0,0.0,0.0,0.0,0.0,0.0,0.0,2.7625,2.7625,2.7625,0.0,0.0,0.0,0.0,0.0,3.1482,0.0,0.0,0.0,0.0,0.0,0.0,0.0,0.0,0.0,0.0,0.0,0.0,0.0,0.0,0.0,0.0,0.0,0.0,0.0,0.0,0.0,0.0,0.0,0.0,0.0,0.0,0.0,0.0,0.0,0.0,0.0,0.0,0.0,0.0,4.8956,4.9001,4.9001,4.9001,4.9001,4.9001,4.9001,4.9001,4.9001,4.9001,4.9018,0.0,5.0152,5.1251,5.1589,5.2418,5.3501,5.3501,5.3501,5.3501,5.3501,5.3501,5.3501,0.0,0.0,0.0,0.0,0.0,0.0,0.0,0.0,0.0,0.0,0.0,0.0,0.0,0.0,0.0,0.0,0.0,0.0,0.0,0.0,0.0,0.0,0.0,0.0,0.0,0.0,0.0,0.0,0.0,0.0,0.0,0.0,0.0,0.0,0.0,0.0,0.0,0.0,0.0,0.0,0.0,0.0,0.0,0.0,0.0,0.0,0.0,0.0,0.0,0.0,0.0,0.0,0.0,0.0,0.0,0.0,3.0507,3.1482,3.1482,3.1582,0.0,0.0,0.0,0.0,0.0,0.0,0.0,0.0,0.0,0.0,0.0,0.0,0.0,0.0,0.0,0.0,0.0,0.0,0.0,0.0,0.0,0.0,0.0,0.0,0.0,0.0,0.0,0.0,0.0,0.0,0.0,0.0,0.0,0.0,4.9001,4.9001,4.9001,4.9001,4.9001,4.9001,4.9001,4.9001,4.9001,4.9001,4.9001,4.9746,5.0963,5.115,5.2012,5.3247,5.3433,5.3501,5.3501,5.3501,5.3501,5.3501,0.0,0.0,0.0,0.0,0.0,0.0,0.0,0.0,0.0,0.0,0.0,0.0,0.0,0.0,0.0,0.0,0.0,0.0,0.0,0.0,0.0,0.0,0.0,0.0,0.0,0.0,0.0,0.0,0.0,0.0,0.0,0.0,0.0,0.0,0.0,0.0,0.0,0.0,0.0,0.0,0.0,0.0,0.0,0.0,0.0,0.0,0.0,0.0,0.0,0.0,0.0,0.0,0.0,0.0,0.0,0.0,3.0507,3.1482,3.1482,3.191,0.0,0.0,0.0,0.0,0.0,0.0,0.0,0.0,0.0,0.0,0.0,0.0,0.0,0.0,0.0,0.0,0.0,0.0,0.0,0.0,0.0,0.0,0.0,0.0,0.0,0.0,0.0,0.0,0.0,0.0,0.0,0.0,0.0,4.9001,4.9001,4.9001,4.9001,4.9001,4.9001,4.9001,4.9001,4.9001,4.9001,4.9001,4.9001,4.9458,5.0219,5.093,5.1674,5.2469,5.3213,5.3501,5.3501,5.3501,5.3501,5.3501,0.0,0.0,0.0,0.0,0.0,0.0,0.0,0.0,0.0,0.0,0.0,0.0,0.0,0.0,0.0,0.0,0.0,0.0,0.0,0.0,0.0,0.0,0.0,0.0,0.0,0.0,0.0,0.0,0.0,0.0,0.0,0.0,0.0,0.0,0.0,0.0,0.0,0.0,0.0,0.0,0.0,0.0,0.0,0.0,0.0,0.0,0.0,0.0,0.0,0.0,0.0,0.0,0.0,0.0,0.0,0.0,3.0507,3.1582,3.1966,3.2287,3.2641,0.0,0.0,0.0,0.0,0.0,0.0,0.0,0.0,0.0,0.0,0.0,0.0,0.0,0.0,0.0,0.0,0.0,0.0,0.0,0.0,0.0,0.0,0.0,0.0,0.0,0.0,0.0,0.0,0.0,0.0,0.0,0.0,4.9001,4.9001,4.9001,4.9001,4.9001,4.9001,4.9001,4.9001,4.9001,4.9001,4.9001,4.9001,4.9424,5.0152,5.0913,5.164,5.2384,5.3196,5.3501,5.3501,5.3501,5.3501,5.3501,0.0,0.0,0.0,0.0,0.0,0.0,0.0,0.0,0.0,0.0,0.0,0.0,0.0,0.0,0.0,0.0,0.0,0.0,0.0,0.0,0.0,0.0,0.0,0.0,0.0,0.0,0.0,0.0,0.0,0.0,0.0,0.0,0.0,0.0,0.0,0.0,0.0,0.0,0.0,0.0,0.0,0.0,0.0,0.0,0.0,0.0,0.0,0.0,0.0,0.0,0.0,0.0,0.0,0.0,0.0,0.0,0.0,3.1853,3.2287,3.2641,3.3055,3.3917,0.0,0.0,0.0,0.0,0.0,0.0,0.0,0.0,0.0,0.0,0.0,0.0,0.0,0.0,0.0,0.0,0.0,0.0,0.0,0.0,0.0,0.0,0.0,0.0,0.0,0.0,0.0,0.0,0.0,0.0,0.0,0.0,4.9001,4.9001,4.9001,4.9001,4.9001,4.9001,4.9001,4.9001,4.9001,4.9001,4.9001,4.9289,4.983,5.0811,5.1792,5.2739,5.3281,5.3501,5.3501,5.3501,5.3501,5.3501,0.0,0.0,0.0,0.0,0.0,0.0,0.0,0.0,0.0,0.0,0.0,0.0,0.0,0.0,0.0,0.0,0.0,0.0,0.0,0.0,0.0,0.0,0.0,0.0,0.0,0.0,0.0,0.0,0.0,0.0,0.0,0.0,0.0,0.0,0.0,0.0,0.0,0.0,0.0,0.0,0.0,0.0,0.0,0.0,0.0,0.0,0.0,0.0,0.0,0.0,0.0,0.0,0.0,0.0,0.0,2.9579,3.0934,3.2398,3.2382,3.2895,3.3547,0.0,0.0,0.0,0.0,0.0,0.0,0.0,0.0,0.0,0.0,0.0,0.0,0.0,0.0,0.0,0.0,0.0,0.0,0.0,0.0,0.0,0.0,0.0,0.0,0.0,0.0,0.0,0.0,0.0,0.0,0.0,0.0,0.0,4.9001,4.9001,4.9001,4.9001,4.9001,4.9001,4.9001,4.9001,4.9001,4.9001,4.9001,4.9001,4.912,5.0608,5.2114,5.3501,5.3501,5.3501,5.3501,5.3501,5.3501,5.3501,0.0,0.0,0.0,0.0,0.0,0.0,0.0,0.0,0.0,0.0,0.0,0.0,0.0,0.0,0.0,0.0,0.0,0.0,0.0,0.0,0.0,0.0,0.0,0.0,0.0,0.0,0.0,0.0,0.0,0.0,0.0,0.0,0.0,0.0,0.0,0.0,0.0,0.0,0.0,0.0,0.0,0.0,0.0,0.0,0.0,0.0,0.0,0.0,0.0,0.0,0.0,0.0,0.0,0.0,0.0,2.9579,3.0618,3.1951,3.2734,0.0,0.0,0.0,0.0,0.0,0.0,0.0,0.0,0.0,0.0,0.0,0.0,0.0,0.0,0.0,0.0,0.0,0.0,0.0,0.0,0.0,0.0,0.0,0.0,0.0,0.0,0.0,0.0,0.0,0.0,0.0,0.0,0.0,0.0,0.0,4.9001,4.9001,4.9001,4.9001,4.9001,4.9001,4.9001,4.9001,4.9001,4.9001,4.9001,4.9001,4.912,5.0608,5.2114,5.3501,5.3501,5.3501,5.3501,5.3501,5.3501,5.3501,0.0,0.0,0.0,0.0,0.0,0.0,0.0,0.0,0.0,0.0,0.0,0.0,0.0,0.0,0.0,0.0,0.0,0.0,0.0,0.0,0.0,0.0,0.0,0.0,0.0,0.0,0.0,0.0,0.0,0.0,0.0,0.0,0.0,0.0,0.0,0.0,0.0,0.0,0.0,0.0,0.0,0.0,0.0,0.0,0.0,0.0,0.0,0.0,0.0,0.0,0.0,0.0,0.0,0.0,0.0,3.0243,3.1265,3.2461,0.0,0.0,0.0,0.0,0.0,0.0,0.0,0.0,0.0,0.0,0.0,0.0,0.0,0.0,0.0,0.0,0.0,0.0,0.0,0.0,0.0,0.0,0.0,0.0,0.0,0.0,0.0,0.0,0.0,0.0,0.0,0.0,0.0,0.0,0.0,0.0,4.9001,4.9001,4.9001,4.9001,4.9001,4.9001,4.9001,4.9001,4.9001,4.9001,4.9001,4.9171,4.9526,5.0727,5.1928,5.3061,5.3382,5.3501,5.3501,5.3501,5.3501,5.3501,0.0,0.0,0.0,0.0,0.0,0.0,0.0,0.0,0.0,0.0,0.0,0.0,0.0,0.0,0.0,0.0,0.0,0.0,0.0,0.0,0.0,0.0,0.0,0.0,0.0,0.0,0.0,0.0,0.0,0.0,0.0,0.0,0.0,0.0,0.0,0.0,0.0,0.0,0.0,0.0,0.0,0.0,0.0,0.0,0.0,0.0,0.0,0.0,0.0,0.0,0.0,0.0,0.0,0.0,0.0,3.1129,3.2347,0.0,0.0,0.0,0.0,0.0,0.0,0.0,0.0,0.0,0.0,0.0,0.0,0.0,0.0,0.0,0.0,0.0,0.0,0.0,0.0,0.0,0.0,0.0,0.0,0.0,0.0,0.0,0.0,0.0,0.0,0.0,0.0,0.0,0.0,0.0,0.0,0.0,4.9001,4.9001,4.9001,0.0,4.9001,4.9001,4.9001,4.9001,4.9001,4.9001,4.9001,4.9424,5.0152,5.0913,5.164,5.2384,5.3196,5.3501,5.3501,5.3501,5.3501,5.3501,0.0,0.0,0.0,0.0,0.0,0.0,0.0,0.0,0.0,0.0,0.0,0.0,0.0,0.0,0.0,0.0,0.0,0.0,0.0,0.0,0.0,0.0,0.0,0.0,0.0,0.0,0.0,0.0,0.0,0.0,0.0,0.0,0.0,0.0,0.0,0.0,0.0,0.0,0.0,0.0,0.0,0.0,0.0,0.0,0.0,0.0,0.0,0.0,0.0,0.0,0.0,0.0,0.0,2.9056,2.9753,3.0533,0.0,0.0,0.0,0.0,0.0,0.0,0.0,0.0,0.0,0.0,0.0,0.0,0.0,0.0,0.0,0.0,0.0,0.0,0.0,0.0,0.0,0.0,0.0,0.0,0.0,0.0,0.0,0.0,0.0,0.0,0.0,0.0,0.0,0.0,0.0,0.0,0.0,4.9001,4.9001,4.9001,4.9001,0.0,4.9001,4.9001,4.9001,4.9001,4.9001,4.9001,4.9001,4.9424,5.0152,5.0913,5.164,5.2384,5.3196,5.3501,5.3501,5.3501,5.3501,5.3501,0.0,0.0,0.0,0.0,0.0,0.0,0.0,0.0,0.0,0.0,0.0,0.0,0.0,0.0,0.0,0.0,0.0,0.0,0.0,0.0,0.0,0.0,0.0,0.0,0.0,0.0,0.0,0.0,0.0,0.0,0.0,0.0,0.0,0.0,0.0,0.0,0.0,0.0,0.0,0.0,0.0,0.0,0.0,0.0,0.0,0.0,0.0,0.0,0.0,0.0,0.0,0.0,0.0,0.0,2.9868,3.1131,0.0,0.0,0.0,0.0,0.0,0.0,0.0,0.0,0.0,0.0,0.0,0.0,0.0,0.0,0.0,0.0,0.0,0.0,0.0,0.0,0.0,0.0,0.0,0.0,0.0,0.0,0.0,0.0,0.0,0.0,0.0,0.0,0.0,0.0,0.0,0.0,4.9001,4.9001,4.9001,4.9001,4.9001,4.9001,4.9001,4.9001,4.9001,4.9001,4.9001,4.9001,4.9001,4.9221,4.9627,5.0371,5.1116,5.186,5.2621,5.3162,5.3501,5.3501,5.3501,5.3501,0.0,0.0,0.0,0.0,0.0,0.0,0.0,0.0,0.0,0.0,0.0,0.0,0.0,0.0,0.0,0.0,0.0,0.0,0.0,0.0,0.0,0.0,0.0,0.0,0.0,0.0,0.0,0.0,0.0,0.0,0.0,0.0,0.0,0.0,0.0,0.0,0.0,0.0,0.0,0.0,0.0,0.0,0.0,0.0,0.0,0.0,0.0,0.0,0.0,0.0,0.0,0.0,0.0,0.0,0.0,0.0,0.0,0.0,0.0,0.0,0.0,0.0,0.0,0.0,0.0,0.0,0.0,0.0,0.0,0.0,0.0,0.0,0.0,0.0,0.0,0.0,0.0,0.0,0.0,0.0,0.0,0.0,0.0,0.0,0.0,0.0,0.0,0.0,0.0,0.0,4.9001,4.9001,4.9001,4.9001,4.9001,4.9001,4.9001,4.9001,4.9001,4.9001,4.9001,4.9001,4.9001,4.9001,4.9001,4.9001,4.9069,4.9796,5.0541,5.1285,5.2012,5.279,5.3501,5.3501,5.3501,5.3501,0.0,0.0,0.0,0.0,0.0,0.0,0.0,0.0,0.0,0.0,0.0,0.0,0.0,0.0,0.0,0.0,0.0,0.0,0.0,0.0,0.0,0.0,0.0,0.0,0.0,0.0,0.0,0.0,0.0,0.0,0.0,0.0,0.0,0.0,0.0,0.0,0.0,0.0,0.0,0.0,0.0,0.0,0.0,0.0,0.0,0.0,0.0,0.0,0.0,0.0,0.0,0.0,0.0,0.0,0.0,0.0,0.0,0.0,0.0,0.0,0.0,0.0,0.0,0.0,0.0,0.0,0.0,0.0,0.0,0.0,0.0,0.0,0.0,0.0,0.0,0.0,0.0,0.0,0.0,0.0,0.0,0.0,0.0,0.0,0.0,0.0,0.0,0.0,0.0,4.9001,4.9001,4.9001,4.9001,4.9001,4.9001,4.9001,4.9001,4.9001,4.9001,4.9001,4.9001,4.9001,4.9001,4.9001,4.9001,4.9001,4.9069,4.9796,5.0541,5.1285,5.2012,5.279,5.3501,5.3501,5.3501,5.3501,0.0,0.0,0.0,0.0,0.0,0.0,0.0,0.0,0.0,0.0,0.0,0.0,0.0,0.0,0.0,0.0,0.0,0.0,0.0,0.0,0.0,0.0,0.0,0.0,0.0,0.0,0.0,0.0,0.0,0.0,0.0,2.5664,2.6109,0.0,0.0,0.0,0.0,0.0,0.0,0.0,0.0,0.0,0.0,0.0,0.0,0.0,0.0,0.0,0.0,0.0,0.0,0.0,0.0,0.0,0.0,0.0,0.0,0.0,0.0,0.0,0.0,0.0,0.0,0.0,0.0,0.0,0.0,0.0,0.0,0.0,0.0,0.0,0.0,0.0,0.0,0.0,0.0,0.0,0.0,0.0,0.0,0.0,0.0,0.0,0.0,0.0,0.0,0.0,4.9001,4.9001,4.9001,4.9001,4.9001,4.9001,4.9001,4.9001,4.9001,4.9001,4.9001,4.9001,4.9001,4.9001,4.9001,4.9001,4.9001,4.9001,4.9035,4.9357,4.9915,5.0659,5.1403,5.2164,5.2892,5.3331,5.3501,5.3501,0.0,0.0,0.0,0.0,0.0,0.0,0.0,0.0,0.0,0.0,0.0,0.0,0.0,0.0,0.0,0.0,0.0,0.0,0.0,0.0,0.0,0.0,0.0,0.0,0.0,0.0,0.0,0.0,0.0,0.0,2.5869,2.6363,2.6677,0.0,2.74,0.0,0.0,0.0,0.0,0.0,0.0,0.0,0.0,0.0,0.0,0.0,0.0,0.0,0.0,0.0,0.0,0.0,0.0,0.0,0.0,0.0,0.0,0.0,0.0,0.0,0.0,0.0,0.0,0.0,0.0,0.0,0.0,0.0,0.0,0.0,0.0,0.0,0.0,0.0,0.0,0.0,0.0,0.0,0.0,0.0,0.0,0.0,0.0,0.0,0.0,0.0,0.0,0.0,4.9001,4.9001,4.9001,4.9001,4.9001,4.9001,4.9001,4.9001,4.9001,4.9001,4.9001,4.9001,4.9001,4.9001,4.9001,4.9001,4.9001,4.9001,4.9001,4.9001,4.9424,5.0168,5.093,5.1657,5.2401,5.3213,5.3501,5.3501,0.0,0.0,0.0,0.0,0.0,0.0,0.0,0.0,0.0,0.0,0.0,0.0,0.0,0.0,0.0,0.0,0.0,0.0,0.0,0.0,0.0,0.0,0.0,0.0,0.0,0.0,0.0,0.0,0.0,0.0,2.6542,2.6572,2.6916,2.7565,2.761,2.7625,2.7625,0.0,0.0,0.0,0.0,0.0,0.0,0.0,0.0,0.0,0.0,0.0,0.0,0.0,0.0,0.0,0.0,0.0,0.0,0.0,0.0,0.0,0.0,0.0,0.0,0.0,0.0,0.0,0.0,0.0,0.0,0.0,0.0,0.0,0.0,0.0,0.0,0.0,0.0,0.0,0.0,0.0,0.0,0.0,0.0,0.0,0.0,0.0,0.0,0.0,0.0,0.0,4.9001,4.9001,4.9001,4.9001,4.9001,4.9001,4.9001,4.9001,4.9001,4.9001,4.9001,4.9001,4.9001,4.9001,4.9001,4.9001,4.9001,4.9001,4.9001,4.9001,4.9424,5.0168,5.093,5.1657,5.2401,5.3213,5.3501,5.3501,0.0,0.0,0.0,0.0,0.0,0.0,0.0,0.0,0.0,0.0,0.0,0.0,0.0,0.0,0.0,0.0,0.0,0.0,0.0,0.0,0.0,0.0,0.0,0.0,0.0,0.0,0.0,0.0,0.0,2.6123,2.6602,2.7021,2.735,2.7625,2.7625,2.7814,2.8233,2.8233,0.0,0.0,0.0,0.0,0.0,0.0,0.0,0.0,0.0,0.0,0.0,0.0,0.0,0.0,0.0,0.0,0.0,0.0,0.0,0.0,0.0,0.0,0.0,0.0,0.0,0.0,0.0,0.0,0.0,0.0,0.0,0.0,0.0,0.0,0.0,0.0,0.0,0.0,0.0,0.0,0.0,0.0,0.0,0.0,0.0,0.0,0.0,0.0,0.0,0.0,4.9001,4.9001,4.9001,4.9001,4.9001,4.9001,4.9001,4.9001,4.9001,4.9001,4.9001,4.9001,4.9001,4.9001,4.9001,4.9001,4.9001,4.9001,4.9001,4.9001,4.9154,4.9475,5.0202,5.0947,5.1708,5.2452,5.3061,5.3501,0.0,0.0,0.0,0.0,0.0,0.0,0.0,0.0,0.0,0.0,0.0,0.0,0.0,0.0,0.0,0.0,0.0,0.0,0.0,0.0,0.0,0.0,0.0,0.0,0.0,0.0,0.0,0.0,0.0,0.0,0.0,0.0,2.7745,2.764,2.8001,0.0,0.0,0.0,0.0,3.0258,0.0,0.0,3.2621,0.0,0.0,0.0,0.0,0.0,0.0,0.0,0.0,0.0,0.0,0.0,0.0,0.0,0.0,0.0,0.0,0.0,0.0,0.0,0.0,0.0,0.0,0.0,0.0,0.0,0.0,0.0,0.0,0.0,0.0,0.0,0.0,0.0,0.0,0.0,0.0,0.0,0.0,0.0,0.0,0.0,0.0,0.0,0.0,0.0,4.9001,4.9001,4.9001,4.9001,4.9001,4.9001,4.9001,4.9001,4.9001,4.9001,4.9001,4.9001,4.9001,4.9001,4.9001,4.9001,4.9001,4.9001,4.9001,4.9001,4.9001,4.9069,4.9796,5.0557,5.1302,5.2029,5.2807,5.3501,0.0,0.0,0.0,0.0,0.0,0.0,0.0,0.0,0.0,0.0,0.0,0.0,0.0,0.0,0.0,0.0,0.0,0.0,0.0,0.0,0.0,0.0,0.0,0.0,0.0,0.0,0.0,0.0,0.0,0.0,0.0,0.0,2.8076,0.0,2.8874,2.9109,2.8749,0.0,0.0,3.1466,0.0,3.2905,0.0,0.0,0.0,0.0,3.5622,3.527,0.0,0.0,0.0,0.0,0.0,0.0,0.0,0.0,0.0,3.5622,0.0,0.0,0.0,0.0,0.0,0.0,0.0,0.0,0.0,0.0,0.0,0.0,0.0,0.0,0.0,0.0,0.0,0.0,0.0,0.0,0.0,0.0,0.0,0.0,0.0,0.0,0.0,0.0,0.0,4.9001,4.9001,4.9001,4.9001,4.9001,4.9001,4.9001,4.9001,4.9001,4.9001,4.9001,4.9001,4.9001,4.9001,4.9001,4.9001,4.9001,4.9001,4.9001,4.9001,4.9001,4.9001,4.9069,4.9779,5.0541,5.1302,5.2012,5.279,5.3501,0.0,0.0,0.0,0.0,0.0,0.0,0.0,0.0,0.0,0.0,0.0,0.0,0.0,0.0,0.0,0.0,0.0,0.0,0.0,0.0,0.0,0.0,0.0,0.0,0.0,0.0,0.0,0.0,0.0,0.0,0.0,0.0,0.0,0.0,3.0463,3.1047,3.135,3.1012,0.0,0.0,0.0,3.4039,0.0,0.0,0.0,0.0,0.0,3.5515,0.0,0.0,3.5379,3.5379,0.0,0.0,0.0,0.0,3.5622,3.5622,3.5622,0.0,0.0,0.0,0.0,0.0,0.0,0.0,0.0,0.0,0.0,0.0,0.0,0.0,0.0,0.0,0.0,0.0,0.0,0.0,0.0,0.0,0.0,0.0,0.0,0.0,0.0,0.0,4.9001,4.9001,4.9001,4.9001,4.9001,4.9001,4.9001,4.9001,4.9001,4.9001,4.9001,4.9001,4.9001,4.9001,4.9001,4.9001,4.9001,4.9001,4.9001,4.9001,4.9001,4.9001,4.9001,4.9018,4.9221,5.0084,5.1234,5.1437,5.2367,5.3501,0.0,0.0,0.0,0.0,0.0,0.0,0.0,0.0,0.0,0.0,0.0,0.0,0.0,0.0,0.0,0.0,0.0,0.0,0.0,0.0,2.6952,2.6913,2.7332,0.0,0.0,0.0,0.0,0.0,0.0,0.0,0.0,0.0,0.0,0.0,0.0,0.0,0.0,0.0,0.0,0.0,3.4119,0.0,0.0,3.5424,3.5622,0.0,0.0,0.0,3.5622,3.5622,3.5622,0.0,0.0,0.0,0.0,3.5622,3.5622,3.5622,0.0,0.0,0.0,0.0,0.0,0.0,0.0,4.007,0.0,0.0,0.0,0.0,0.0,0.0,0.0,0.0,0.0,0.0,0.0,0.0,0.0,0.0,0.0,0.0,0.0,0.0,0.0,0.0,4.9001,4.9001,4.9001,4.9001,4.9001,4.9001,4.9001,4.9001,4.9001,4.9001,4.9001,4.9001,4.9001,4.9001,4.9001,4.9001,4.9001,4.9001,4.9001,4.9001,4.9001,4.9001,4.9001,4.9001,4.9001,4.9915,5.1217,5.1217,5.2198,5.3501,0.0,0.0,0.0,0.0,0.0,0.0,0.0,0.0,0.0,0.0,0.0,0.0,0.0,0.0,0.0,0.0,0.0,0.0,0.0,0.0,2.8211,2.8194,2.8277,2.8622,0.0,0.0,0.0,0.0,0.0,0.0,0.0,0.0,0.0,0.0,0.0,0.0,0.0,0.0,0.0,3.4529,3.4529,3.4897,0.0,0.0,3.5622,0.0,3.5622,3.5622,3.5622,3.5622,3.5622,0.0,0.0,0.0,0.0,3.5639,3.5673,0.0,0.0,0.0,0.0,0.0,0.0,0.0,3.9766,4.007,4.0273,0.0,0.0,0.0,0.0,0.0,0.0,0.0,0.0,0.0,0.0,0.0,0.0,0.0,0.0,0.0,0.0,0.0,4.8917,4.9001,4.9001,4.9001,4.9001,4.9001,4.9001,4.9001,4.9001,4.9001,4.9001,4.9001,4.9001,4.9001,4.9001,4.9001,4.9001,4.9001,4.9001,4.9001,4.9001,4.9001,4.9001,4.9001,4.9001,4.9018,4.9086,4.9982,5.1234,5.1302,5.2266,5.3501,0.0,0.0,0.0,0.0,0.0,0.0,0.0,0.0,0.0,0.0,0.0,0.0,0.0,0.0,0.0,0.0,0.0,0.0,0.0,0.0,2.9648,2.9537,3.0084,3.0446,3.054,0.0,0.0,0.0,0.0,0.0,0.0,0.0,0.0,0.0,0.0,0.0,0.0,0.0,0.0,3.5379,3.5321,0.0,0.0,3.5577,3.5622,3.5622,3.5622,3.5622,3.5622,0.0,3.5622,3.5622,0.0,0.0,0.0,0.0,0.0,0.0,0.0,0.0,0.0,0.0,0.0,0.0,3.9884,4.007,4.0121,0.0,0.0,0.0,0.0,0.0,0.0,0.0,0.0,0.0,0.0,0.0,0.0,0.0,0.0,0.0,0.0,0.0,4.8376,4.8968,4.9001,4.9001,4.9001,4.9001,4.9001,4.9001,4.9001,4.9001,4.9001,4.9001,4.9001,4.9001,4.9001,4.9001,4.9001,4.9001,4.9001,4.9001,4.9001,4.9001,4.9001,4.9001,4.9001,4.9069,4.9644,5.0422,5.1285,5.1877,5.2689,5.3501,0.0,0.0,0.0,0.0,0.0,0.0,0.0,0.0,0.0,0.0,0.0,0.0,0.0,0.0,0.0,0.0,0.0,0.0,0.0,0.0,0.0,3.1635,3.2006,3.2167,3.2126,3.2126,0.0,0.0,0.0,0.0,0.0,0.0,0.0,0.0,0.0,0.0,0.0,0.0,3.5594,3.5577,3.552,0.0,3.5622,3.5622,3.5859,3.6197,3.6197,3.6434,3.6772,3.6772,3.6772,0.0,0.0,3.7026,3.7263,0.0,3.7043,3.7347,0.0,0.0,0.0,3.8717,0.0,0.0,0.0,4.007,4.007,0.0,0.0,0.0,0.0,0.0,0.0,0.0,0.0,0.0,0.0,0.0,0.0,0.0,0.0,0.0,0.0,0.0,4.8223,4.8951,4.9001,4.9001,4.9001,4.9001,4.9001,4.9001,4.9001,4.9001,4.9001,4.9001,4.9001,4.9001,4.9001,4.9001,4.9001,4.9001,4.9001,4.9001,4.9001,4.9001,4.9001,4.9001,4.9001,4.9069,4.9796,5.0557,5.1302,5.2029,5.2972,5.3946,0.0,0.0,0.0,0.0,0.0,0.0,0.0,0.0,0.0,0.0,0.0,0.0,0.0,0.0,0.0,0.0,0.0,0.0,0.0,0.0,0.0,0.0,3.3406,3.3406,3.3406,3.3406,3.3406,0.0,0.0,0.0,0.0,0.0,0.0,0.0,0.0,0.0,0.0,0.0,0.0,3.5842,0.0,3.5785,3.5859,3.6011,3.6451,3.6992,3.6992,3.7381,3.7905,3.7905,0.0,3.7905,3.7905,3.8007,0.0,0.0,0.0,0.0,0.0,0.0,0.0,0.0,0.0,3.936,0.0,0.0,0.0,0.0,0.0,0.0,0.0,0.0,0.0,0.0,0.0,0.0,0.0,0.0,0.0,0.0,0.0,0.0,0.0,0.0,4.8223,4.8951,4.9001,4.9001,4.9001,4.9001,4.9001,4.9001,4.9001,4.9001,4.9001,4.9001,4.9001,4.9001,4.9001,4.9001,4.9001,4.9001,4.9001,4.9001,4.9001,4.9001,4.9001,4.9001,4.9001,4.9086,4.9965,5.0676,5.1319,5.2312,5.343,5.4391,0.0,0.0,0.0,0.0,0.0,0.0,0.0,0.0,0.0,0.0,0.0,0.0,0.0,0.0,0.0,0.0,0.0,0.0,3.3406,0.0,0.0,0.0,0.0,0.0,3.3406,3.3406,3.3406,3.3406,0.0,0.0,0.0,0.0,0.0,0.0,3.5622,0.0,0.0,0.0,3.6011,0.0,3.6654,3.6654,0.0,3.7398,3.7702,3.7787,3.7787,3.7838,3.7905,0.0,3.7905,3.7905,0.0,3.8345,0.0,0.0,0.0,0.0,0.0,0.0,0.0,0.0,3.9952,0.0,0.0,0.0,0.0,0.0,0.0,0.0,0.0,0.0,0.0,0.0,0.0,0.0,0.0,0.0,0.0,0.0,0.0,0.0,0.0,0.0,0.0,4.8951,4.9001,4.9001,4.9001,4.9001,4.9001,4.9001,4.9001,4.9001,4.9001,4.9001,4.9001,4.9001,4.9001,4.9001,4.9001,4.9001,4.9001,4.9001,4.9001,4.9001,4.9001,4.9001,4.9001,4.9137,5.0541,5.115,5.1451,5.3438,5.4259,5.4454,0.0,0.0,0.0,0.0,0.0,0.0,0.0,0.0,0.0,0.0,0.0,0.0,0.0,0.0,0.0,0.0,0.0,0.0,0.0,0.0,0.0,0.0,0.0,0.0,0.0,3.4692,3.4692,3.4692,3.4996,0.0,0.0,0.0,0.0,0.0,3.5622,0.0,3.5656,0.0,0.0,0.0,0.0,0.0,0.0,3.7956,3.8176,3.8582,3.9005,3.9174,3.9174,0.0,3.9174,0.0,0.0,0.0,0.0,0.0,0.0,0.0,0.0,0.0,0.0,0.0,0.0,0.0,0.0,0.0,4.007,0.0,0.0,0.0,0.0,0.0,0.0,0.0,0.0,0.0,0.0,0.0,0.0,0.0,0.0,0.0,0.0,0.0,0.0,0.0,0.0,4.9001,4.9001,4.9001,4.9001,4.9001,4.9001,4.9001,4.9001,4.9001,4.9001,4.9001,4.9001,4.9001,4.9001,4.9394,4.9333,4.9063,4.9698,4.9797,4.9496,4.9496,4.9753,5.0266,5.1388,5.1799,5.197,5.3776,5.487,5.5525,0.0,0.0,0.0,0.0,0.0,0.0,0.0,0.0,0.0,0.0,0.0,0.0,3.4742,3.4924,0.0,0.0,0.0,3.6451,0.0,0.0,3.6326,0.0,0.0,0.0,0.0,0.0,3.5622,3.5622,3.5622,0.0,0.0,0.0,0.0,0.0,0.0,3.574,3.5977,0.0,0.0,3.7483,3.8565,3.9106,3.9225,3.87,3.8836,3.936,3.9884,4.007,4.0121,4.0254,4.0303,0.0,4.0832,0.0,0.0,0.0,0.0,0.0,4.0353,0.0,0.0,0.0,0.0,0.0,0.0,0.0,0.0,0.0,0.0,0.0,0.0,0.0,0.0,0.0,0.0,0.0,0.0,0.0,0.0,0.0,0.0,0.0,0.0,0.0,0.0,0.0,4.8409,0.0,4.8984,4.9001,4.9001,4.9001,4.9001,4.9001,4.9001,4.9001,4.9001,4.9001,4.9001,4.9001,4.9001,4.9615,4.9674,4.9273,5.0276,5.0497,5.0142,5.0142,5.0535,5.1298,5.2119,5.2671,5.3177,5.4443,5.5543,5.6311,0.0,3.2139,0.0,0.0,0.0,0.0,0.0,0.0,0.0,0.0,0.0,0.0,0.0,0.0,0.0,0.0,0.0,3.686,3.686,0.0,3.686,0.0,0.0,0.0,0.0,0.0,3.5622,3.5622,3.5622,0.0,0.0,0.0,0.0,0.0,0.0,3.6045,3.6738,3.6772,3.7601,3.892,3.8971,3.9411,4.0037,0.0,4.002,4.0054,4.007,0.0,0.0,4.0611,4.0802,0.0,0.0,0.0,0.0,0.0,0.0,0.0,0.0,0.0,0.0,0.0,0.0,0.0,0.0,0.0,4.117,0.0,0.0,0.0,0.0,0.0,0.0,0.0,0.0,0.0,0.0,0.0,0.0,0.0,0.0,0.0,0.0,0.0,0.0,4.7817,4.7936,0.0,4.8968,4.9001,4.9001,4.9001,4.9001,4.9001,4.9001,4.9001,4.9001,4.9001,4.9001,4.9001,4.9001,4.9615,4.989,4.989,5.0442,5.068,5.068,5.068,5.1154,5.1926,5.266,5.3843,5.5187,5.5954,5.6257,5.6366,0.0,0.0,0.0,0.0,0.0,0.0,0.0,3.5828,0.0,0.0,0.0,0.0,0.0,0.0,3.6781,0.0,0.0,3.7321,3.7321,3.7321,0.0,0.0,0.0,3.6719,0.0,0.0,3.6045,3.6045,3.5739,0.0,0.0,0.0,0.0,0.0,0.0,3.6823,0.0,0.0,0.0,0.0,0.0,4.0648,4.1283,0.0,0.0,4.0866,4.1235,4.1692,0.0,4.2671,4.2859,4.2934,4.3517,4.343,4.3163,4.3561,4.3386,0.0,0.0,0.0,4.3225,4.2859,0.0,0.0,0.0,0.0,0.0,0.0,0.0,0.0,0.0,0.0,0.0,0.0,0.0,0.0,0.0,0.0,0.0,0.0,0.0,0.0,0.0,0.0,0.0,4.7107,4.7631,4.824,0.0,4.9001,4.9001,4.9001,4.9001,4.9168,4.9615,4.9229,4.9229,4.9615,4.9168,4.9229,4.9615,5.0181,5.0442,5.0497,5.1482,5.1651,5.1329,5.1329,5.2093,5.3229,5.3549,5.4581,5.5955,5.6222,5.6528,5.6915,3.582,0.0,0.0,0.0,0.0,0.0,0.0,0.0,0.0,0.0,3.7017,0.0,3.7325,0.0,3.7777,0.0,3.8546,3.8654,3.8654,3.8672,0.0,3.8269,3.8138,0.0,0.0,0.0,0.0,3.7398,0.0,3.6921,0.0,0.0,0.0,0.0,0.0,0.0,0.0,0.0,3.9494,0.0,0.0,4.198,0.0,0.0,4.1776,0.0,0.0,4.3067,4.3533,4.4057,4.4254,4.4343,4.4892,4.4809,4.4578,4.4993,4.4809,4.4492,4.4387,4.4535,0.0,0.0,4.4316,0.0,0.0,0.0,0.0,0.0,0.0,0.0,0.0,0.0,0.0,0.0,0.0,0.0,0.0,0.0,0.0,0.0,0.0,0.0,0.0,0.0,4.5898,4.6718,4.7403,4.8175,0.0,0.0,4.9229,4.9001,4.9229,4.9496,4.989,4.9496,4.9598,5.0198,4.9797,4.9797,5.0181,5.0769,5.1034,5.1087,5.2048,5.2275,5.1933,5.1933,5.2817,5.4251,5.4302,5.5253,5.6635,5.6635,5.6863,5.7188,0.0,0.0,0.0,0.0,3.6175,0.0,0.0,0.0,3.7449,0.0,3.741,3.7804,3.8201,3.8584,3.9171,4.0053,4.0474,0.0,4.0722,4.0755,0.0,0.0,4.0402,4.022,4.022,0.0,0.0,0.0,0.0,0.0,0.0,0.0,0.0,0.0,3.8206,0.0,3.9796,3.9796,4.0485,4.1648,4.2484,4.3276,4.4008,4.4145,0.0,4.4124,4.4163,4.4226,4.4351,4.4881,4.5047,4.5147,4.5579,4.5713,4.5713,4.5731,4.5713,4.5617,4.5188,4.5047,4.4964,4.4502,0.0,0.0,0.0,0.0,4.534,0.0,0.0,0.0,0.0,0.0,0.0,0.0,0.0,0.0,0.0,0.0,0.0,0.0,0.0,0.0,0.0,4.5355,4.576,4.6784,4.7312,0.0,0.0,0.0,0.0,4.9107,4.9615,4.9948,4.9988,4.9948,5.0198,5.0751,5.068,5.0697,5.0751,5.1329,5.1619,5.1669,5.2275,5.2498,5.2498,5.2534,5.3476,5.4907,5.4943,5.5866,5.7188,5.7188,5.7188,5.7188,3.7576,3.7739,3.7812,0.0,0.0,3.7767,0.0,0.0,0.0,0.0,3.9444,3.9931,4.0094,4.0201,4.0362,4.0615,4.0702,0.0,0.0,0.0,0.0,4.0789,4.0702,4.065,4.065,4.022,0.0,3.9978,0.0,0.0,3.9388,0.0,0.0,0.0,0.0,0.0,4.1024,4.1024,4.1595,4.2653,4.38,4.4757,0.0,0.0,4.644,4.6765,4.5886,4.5925,4.6514,4.7034,4.7215,4.7234,4.7469,4.7469,4.7411,4.7508,4.7469,4.7372,4.7372,4.7274,4.7175,4.7193,4.7093,4.7034,0.0,0.0,0.0,0.0,0.0,0.0,0.0,0.0,0.0,0.0,0.0,0.0,0.0,0.0,0.0,0.0,0.0,0.0,4.595,4.59,4.6308,4.7305,4.7537,0.0,0.0,0.0,0.0,5.0276,5.0028,5.0328,5.1192,5.031,5.0366,5.1381,5.0911,5.0911,5.1381,5.1551,5.1835,5.2275,5.2434,5.2498,5.2552,5.315,5.4001,5.4961,5.5504,5.6319,5.7188,5.7188,5.7188,5.7188,3.8241,0.0,0.0,0.0,0.0,0.0,3.8767,0.0,0.0,4.0015,4.0397,0.0,4.123,4.1318,4.1499,4.1898,4.1935,0.0,0.0,0.0,0.0,4.1935,4.1951,4.1986,4.1986,4.174,0.0,4.1597,0.0,0.0,4.1056,0.0,0.0,0.0,0.0,4.1505,0.0,4.3054,4.3787,4.4635,4.5377,0.0,0.0,4.7277,4.7685,4.7951,4.7284,4.7293,4.7692,4.8014,4.8151,4.8151,4.8208,4.8208,4.8151,4.8208,4.8208,4.8151,4.8208,4.8208,4.8151,4.8208,4.8208,4.8111,4.809,4.809,4.809,0.0,0.0,0.0,0.0,0.0,0.0,0.0,0.0,0.0,0.0,0.0,0.0,0.0,0.0,0.0,4.6817,4.6613,4.6706,4.7369,0.0,0.0,0.0,0.0,0.0,5.068,5.0678,5.0964,5.1601,5.0964,5.107,5.2,5.1651,5.1651,5.2,5.2,5.2162,5.2498,5.2498,5.2498,5.2552,5.3367,5.4182,5.5015,5.6102,5.679,5.7188,5.7188,5.7188,5.7188,0.0,0.0,0.0,0.0,0.0,0.0,0.0,4.0326,0.0,4.0886,0.0,4.1341,4.2195,4.2321,4.272,0.0,0.0,4.3741,4.3741,4.3775,4.3775,4.3741,4.3775,4.3754,4.3644,4.3593,0.0,0.0,0.0,0.0,4.3214,0.0,0.0,0.0,0.0,0.0,0.0,4.521,4.6148,0.0,4.6895,4.739,4.8032,4.8187,4.8187,4.8226,4.8286,4.8247,4.8226,4.8267,4.8306,4.8306,4.8306,4.8306,4.8306,4.8306,4.8306,4.8306,4.8306,4.8306,4.8306,4.8306,4.8306,4.8267,4.8226,4.8226,4.8226,4.8226,4.813,0.0,0.0,0.0,0.0,0.0,0.0,0.0,0.0,0.0,0.0,0.0,0.0,0.0,0.0,0.0,0.0,0.0,0.0,0.0,0.0,0.0,0.0,0.0,5.1381,0.0,5.1719,0.0,5.1884,5.2498,5.2498,5.2498,5.2498,5.2498,5.2498,5.2498,5.2498,5.2498,5.257,5.3476,5.4399,5.5341,5.6731,5.7257,5.7239,5.7239,5.7257,5.7239,0.0,0.0,0.0,0.0,0.0,0.0,0.0,4.1736,4.1792,4.1933,4.2518,0.0,4.4143,4.4216,4.4563,4.537,4.5443,0.0,0.0,0.0,0.0,4.5443,4.548,4.5168,4.4507,4.4471,4.4141,0.0,4.3411,4.334,4.334,0.0,0.0,0.0,0.0,0.0,4.5324,4.6221,0.0,4.7015,4.7673,4.802,4.8187,4.8247,4.8247,4.8226,4.8286,4.8306,4.8267,4.8306,4.8306,4.8306,4.8306,4.8306,4.8306,4.8306,4.8306,4.8306,4.8306,4.8306,4.8306,4.8306,4.8306,4.8306,4.8286,4.8267,4.8267,4.8267,4.8267,4.8267,4.8306,0.0,0.0,0.0,0.0,0.0,0.0,0.0,0.0,0.0,0.0,0.0,0.0,0.0,0.0,0.0,0.0,0.0,0.0,0.0,0.0,0.0,0.0,0.0,0.0,0.0,0.0,5.2498,5.2498,5.2498,5.2498,5.2498,5.2498,5.2498,5.2498,5.2498,5.2607,5.4092,5.5571,5.6975,5.7247,5.7437,5.7504,5.7406,5.7338,5.7356,0.0,0.0,0.0,0.0,0.0,0.0,0.0,4.3429,0.0,4.3431,4.3778,4.4363,4.5187,4.5297,4.548,4.5865,4.5902,4.5902,4.5902,4.5902,4.5902,4.5902,4.5902,0.0,4.5333,0.0,4.5131,4.4727,4.471,4.4692,0.0,0.0,0.0,0.0,0.0,4.5953,0.0,0.0,0.0,4.7677,4.8101,4.8247,4.8284,4.8802,4.8928,4.9001,4.9462,4.9609,4.9536,4.9114,4.8967,4.904,4.9462,4.9609,4.9609,4.9609,4.9609,4.9609,4.9609,4.9609,4.9609,4.9609,4.9609,4.9609,4.9609,4.9609,4.9609,4.9609,4.9609,4.9609,4.9609,4.9609,0.0,0.0,0.0,0.0,0.0,0.0,0.0,0.0,0.0,0.0,0.0,0.0,0.0,0.0,0.0,0.0,0.0,0.0,0.0,0.0,0.0,0.0,0.0,0.0,0.0,5.2498,5.2554,5.2508,5.2498,5.2554,5.2508,5.2498,5.2498,5.2498,5.2625,5.4237,5.591,5.7388,5.7388,5.7504,5.7601,5.7553,5.7455,5.7388,0.0,4.1592,0.0,0.0,4.2981,0.0,0.0,4.4983,4.493,4.4876,4.4894,4.5187,4.5993,4.6122,4.6214,4.6397,4.6416,4.6416,4.6416,4.6416,4.6416,4.6416,4.6416,4.6324,4.6159,4.6159,4.6067,0.0,4.5902,4.581,0.0,0.0,0.0,0.0,0.0,0.0,0.0,0.0,4.8286,4.8226,4.8469,4.8581,4.8673,4.9517,4.9848,4.9921,5.0563,5.0802,5.0729,5.0251,4.9976,4.9958,5.06,5.0802,5.0802,5.0802,5.0802,5.0802,5.0802,5.0802,5.0802,5.0802,5.0802,5.0802,5.0802,5.0802,5.0802,5.0802,5.0802,5.0802,5.0802,5.0802,0.0,0.0,0.0,0.0,0.0,0.0,0.0,0.0,0.0,0.0,0.0,0.0,0.0,0.0,0.0,0.0,0.0,0.0,0.0,0.0,0.0,5.2498,5.2498,0.0,5.2498,0.0,5.2581,5.2563,5.2526,5.2563,5.2581,5.2572,5.2544,5.2679,5.3142,5.4411,5.594,5.7486,5.7437,5.7553,5.7697,5.7649,5.7601,5.7455,0.0,0.0,0.0,0.0,0.0,0.0,0.0,4.6004,4.5792,4.5792,4.5792,4.6067,4.6874,4.6965,4.7297,4.8012,4.8086,4.8086,4.8086,4.8086,4.8086,4.8086,4.8086,4.7737,4.7021,4.7003,4.6636,0.0,0.0,4.5535,4.4837,0.0,0.0,0.0,0.0,0.0,0.0,4.8269,4.8306,4.8379,4.915,4.9462,4.9554,5.038,5.0692,5.071,5.0765,5.0802,5.0894,5.1536,5.1279,5.071,5.0784,5.0802,5.0802,5.0802,5.0802,5.0802,5.0802,5.0802,5.0802,5.0802,5.0802,5.0802,5.0802,5.0802,5.0802,5.0802,5.0802,5.0802,5.0802,5.0802,5.0784,0.0,0.0,0.0,0.0,0.0,0.0,0.0,0.0,0.0,0.0,0.0,0.0,0.0,0.0,0.0,0.0,0.0,0.0,5.2498,0.0,5.2498,5.2498,5.2498,0.0,5.2498,5.2581,5.2608,5.2608,5.259,5.2654,5.2761,5.2572,5.3342,5.476,5.4905,5.6113,5.7745,5.7649,5.7745,5.795,5.7839,5.7792,5.7745,0.0,0.0,0.0,0.0,0.0,0.0,0.0,4.7006,4.7036,4.7316,4.6929,4.6948,4.7737,4.7829,4.7957,4.8269,4.8306,4.8306,4.8306,4.8306,4.8306,4.8306,4.8306,4.8159,4.7847,4.7829,4.7664,0.0,0.0,0.0,4.6874,4.7186,0.0,0.0,0.0,4.8306,4.8343,4.8857,4.9077,4.915,4.9976,5.0306,5.0398,5.1206,5.1518,5.1573,5.2068,5.2252,5.2307,5.2619,5.2197,5.1591,5.2105,5.2252,5.2252,5.2252,5.2252,5.2252,5.2252,5.2252,5.2252,5.2252,5.2252,5.2252,5.2252,5.2252,5.2252,5.2252,5.2252,5.2252,5.2252,5.2252,5.2087,0.0,0.0,0.0,0.0,0.0,0.0,0.0,0.0,0.0,0.0,0.0,0.0,0.0,0.0,0.0,0.0,0.0,0.0,5.2498,0.0,5.2498,5.2498,5.2498,5.2498,5.2498,5.2645,5.2698,5.259,5.2787,5.285,5.2842,5.3244,5.4036,5.5138,5.5611,5.6627,5.7792,5.7745,5.7839,5.7997,5.795,5.7857,5.7792,4.6911,0.0,4.7306,0.0,4.757,4.7733,4.8191,4.8091,4.8131,4.8549,4.8255,4.8071,4.8269,4.8306,4.8306,4.8306,4.8306,4.8306,4.8306,4.8306,4.8306,4.8306,4.8306,0.0,4.8306,4.8306,4.8306,4.8306,4.8306,0.0,0.0,0.0,0.0,0.0,4.8673,4.882,4.9077,4.9682,4.9939,5.0013,5.082,5.1151,5.1242,5.205,5.2344,5.2435,5.3004,5.3206,5.3206,5.3206,5.2821,5.2454,5.3023,5.3206,5.3206,5.3206,5.3206,5.3206,5.3206,5.3206,5.3206,5.3206,5.3206,5.3206,5.3206,5.3206,5.3206,5.3206,5.3206,5.3206,5.3206,5.3206,5.3023,0.0,0.0,0.0,0.0,0.0,0.0,0.0,0.0,0.0,0.0,0.0,0.0,0.0,0.0,0.0,0.0,0.0,0.0,0.0,0.0,0.0,0.0,5.248,5.248,5.2508,5.2717,5.2761,5.2654,5.2955,5.2955,5.286,5.3752,5.4556,5.5313,5.6116,5.7013,5.7839,5.7792,5.7904,5.7997,5.7997,5.795,5.7839,4.7333,4.7768,4.8287,4.8948,4.9181,4.9386,4.9711,4.9221,4.8915,4.9221,4.9724,4.9619,4.8418,4.8306,4.8306,4.8306,4.8306,4.8306,4.8306,4.8306,4.8306,0.0,0.0,4.8306,4.8306,4.8306,4.8306,4.8306,0.0,0.0,4.7131,0.0,4.8012,4.9572,4.9572,5.0013,5.0765,5.0784,5.0784,5.0857,5.1665,5.1977,5.2068,5.2894,5.3206,5.3206,5.3206,5.3206,5.3206,5.3206,5.3206,5.3206,5.3206,5.3206,5.3206,5.3206,5.3206,5.3206,5.3206,5.3206,5.3206,5.3206,5.3206,5.3206,5.3206,5.3206,5.3206,5.3206,5.3206,5.3206,5.3206,5.3206,5.3206,5.3206,0.0,0.0,0.0,0.0,0.0,0.0,0.0,0.0,0.0,0.0,0.0,0.0,0.0,0.0,0.0,0.0,0.0,5.2498,5.2498,0.0,5.259,5.2508,5.2508,5.259,5.2761,5.2806,5.2806,5.306,5.306,5.286,5.3946,5.4752,5.545,5.6273,5.7125,5.7997,5.7839,5.7904,5.7997,5.7997,5.7997,5.7997,4.9248,4.9504,4.967,4.9877,4.9948,5.0145,5.0608,5.0486,5.0527,5.093,5.1134,5.111,5.0714,5.0488,5.0249,0.0,4.9994,4.9994,0.0,4.9994,4.9994,4.9994,4.9994,4.9994,4.9994,4.9994,4.9994,4.9994,0.0,0.0,0.0,4.9627,4.9921,5.0417,5.0417,5.0563,5.0839,5.1389,5.161,5.1683,5.2491,5.2821,5.2858,5.3115,5.3206,5.3206,5.3206,5.3206,5.3206,5.3206,5.3206,5.3206,5.3206,5.3206,5.3206,5.3206,5.3206,5.3206,5.3206,5.3206,5.3206,5.3206,5.3206,5.3206,5.3206,5.3206,5.3206,5.3206,5.3206,5.3206,5.3206,5.3206,5.3206,5.3206,0.0,0.0,0.0,0.0,0.0,0.0,0.0,0.0,0.0,5.3164,0.0,0.0,0.0,0.0,0.0,0.0,0.0,0.0,5.2581,0.0,5.259,5.2563,5.2608,5.2761,5.285,5.2999,5.306,5.3164,5.3164,5.3133,5.4576,5.5354,5.564,5.7015,5.7712,5.7997,5.795,5.795,5.7997,5.7997,5.7997,5.7997,5.0206,5.0569,5.0799,5.0799,5.1047,5.1362,5.168,5.163,5.1717,5.2124,5.2356,5.2472,5.2491,5.2564,0.0,5.125,5.1157,0.0,5.1157,5.1157,5.1157,5.1157,5.1157,5.1157,5.1157,0.0,0.0,5.0984,5.0864,5.0802,5.0802,5.0802,5.0967,5.1242,5.1242,5.1426,5.1738,5.2234,5.2454,5.2491,5.3004,5.3206,5.3206,5.3206,5.3206,5.3206,5.3206,5.3206,5.3206,5.3206,5.3206,5.3206,5.3206,5.3206,5.3206,5.3206,5.3206,5.3206,5.3206,5.3206,5.3206,5.3206,5.3206,5.3206,5.3206,5.3206,5.3206,5.3206,5.3206,5.3206,5.3206,5.3206,5.3206,5.3206,0.0,5.3206,0.0,0.0,0.0,0.0,0.0,0.0,0.0,5.3206,0.0,0.0,0.0,0.0,0.0,0.0,0.0,5.2698,5.2698,0.0,5.2743,5.2698,5.2743,5.2868,5.2955,5.306,5.3206,5.3206,5.3206,5.3298,5.4895,5.5592,5.5702,5.7336,5.7997,5.7997,5.7997,5.7997,5.7997,5.7997,5.7997,5.7997,5.0474,5.1142,0.0,0.0,5.2308,0.0,5.2881,5.2639,5.2558,5.2933,5.3419,5.3727,5.3717,5.44,5.4073,5.2209,0.0,0.0,0.0,5.1963,5.1963,5.1963,5.1963,0.0,5.1963,5.1665,5.1471,5.149,5.1111,5.0967,5.0967,5.0967,5.1371,5.2068,5.2068,5.2509,5.3206,5.3206,5.3206,5.3206,5.3206,5.3206,5.3206,5.3206,5.3206,5.3206,5.3206,5.3206,5.3206,5.3206,5.3206,5.323,5.323,5.323,5.329,5.3206,5.3206,5.3206,5.3206,5.3206,5.323,5.323,5.3248,5.329,5.329,5.329,5.329,5.329,5.323,5.323,5.323,5.3206,5.3206,5.3206,5.3206,5.3206,5.3206,0.0,0.0,0.0,0.0,0.0,0.0,5.3206,5.3206,0.0,0.0,0.0,0.0,0.0,5.2806,5.2806,5.2806,5.285,5.2999,5.2868,5.2893,5.2999,5.2999,5.3103,5.3206,5.3206,5.3243,5.339,5.4932,5.5611,5.5794,5.7354,5.7997,5.7997,5.7997,5.7997,5.7997,5.7997,5.7997,5.7997,0.0,0.0,5.2518,5.2518,5.2671,5.3015,5.3683,5.3729,5.3932,5.4696,5.4893,5.4955,5.4974,5.5145,5.5061,5.4588,5.4037,5.3714,5.3714,5.3714,5.3714,5.3714,5.3714,5.3714,5.3714,5.3646,5.3437,5.3144,5.2806,5.2637,5.2637,5.2637,5.2747,5.2931,5.2931,5.3023,5.3206,5.3206,5.3206,5.3206,5.3206,5.3206,5.3206,5.3206,5.3206,5.3206,5.3206,5.3206,5.3206,5.3206,5.3359,5.3584,5.3584,5.3814,5.3926,5.3396,5.3206,5.3206,5.3206,5.34,5.3584,5.3584,5.3814,5.4035,5.4035,5.4035,5.4035,5.4035,5.3814,5.3584,5.3584,5.3359,5.3206,5.3206,5.3206,5.3206,5.3206,5.3206,0.0,0.0,5.3206,5.3206,5.3206,5.3206,5.3206,0.0,0.0,0.0,0.0,0.0,5.306,5.2955,5.2955,5.2955,5.2999,5.2955,5.2999,5.3146,5.3146,5.3164,5.3206,5.3206,5.3555,5.4179,5.517,5.5941,5.6602,5.7593,5.7997,5.7997,5.7997,5.7997,5.7997,5.7997,5.7997,5.7997,5.2805,5.311,5.3397,5.3397,5.3722,5.4142,5.4619,5.4696,5.4868,5.5345,5.5403,5.5403,5.5403,5.5403,5.5403,5.5403,5.5028,5.4784,5.4784,5.4784,5.4784,5.4784,5.4784,5.4784,5.4784,5.4623,5.4364,5.3961,5.3776,5.3621,5.3422,5.3422,5.3336,5.3206,5.3206,5.3206,5.3206,5.3206,5.3206,5.3206,5.3206,5.3206,5.3206,5.3206,5.3206,5.3206,5.3206,5.3314,5.3422,5.3422,5.3662,5.3961,5.3961,5.4123,5.4212,5.3833,5.368,5.368,5.368,5.3851,5.3961,5.3961,5.4123,5.4315,5.4315,5.4315,5.4315,5.4315,5.4123,5.3907,5.3739,5.3563,5.3359,5.3206,5.3206,5.3206,5.3206,5.3206,0.0,5.3206,5.3206,5.3206,5.3206,5.3206,5.3206,5.3206,0.0,0.0,5.3206,5.3206,5.3164,5.3103,5.3103,5.3103,5.3103,5.3103,5.3103,5.3206,5.3206,5.3206,5.3225,5.3592,5.3995,5.4473,5.5647,5.64,5.6877,5.7666,5.7997,5.7997,5.7997,5.7997,5.7997,5.7997,5.7997,5.7997,5.3187,5.3798,5.4295,5.4295,5.4906,5.5403,5.5403,5.5403,5.5403,5.5403,5.5403,5.5403,5.5403,5.5403,5.5403,5.5403,5.5403,5.5403,5.5403,5.5403,5.5403,5.5403,5.5403,5.5403,5.5403,5.5009,5.4654,5.4364,5.433,5.4123,5.3795,5.3795,5.3602,5.3272,5.3272,5.3248,5.3206,5.3206,5.3206,5.3206,5.3206,5.3248,5.3272,5.3272,5.3295,5.3396,5.3396,5.3542,5.3795,5.3795,5.4033,5.4364,5.4364,5.4416,5.4482,5.4482,5.4482,5.4449,5.4349,5.4349,5.4397,5.4449,5.4482,5.4482,5.4482,5.4482,5.4482,5.4482,5.4416,5.4262,5.3925,5.3814,5.37,5.3418,5.3314,5.3272,5.3272,0.0,5.3206,5.3206,5.3206,5.3206,5.3206,5.3206,5.3206,5.3206,5.3206,0.0,0.0,5.3206,5.3206,5.3206,5.3206,5.3206,5.3206,5.3206,5.3206,5.3206,5.3206,5.328,5.3408,5.4087,5.4528,5.484,5.6216,5.6877,5.7042,5.7721,5.7997,5.7997,5.7997,5.7997,5.7997,5.7997,5.7997,5.7997,5.4982,5.5116,5.5212,5.5212,5.5307,5.5403,5.5403,5.5403,5.5403,5.5403,5.5403,5.5403,5.5403,5.5403,5.5403,5.5403,5.5403,5.5403,5.5403,5.5403,5.5403,5.5403,5.5403,5.5403,5.5403,5.5009,5.4776,5.4716,5.443,5.4281,5.4193,5.4193,5.4016,5.3623,5.3623,5.3462,5.3206,5.3206,5.3206,5.3206,5.3206,5.3359,5.3623,5.3623,5.3833,5.4142,5.4142,5.4158,5.4193,5.4193,5.443,5.4716,5.4716,5.4952,5.5233,5.5233,5.5233,5.5085,5.4482,5.4495,5.4795,5.5159,5.5233,5.5233,5.5233,5.5233,5.5233,5.5233,5.4981,5.4716,5.4635,5.4397,5.4193,5.4142,5.3833,5.3623,5.3623,0.0,5.3206,5.3206,5.3206,5.3206,5.3206,5.3206,5.3206,5.3206,5.3206,5.3206,5.3206,5.3206,5.3206,5.3206,5.3206,5.3206,5.3206,5.3206,5.3206,5.3206,5.3206,5.3573,5.4216,5.4344,5.5152,5.6455,5.6693,5.7189,5.7813,5.7941,5.7997,5.7997,5.7997,5.7997,5.7997,5.7997,5.7997,5.7997,5.5421,5.5421,5.5446,5.5396,5.5396,5.5396,5.5396,5.5409,5.5403,5.5403,5.5403,5.5403,5.5403,5.5403,5.5403,5.5403,5.5403,5.5403,5.5403,5.5403,5.5403,5.5403,5.5403,5.5403,5.5403,5.5214,5.5113,5.5113,5.4971,5.4758,5.456,5.4604,5.4411,5.4016,5.4016,5.3962,5.3795,5.3795,5.3795,5.3795,5.3795,5.3889,5.4016,5.4016,5.4123,5.4315,5.4315,5.4397,5.456,5.456,5.4825,5.5113,5.5113,5.526,5.5403,5.5403,5.5403,5.5332,5.4981,5.5028,5.5187,5.5358,5.5403,5.5403,5.5403,5.5403,5.5403,5.5403,5.526,5.5066,5.4836,5.4685,5.4495,5.4349,5.4158,0.0,0.0,5.3563,5.34,5.3206,5.3206,5.3206,5.3206,5.3206,5.3206,5.3206,5.3206,5.3206,5.3206,5.3206,5.3206,5.3206,5.3206,5.3206,5.3206,5.3206,5.3206,5.3225,5.3647,5.4051,5.4436,5.5299,5.6106,5.6822,5.7262,5.7666,5.7997,5.7997,5.7997,5.7997,5.7997,5.7997,5.7997,5.7997,5.7997,5.7997,5.5432,5.5456,5.548,5.5432,5.5432,5.5432,5.5408,5.5396,5.5409,5.5403,5.5403,5.5403,5.5403,5.5403,5.5403,5.5403,5.5403,5.5403,5.5409,5.5409,5.5384,5.5403,5.5384,5.5409,5.5434,5.5434,5.5434,5.5434,5.5427,5.5262,5.4952,5.5009,5.4817,5.443,5.443,5.4364,5.4315,5.4315,5.4315,5.4315,5.4315,5.4349,5.4397,5.4397,5.4463,5.4546,5.4546,5.4704,5.4933,5.4933,5.514,5.5403,5.5403,5.5403,5.5403,5.5403,5.5403,5.5403,5.5403,5.5403,5.5403,5.5403,5.5403,5.5403,5.5403,5.5403,5.5403,5.5403,5.5403,5.5305,5.5009,5.4933,5.4874,5.461,0.0,0.0,0.0,5.3888,5.37,5.3378,5.3295,5.3272,5.3206,5.3206,5.3206,5.3206,5.3206,5.3206,5.3206,5.3206,5.3206,5.3206,5.3206,5.3206,5.3206,5.3206,5.3298,5.35,5.4106,5.4601,5.5005,5.6253,5.6914,5.7116,5.7721,5.7997,5.7997,5.7997,5.7997,5.7997,5.7997,5.7997,5.7997,5.7997,5.7997,5.7997,5.5504,5.5504,5.5504,5.5504,5.5504,5.548,5.5408,5.5408,5.5402,5.5403,5.5403,5.5403,5.5403,5.5403,5.5403,5.5403,5.5403,5.5409,5.5383,5.5383,5.5396,5.5403,5.5396,5.5432,5.548,5.548,5.548,5.548,5.548,5.548,5.5456,5.5389,5.5191,5.4847,5.4806,5.4591,5.4315,5.4315,5.4315,5.4315,5.4315,5.4495,5.4776,5.4776,5.499,5.5305,5.5305,5.5332,5.5377,5.5377,5.5377,5.5403,5.5403,5.5403,5.5403,5.5403,5.5403,5.5403,5.5403,5.5403,5.5403,5.5403,5.5403,5.5403,5.5403,5.5403,5.5403,5.5403,5.5403,5.5403,5.5358,5.5377,5.5332,5.5332,0.0,0.0,5.4716,5.4463,5.4123,5.372,5.3643,5.3563,5.3248,5.3206,5.3206,5.3206,5.3206,5.3206,5.3206,5.3206,5.3206,5.3206,5.3206,5.3206,5.3206,5.3206,5.3573,5.4308,5.4363,5.5188,5.6638,5.6767,5.7207,5.7905,5.796,5.7997,5.7997,5.7997,5.7997,5.7997,5.7997,5.7997,5.7997,5.7997,5.7997,5.7997,5.5573,5.5596,5.5596,5.5573,5.5551,5.5551,5.5527,5.548,5.5456,5.5451,5.547,5.547,5.547,5.547,5.5446,5.5396,5.5446,5.5451,5.5408,5.5432,5.5456,5.547,5.5456,5.548,5.5504,5.5504,5.5504,5.5504,5.5551,5.5551,5.5504,5.5527,5.5413,5.5217,5.5191,5.5102,5.4981,5.4981,5.4981,5.4981,5.4981,5.5057,5.5187,5.5187,5.526,5.5403,5.5403,5.5403,5.5403,5.5403,5.5403,5.5403,5.5403,5.5403,5.5403,5.5403,5.5403,5.5403,5.5403,5.5403,5.5403,5.5403,5.5403,5.5403,5.5403,5.5403,5.5403,5.5403,5.5403,5.5403,5.5403,5.5403,5.5403,5.5403,0.0,5.5066,5.4855,5.4685,5.4495,5.4104,5.387,5.3643,5.3524,5.3336,5.3206,5.3206,5.3206,5.3206,5.3206,5.3206,5.3206,5.3206,5.3206,5.3206,5.3206,5.3206,5.361,5.4418,5.4913,5.5721,5.6822,5.7317,5.7703,5.7997,5.7997,5.7997,5.7997,5.7997,5.7997,5.7997,5.7997,5.7997,5.7997,5.7997,5.7997,5.7997,5.564,5.5682,5.5703,5.564,5.5618,5.5618,5.5596,5.5551,5.5527,5.5504,5.5504,5.5504,5.5504,5.5504,5.548,5.5432,5.548,5.548,5.5456,5.5527,5.5551,5.5527,5.5527,5.5551,5.5551,5.5551,5.5551,5.5551,5.5596,5.5596,5.5573,5.5596,5.5551,5.5456,5.5432,5.5427,5.5415,5.539,5.539,5.5409,5.5403,5.5403,5.5403,5.5403,5.5403,5.5403,5.5403,5.5403,5.5403,5.5403,5.5403,5.5403,5.5403,5.5403,5.5403,5.5403,5.5403,5.5403,5.5403,5.5403,5.5403,5.5403,5.5403,5.5403,5.5403,5.5403,5.5403,5.5403,5.5403,5.5403,5.5403,5.5403,5.5403,5.5403,5.5403,5.5286,5.5038,5.499,5.4874,5.4495,5.4209,5.3979,5.3907,5.368,5.3561,5.3561,5.344,5.3295,5.3206,5.3206,5.3206,5.3206,5.3206,5.3335,5.3573,5.3592,5.3977,5.4785,5.5592,5.64,5.7207,5.7758,5.7997,5.7997,5.7997,5.7997,5.7997,5.7997,5.7997,5.7997,5.7997,5.7997,5.7997,5.7997,5.7997,5.7997,5.5703,5.5703,5.5703,5.5703,5.5703,5.5682,5.5596,5.5596,5.5573,5.5504,5.5504,5.5504,5.5504,5.5504,5.5504,5.5504,5.5504,5.5527,5.5596,5.5662,5.5662,5.5596,5.5596,5.5618,5.5703,5.5703,5.5703,5.5703,5.5703,5.5703,5.5703,5.5618,5.5596,5.5596,5.5527,5.5504,5.5504,5.5432,5.5408,5.5408,5.5409,5.5403,5.5403,5.5403,5.5403,5.5403,5.5403,5.5403,5.5403,5.5403,5.5403,5.5403,5.5403,5.5403,5.5403,5.5403,5.5403,5.5403,5.5403,5.5403,5.5403,5.5403,5.5403,5.5403,5.5403,5.5403,5.5403,5.5403,5.5403,5.5403,5.5403,5.5403,5.5403,5.5403,5.5403,5.5403,5.5403,5.5403,5.526,5.4836,5.4806,5.4685,5.4349,5.4296,5.4315,5.4315,5.3944,5.3545,5.3206,5.3206,5.3206,5.3225,5.3225,5.361,5.4399,5.4399,5.4803,5.5611,5.6418,5.7226,5.7997,5.7997,5.7997,5.7997,5.7997,5.7997,5.7997,5.7997,5.7997,5.7997,5.7997,5.7997,5.7997,5.7997,5.7997,5.7997,5.5703,5.5703,5.5703,5.5703,5.5703,5.5684,5.5662,5.5662,5.5662,5.564,5.564,5.564,5.564,5.564,5.5618,5.5573,5.5618,5.564,5.5682,5.5703,5.5703,5.5662,5.5662,5.5682,5.5703,5.5703,5.5703,5.5703,5.5703,5.5703,5.5703,5.5682,5.566,5.5596,5.5573,5.5551,5.5504,5.548,5.548,5.5456,5.5427,5.5402,5.5396,5.5409,5.5403,5.5403,5.5403,5.5403,5.5403,5.5403,5.5403,5.5403,5.5403,5.5403,5.5403,5.5403,5.5403,5.5403,5.5403,5.5403,5.5403,5.5403,5.5403,5.5403,5.5403,5.5403,5.5403,5.5403,5.5403,5.5403,5.5403,5.5403,5.5403,5.5403,5.5403,5.5403,5.5403,5.5403,5.5377,5.5233,5.4962,5.4746,5.4654,5.443,5.4315,5.4315,5.3944,5.3662,5.3563,5.3336,5.3463,5.4014,5.4051,5.4436,5.5225,5.4675,5.5097,5.6436,5.6693,5.7226,5.7997,5.7997,5.7997,5.7997,5.7997,5.7997,5.7997,5.7997,5.7997,5.7997,5.7997,5.7997,5.7997,5.7997,5.7997,5.7997,5.5703,5.5703,5.5703,5.5703,5.5703,5.5703,5.5703,5.5703,5.5703,5.5703,5.5703,5.5703,5.5703,5.5703,5.5662,5.564,5.5682,5.5703,5.5703,5.5703,5.5703,5.5703,5.5703,5.5703,5.5703,5.5703,5.5703,5.5703,5.5703,5.5703,5.5703,5.5703,5.5682,5.564,5.564,5.5618,5.5573,5.5551,5.5551,5.5527,5.548,5.5432,5.5432,5.5396,5.5415,5.544,5.5428,5.5409,5.544,5.5428,5.5403,5.5403,5.5403,5.5403,5.5403,5.5403,5.5403,5.5403,5.5403,5.5403,5.5403,5.5403,5.5403,5.5403,5.5403,5.5403,5.5403,5.5403,5.5403,5.5403,5.5403,5.5403,5.5403,5.5403,5.5403,5.5403,5.5403,5.5403,5.5403,5.5403,5.5187,5.5038,5.5038,5.4844,5.4673,5.4495,5.4277,5.4033,5.372,5.3838,5.4018,5.4381,5.4711,5.5262,5.6069,5.5592,5.5849,5.6804,5.7134,5.7538,5.7997,5.7997,5.7997,5.7997,5.7997,5.7997,5.7997,5.7997,5.7997,5.7997,5.7997,5.7997,5.7997,5.7997,5.7997,5.7997,5.5703,5.5703,5.5703,5.5703,5.5703,5.5703,5.5703,5.5703,5.5703,5.5703,5.5703,5.5703,5.5703,5.5703,5.5703,5.5703,5.5703,5.5703,5.5703,5.5703,5.5703,5.5703,5.5703,5.5703,5.5703,5.5703,5.5703,5.5703,5.5703,5.5703,5.5703,5.5703,5.5703,5.5703,5.5703,5.5703,5.5703,5.5618,5.5596,5.5596,5.5527,5.5504,5.5504,5.5432,5.5456,5.548,5.5415,5.5465,5.548,5.5415,5.5428,5.5428,5.5428,5.5428,5.5428,5.5428,5.5384,5.5403,5.5403,5.5403,5.5403,5.5403,5.5403,5.5403,5.5403,5.5403,5.5403,5.5403,5.5403,5.5403,5.5403,5.5403,5.5403,5.5403,5.5403,5.5403,5.5403,5.5403,5.5403,5.5403,5.5403,5.5403,5.5403,5.5403,5.5279,5.4979,5.492,5.4641,5.4056,5.4668,5.4896,5.4687,5.5361,5.6088,5.6914,5.6914,5.6914,5.6932,5.7648,5.7997,5.7997,5.7997,5.7997,5.7997,5.7997,5.7997,5.7997,5.7997,5.7997,5.7997,5.7997,5.7997,5.7997,5.7997,5.7997,5.7997,5.5703,5.5703,5.5703,5.5703,5.5703,5.5703,5.5703,5.5703,5.5703,5.5703,5.5703,5.5703,5.5703,5.5703,5.5703,5.5703,5.5703,5.5703,5.5703,5.5703,5.5703,5.5703,5.5703,5.5703,5.5703,5.5703,5.5703,5.5703,5.5703,5.5703,5.5703,5.5703,5.5703,5.5703,5.5703,5.5703,5.5703,5.5684,5.5682,5.5662,5.5596,5.5573,5.5573,5.5504,5.548,5.5504,5.548,5.5499,5.5504,5.5499,5.5476,5.5476,5.5476,5.5476,5.5476,5.5476,5.5451,5.5402,5.5402,5.539,5.5403,5.5403,5.5403,5.5403,5.5403,5.5403,5.5403,5.5403,5.5403,5.5403,5.5403,5.5403,5.5403,5.5403,5.5403,5.5403,5.5403,5.5403,5.5403,5.5403,5.5403,5.5403,5.5403,5.5403,5.5625,5.6164,5.5959,5.6015,5.6493,5.6164,5.6169,5.6737,5.6595,5.6932,5.7721,5.774,5.774,5.774,5.7923,5.7997,5.7997,5.7997,5.7997,5.7997,5.7997,5.7997,5.7997,5.7997,5.7997,5.7997,5.7997,5.7997,5.7997,5.7997,5.7997,5.7997,5.5703,5.5703,5.5703,5.5703,5.5703,5.5703,5.5703,5.5703,5.5703,5.5703,5.5703,5.5703,5.5703,5.5703,5.5703,5.5703,5.5703,5.5703,5.5703,5.5703,5.5703,5.5703,5.5703,5.5703,5.5703,5.5703,5.5703,5.5703,5.5703,5.5703,5.5703,5.5703,5.5703,5.5703,5.5703,5.5703,5.5703,5.5703,5.5703,5.5703,5.5662,5.564,5.564,5.5573,5.5573,5.5596,5.5527,5.5504,5.5504,5.5527,5.5527,5.5504,5.5504,5.5504,5.5504,5.5504,5.548,5.5456,5.5456,5.5427,5.5415,5.5415,5.5409,5.5403,5.5403,5.5403,5.5403,5.5403,5.5403,5.5403,5.5403,5.5403,5.5403,5.5403,5.5403,5.5403,5.5403,5.5728,5.5976,5.5976,5.6339,5.6587,5.6587,5.6587,5.6778,5.7179,5.7063,5.7072,5.7301,5.7303,5.7416,5.7658,5.7832,5.8053,5.8282,5.8301,5.8186,5.7997,5.7997,5.7997,5.7997,5.7997,5.7997,5.7997,5.7997,5.7997,5.7997,5.7997,5.7997,5.7997,5.7997,5.7997,5.7997,5.7997,5.7997,5.7997,5.5703,5.5703,5.5703,5.5703,5.5703,5.5703,5.5703,5.5703,5.5703,5.5703,5.5703,5.5703,5.5703,5.5703,5.5703,5.5703,5.5703,5.5703,5.5703,5.5703,5.5703,5.5703,5.5703,5.5703,5.5703,5.5703,5.5703,5.5703,5.5703,5.5703,5.5703,5.5703,5.5703,5.5703,5.5703,5.5703,5.5703,5.5703,5.5703,5.5703,5.5703,5.5703,5.5684,5.564,5.564,5.5703,5.5573,5.5527,5.5551,5.5596,5.5573,5.5527,5.5527,5.5527,5.5527,5.5527,5.5527,5.5527,5.5527,5.548,5.5432,5.5432,5.5396,5.5447,5.56,5.5498,5.5403,5.5403,5.5517,5.5613,5.5613,5.5728,5.5842,5.5842,5.5842,5.5842,5.5842,5.6396,5.6816,5.6816,5.7466,5.7905,5.7905,5.7905,5.7963,5.8096,5.8116,5.8006,5.7848,5.8401,5.858,5.8326,5.8876,5.9046,5.871,5.871,5.8521,5.8186,5.8186,5.8142,5.7997,5.7997,5.7997,5.7997,5.7997,5.7997,5.7997,5.7997,5.7997,5.7997,5.7997,5.7997,5.7997,5.7997,5.7997,5.7997,5.5703,5.5703,5.5703,5.5703,5.5703,5.5703,5.5703,5.5703,5.5703,5.5703,5.5703,5.5703,5.5703,5.5703,5.5703,5.5703,5.5703,5.5703,5.5703,5.5703,5.5703,5.5703,5.5703,5.5703,5.5703,5.5703,5.5703,5.5703,5.5703,5.5703,5.5703,5.5703,5.5703,5.5703,5.5703,5.5703,5.5703,5.5703,5.5703,5.5703,5.5703,5.5703,5.5703,5.5703,5.5684,5.5703,5.5682,5.5662,5.5662,5.5662,5.5682,5.5662,5.5662,5.5662,5.5662,5.5662,5.5618,5.5573,5.5573,5.5527,5.548,5.548,5.5432,5.5593,5.6365,5.5951,5.5403,5.5403,5.5957,5.6434,5.6434,5.7046,5.7562,5.7562,5.7562,5.7562,5.7562,5.7657,5.7714,5.7714,5.7829,5.7905,5.7905,5.7905,5.8192,5.8899,5.8937,5.9234,5.9932,5.9741,5.9587,5.9555,5.9321,5.9159,5.9122,5.9122,5.9084,5.9065,5.9065,5.8669,5.7997,5.7997,5.7997,5.7997,5.7997,5.7997,5.7997,5.7997,5.7997,5.7997,5.7997,5.7997,5.7997,5.7997,5.7997,5.7997,5.5703,5.5703,5.5703,5.5703,5.5703,5.5703,5.5703,5.5703,5.5703,5.5703,5.5703,5.5703,5.5703,5.5703,5.5703,5.5703,5.5703,5.5703,5.5703,5.5703,5.5703,5.5703,5.5703,5.5703,5.5703,5.5703,5.5703,5.5703,5.5703,5.5703,5.5703,5.5703,5.5703,5.5703,5.5703,5.5703,5.5703,5.5703,5.5703,5.5703,5.5703,5.5703,5.5703,5.5703,5.5703,5.5703,5.5703,5.5703,5.5703,5.5703,5.5703,5.5703,5.5703,5.5703,5.5703,5.5703,5.5682,5.566,5.566,5.5942,5.6261,5.6261,5.6597,5.7013,5.7397,5.7149,5.685,5.6797,5.7084,5.7332,5.7332,5.7638,5.7905,5.7905,5.7905,5.7905,5.7905,5.8288,5.8746,5.9243,5.93,5.93,5.93,5.93,5.9434,5.9797,5.9835,5.9988,6.037,6.0237,6.0129,6.0129,5.9937,5.9758,5.9537,5.9537,5.9432,5.9215,5.9215,5.9008,5.8688,5.8688,5.8688,5.8688,5.8688,5.8563,5.8326,5.8326,5.8213,5.7997,5.7997,5.7997,5.7997,5.7997,5.7997,5.7997]},{"header":{"parameterUnit":"m.s-1","parameterCategory":1,"la1":30.6,"la2":28.766,"lo1":-90.7593,"lo2":-88.6598,"dx":0.0162,"dy":0.0183,"nx":116,"ny":114,"refTime":"2023-01-22T06:00:00:Z","depth":0,"parameterNumber":3,"parameterNumberName":"V-component_of_WINDS"},"data":[0.0,0.0,0.0,0.0,0.0,0.0,0.0,0.0,0.0,0.0,0.0,0.0,0.0,0.0,0.0,0.0,0.0,0.0,0.0,0.0,0.0,0.0,0.0,0.0,0.0,0.0,0.0,0.0,0.0,0.0,0.0,0.0,0.0,0.0,0.0,0.0,0.0,0.0,0.0,0.0,0.0,0.0,0.0,0.0,0.0,0.0,0.0,0.0,0.0,0.0,0.0,0.0,0.0,0.0,0.0,0.0,0.0,0.0,0.0,0.0,0.0,0.0,0.0,0.0,0.0,0.0,0.0,0.0,0.0,0.0,0.0,0.0,0.0,0.0,0.0,0.0,0.0,0.0,0.0,0.0,0.0,0.0,0.0,0.0,0.0,0.0,0.0,0.0,0.0,0.0,0.0,0.0,0.0,0.0,0.0,0.0,0.0,0.0,0.0,0.0,0.0,0.0,0.0,0.0,0.0,0.0,0.0,0.0,0.0,0.0,0.0,0.0,0.0,0.0,0.0,0.0,0.0,0.0,0.0,0.0,0.0,0.0,0.0,0.0,0.0,0.0,0.0,0.0,0.0,0.0,0.0,0.0,0.0,0.0,0.0,0.0,0.0,0.0,0.0,0.0,0.0,0.0,0.0,0.0,0.0,0.0,0.0,0.0,0.0,0.0,0.0,0.0,0.0,0.0,0.0,0.0,0.0,0.0,0.0,0.0,0.0,0.0,0.0,0.0,0.0,0.0,0.0,0.0,0.0,0.0,0.0,0.0,0.0,0.0,0.0,0.0,0.0,0.0,0.0,0.0,0.0,0.0,0.0,0.0,0.0,0.0,0.0,0.0,0.0,0.0,0.0,0.0,0.0,0.0,0.0,0.0,0.0,0.0,0.0,0.0,0.0,0.0,0.0,0.0,0.0,0.0,0.0,0.0,0.0,0.0,0.0,0.0,0.0,0.0,0.0,0.0,0.0,0.0,0.0,0.0,0.0,0.0,0.0,0.0,0.0,0.0,0.0,0.0,0.0,0.0,0.0,0.0,0.0,0.0,0.0,0.0,0.0,0.0,0.0,0.0,0.0,0.0,0.0,0.0,0.0,0.0,0.0,0.0,0.0,0.0,0.0,0.0,0.0,0.0,0.0,0.0,0.0,0.0,0.0,0.0,0.0,0.0,0.0,0.0,0.0,0.0,0.0,0.0,0.0,0.0,0.0,0.0,0.0,0.0,0.0,0.0,0.0,0.0,0.0,0.0,0.0,0.0,0.0,0.0,0.0,0.0,0.0,0.0,0.0,0.0,0.0,0.0,0.0,0.0,0.0,0.0,0.0,0.0,0.0,0.0,0.0,0.0,0.0,0.0,0.0,0.0,0.0,0.0,0.0,0.0,0.0,0.0,0.0,0.0,0.0,0.0,0.0,0.0,0.0,0.0,0.0,0.0,0.0,0.0,0.0,0.0,0.0,0.0,0.0,0.0,0.0,0.0,0.0,0.0,0.0,0.0,0.0,0.0,0.0,0.0,0.0,0.0,0.0,0.0,0.0,0.0,0.0,0.0,0.0,0.0,0.0,0.0,0.0,0.0,0.0,0.0,0.0,0.0,0.0,0.0,0.0,0.0,0.0,0.0,0.0,0.0,0.0,0.0,0.0,0.0,0.0,0.0,0.0,0.0,0.0,0.0,0.0,0.0,0.0,0.0,0.0,0.0,0.0,0.0,0.0,0.0,0.0,0.0,0.0,0.0,0.0,0.0,0.0,0.0,0.0,0.0,0.0,0.0,0.0,0.0,0.0,0.0,0.0,0.0,0.0,0.0,0.0,0.0,0.0,0.0,0.0,0.0,0.0,0.0,0.0,0.0,0.0,0.0,0.0,0.0,0.0,0.0,0.0,0.0,0.0,0.0,0.0,0.0,0.0,0.0,0.0,0.0,0.0,0.0,0.0,0.0,0.0,0.0,0.0,0.0,0.0,0.0,0.0,0.0,0.0,0.0,0.0,0.0,0.0,0.0,0.0,0.0,0.0,0.0,0.0,0.0,0.0,0.0,0.0,0.0,0.0,0.0,0.0,0.0,0.0,0.0,0.0,0.0,0.0,0.0,0.0,0.0,0.0,0.0,0.0,0.0,0.0,0.0,0.0,0.0,0.0,0.0,0.0,0.0,0.0,0.0,0.0,0.0,0.0,0.0,0.0,0.0,0.0,0.0,0.0,0.0,0.0,0.0,0.0,0.0,0.0,0.0,0.0,0.0,0.0,0.0,0.0,0.0,0.0,0.0,0.0,0.0,0.0,0.0,0.0,0.0,0.0,0.0,0.0,0.0,0.0,0.0,0.0,0.0,0.0,0.0,0.0,0.0,0.0,0.0,0.0,0.0,0.0,0.0,0.0,0.0,0.0,0.0,0.0,0.0,0.0,0.0,0.0,0.0,0.0,0.0,0.0,0.0,0.0,0.0,0.0,0.0,0.0,0.0,0.0,0.0,0.0,0.0,0.0,0.0,0.0,0.0,0.0,0.0,0.0,0.0,0.0,0.0,0.0,0.0,0.0,0.0,0.0,0.0,0.0,0.0,0.0,0.0,0.0,0.0,0.0,0.0,0.0,0.0,0.0,0.0,0.0,0.0,0.0,0.0,0.0,0.0,0.0,0.0,0.0,0.0,0.0,0.0,0.0,0.0,0.0,0.0,0.0,0.0,0.0,0.0,0.0,0.0,0.0,0.0,0.0,0.0,0.0,0.0,0.0,0.0,0.0,0.0,0.0,0.0,0.0,0.0,0.0,0.0,0.0,0.0,0.0,0.0,0.0,0.0,0.0,0.0,0.0,0.0,0.0,0.0,0.0,0.0,0.0,0.0,0.0,0.0,0.0,0.0,0.0,0.0,0.0,0.0,0.0,0.0,0.0,0.0,0.0,0.0,0.0,0.0,0.0,0.0,0.0,0.0,0.0,0.0,0.0,0.0,0.0,0.0,0.0,0.0,0.0,0.0,0.0,0.0,0.0,0.0,0.0,0.0,0.0,0.0,0.0,0.0,0.0,0.0,0.0,0.0,0.0,0.0,0.0,0.0,0.0,0.0,0.0,0.0,0.0,0.0,0.0,0.0,0.0,0.0,0.0,0.0,0.0,0.0,0.0,0.0,0.0,0.0,0.0,0.0,0.0,0.0,0.0,0.0,0.0,0.0,0.0,0.0,0.0,0.0,0.0,0.0,0.0,0.0,0.0,0.0,0.0,0.0,0.0,0.0,0.0,0.0,0.0,0.0,0.0,0.0,0.0,0.0,0.0,0.0,0.0,0.0,0.0,0.0,0.0,0.0,0.0,0.0,0.0,0.0,0.0,0.0,0.0,0.0,0.0,0.0,0.0,0.0,0.0,0.0,0.0,0.0,0.0,0.0,0.0,0.0,0.0,0.0,0.0,0.0,0.0,0.0,0.0,0.0,0.0,0.0,0.0,0.0,0.0,0.0,0.0,0.0,0.0,0.0,0.0,0.0,0.0,0.0,0.0,0.0,0.0,0.0,0.0,0.0,0.0,0.0,0.0,0.0,0.0,0.0,0.0,0.0,0.0,0.0,0.0,0.0,0.0,0.0,0.0,0.0,0.0,0.0,0.0,0.0,0.0,0.0,0.0,0.0,0.0,0.0,0.0,0.0,0.0,0.0,0.0,0.0,0.0,0.0,0.0,0.0,0.0,0.0,0.0,0.0,0.0,0.0,0.0,0.0,0.0,0.0,0.0,0.0,0.0,0.0,0.0,0.0,0.0,0.0,0.0,0.0,0.0,0.0,0.0,0.0,0.0,0.0,0.0,0.0,0.0,0.0,0.0,0.0,0.0,0.0,0.0,0.0,0.0,0.0,0.0,0.0,0.0,0.0,0.0,0.0,0.0,0.0,0.0,0.0,0.0,0.0,0.0,0.0,0.0,0.0,0.0,0.0,0.0,0.0,0.0,0.0,0.0,0.0,0.0,0.0,0.0,0.0,0.0,0.0,0.0,0.0,0.0,0.0,0.0,0.0,0.0,0.0,0.0,0.0,0.0,0.0,0.0,0.0,0.0,0.0,0.0,0.0,0.0,0.0,0.0,0.0,0.0,0.0,0.0,0.0,0.0,0.0,0.0,0.0,0.0,0.0,0.0,0.0,0.0,0.0,0.0,0.0,0.0,0.0,0.0,0.0,0.0,0.0,0.0,0.0,0.0,0.0,0.0,0.0,0.0,0.0,0.0,0.0,0.0,0.0,0.0,0.0,0.0,0.0,0.0,0.0,0.0,0.0,0.0,0.0,0.0,0.0,0.0,0.0,0.0,0.0,0.0,0.0,0.0,0.0,0.0,0.0,0.0,0.0,0.0,0.0,0.0,0.0,0.0,0.0,0.0,0.0,0.0,0.0,0.0,0.0,0.0,0.0,0.0,0.0,0.0,0.0,0.0,0.0,0.0,0.0,0.0,0.0,0.0,0.0,0.0,0.0,0.0,0.0,0.0,0.0,0.0,0.0,0.0,0.0,0.0,0.0,0.0,0.0,0.0,0.0,0.0,0.0,0.0,0.0,0.0,0.0,0.0,0.0,0.0,0.0,0.0,0.0,0.0,0.0,0.0,0.0,0.0,0.0,0.0,0.0,0.0,0.0,0.0,0.0,0.0,0.0,0.0,0.0,0.0,0.0,0.0,0.0,0.0,0.0,0.0,0.0,0.0,0.0,0.0,0.0,0.0,0.0,0.0,0.0,0.0,0.0,0.0,0.0,0.0,0.0,0.0,0.0,0.0,0.0,0.0,0.0,0.0,0.0,0.0,0.0,0.0,0.0,0.0,0.0,0.0,0.0,0.0,0.0,0.0,0.0,0.0,0.0,0.0,0.0,0.0,0.0,0.0,0.0,0.0,0.0,0.0,0.0,0.0,0.0,0.0,0.0,0.0,0.0,0.0,0.0,0.0,0.0,0.0,0.0,0.0,0.0,0.0,0.0,0.0,0.0,0.0,0.0,0.0,0.0,0.0,0.0,0.0,0.0,0.0,0.0,0.0,0.0,0.0,0.0,0.0,0.0,0.0,0.0,0.0,0.0,0.0,0.0,0.0,0.0,0.0,0.0,0.0,0.0,0.0,0.0,0.0,0.0,0.0,0.0,0.0,0.0,0.0,0.0,0.0,0.0,0.0,0.0,0.0,0.0,0.0,0.0,0.0,0.0,0.0,0.0,0.0,0.0,0.0,0.0,0.0,0.0,0.0,0.0,0.0,0.0,0.0,0.0,0.0,0.0,0.0,0.0,0.0,0.0,0.0,0.0,0.0,0.0,0.0,0.0,0.0,0.0,0.0,0.0,0.0,0.0,0.0,0.0,0.0,0.0,0.0,0.0,0.0,0.0,0.0,0.0,0.0,0.0,0.0,0.0,0.0,0.0,0.0,0.0,0.0,0.0,0.0,0.0,0.0,0.0,0.0,0.0,0.0,0.0,0.0,0.0,0.0,0.0,0.0,0.0,0.0,0.0,0.0,0.0,0.0,0.0,0.0,0.0,0.0,0.0,0.0,0.0,0.0,0.0,0.0,0.0,0.0,0.0,0.0,0.0,0.0,0.0,0.0,0.0,0.0,0.0,0.0,0.0,0.0,0.0,0.0,0.0,0.0,0.0,0.0,0.0,0.0,0.0,0.0,0.0,0.0,0.0,0.0,0.0,0.0,0.0,0.0,0.0,0.0,0.0,0.0,0.0,0.0,0.0,0.0,0.0,0.0,0.0,0.0,0.0,0.0,0.0,0.0,0.0,0.0,0.0,0.0,0.0,0.0,0.0,0.0,0.0,0.0,0.0,0.0,0.0,0.0,0.0,0.0,0.0,0.0,0.0,0.0,0.0,0.0,0.0,0.0,0.0,0.0,0.0,0.0,0.0,0.0,0.0,0.0,0.0,0.0,0.0,0.0,0.0,0.0,0.0,0.0,0.0,0.0,0.0,0.0,0.0,0.0,0.0,0.0,0.0,0.0,0.0,0.0,0.0,0.0,0.0,0.0,0.0,0.0,0.0,0.0,0.0,0.0,0.0,0.0,0.0,0.0,0.0,0.0,0.0,0.0,0.0,0.0,0.0,0.0,0.0,0.0,0.0,0.0,0.0,0.0,0.0,0.0,0.0,0.0,0.0,-2.247,0.0,0.0,0.0,0.0,0.0,0.0,0.0,0.0,0.0,0.0,0.0,0.0,0.0,0.0,0.0,0.0,0.0,0.0,0.0,0.0,0.0,0.0,0.0,0.0,0.0,0.0,0.0,0.0,0.0,0.0,0.0,0.0,0.0,0.0,0.0,0.0,0.0,0.0,0.0,0.0,0.0,0.0,0.0,0.0,0.0,0.0,0.0,0.0,0.0,0.0,0.0,0.0,0.0,0.0,0.0,0.0,0.0,0.0,0.0,0.0,0.0,0.0,0.0,0.0,0.0,0.0,0.0,0.0,0.0,0.0,0.0,0.0,0.0,0.0,0.0,0.0,0.0,0.0,0.0,0.0,0.0,0.0,0.0,0.0,0.0,0.0,0.0,0.0,0.0,0.0,0.0,0.0,0.0,0.0,0.0,0.0,0.0,0.0,0.0,0.0,0.0,0.0,0.0,0.0,0.0,0.0,0.0,0.0,0.0,0.0,0.0,0.0,0.0,0.0,0.0,0.0,-2.3145,0.0,0.0,0.0,0.0,0.0,0.0,0.0,0.0,0.0,0.0,0.0,0.0,0.0,0.0,0.0,0.0,0.0,0.0,0.0,0.0,0.0,0.0,0.0,0.0,0.0,0.0,0.0,0.0,0.0,0.0,0.0,0.0,0.0,0.0,0.0,0.0,0.0,0.0,0.0,0.0,0.0,0.0,0.0,0.0,0.0,0.0,0.0,0.0,0.0,0.0,0.0,0.0,0.0,0.0,0.0,0.0,0.0,0.0,0.0,0.0,0.0,0.0,0.0,0.0,0.0,0.0,0.0,0.0,0.0,0.0,0.0,0.0,0.0,0.0,0.0,0.0,0.0,0.0,0.0,0.0,0.0,0.0,0.0,0.0,0.0,0.0,0.0,0.0,0.0,0.0,0.0,0.0,0.0,0.0,0.0,0.0,0.0,0.0,0.0,0.0,0.0,0.0,0.0,0.0,0.0,0.0,0.0,0.0,0.0,0.0,-2.5,-2.5,-2.4922,-2.4933,-2.4469,-2.4494,-2.482,0.0,0.0,0.0,0.0,0.0,0.0,0.0,0.0,0.0,0.0,0.0,0.0,0.0,0.0,0.0,0.0,0.0,0.0,0.0,0.0,0.0,0.0,0.0,0.0,0.0,0.0,0.0,0.0,0.0,0.0,0.0,0.0,0.0,0.0,0.0,0.0,0.0,0.0,0.0,0.0,0.0,0.0,0.0,0.0,0.0,0.0,0.0,0.0,0.0,0.0,0.0,0.0,0.0,0.0,0.0,0.0,0.0,0.0,0.0,0.0,0.0,0.0,0.0,0.0,0.0,0.0,0.0,0.0,0.0,0.0,0.0,0.0,0.0,0.0,0.0,0.0,0.0,0.0,0.0,0.0,0.0,0.0,0.0,0.0,0.0,0.0,0.0,-2.1758,-2.1834,0.0,0.0,0.0,0.0,0.0,0.0,0.0,0.0,0.0,0.0,0.0,0.0,0.0,0.0,-2.4849,-2.4912,-2.4925,-2.4885,-2.482,-2.482,-2.482,-2.482,-2.5071,-2.5485,-2.5423,0.0,-2.482,-2.482,0.0,0.0,0.0,0.0,0.0,0.0,0.0,0.0,0.0,0.0,0.0,0.0,0.0,0.0,0.0,0.0,0.0,0.0,0.0,0.0,0.0,0.0,0.0,0.0,0.0,0.0,0.0,0.0,0.0,0.0,0.0,0.0,0.0,0.0,0.0,0.0,0.0,0.0,0.0,0.0,0.0,0.0,0.0,0.0,0.0,0.0,0.0,0.0,0.0,0.0,0.0,0.0,0.0,0.0,0.0,0.0,0.0,0.0,0.0,0.0,0.0,0.0,0.0,0.0,0.0,0.0,0.0,0.0,0.0,0.0,0.0,0.0,0.0,0.0,0.0,0.0,0.0,0.0,0.0,0.0,0.0,0.0,0.0,0.0,0.0,-2.196,-2.2176,-2.2596,-2.2635,-2.2765,0.0,0.0,0.0,0.0,0.0,0.0,0.0,0.0,0.0,-2.5103,-2.5103,-2.5179,-2.5313,-2.5313,-2.5489,-2.5749,-2.5749,-2.5749,-2.5749,-2.5749,-2.5862,-2.6088,-2.6088,-2.595,-2.5749,-2.5749,-2.5749,-2.5749,0.0,0.0,0.0,0.0,0.0,-2.5749,0.0,0.0,0.0,0.0,0.0,0.0,0.0,0.0,0.0,0.0,0.0,0.0,0.0,0.0,0.0,0.0,0.0,0.0,0.0,0.0,0.0,0.0,0.0,0.0,0.0,0.0,0.0,0.0,0.0,0.0,0.0,0.0,0.0,0.0,0.0,0.0,0.0,0.0,0.0,0.0,0.0,0.0,0.0,0.0,0.0,0.0,0.0,0.0,0.0,0.0,0.0,0.0,0.0,0.0,0.0,0.0,0.0,0.0,0.0,0.0,0.0,0.0,0.0,0.0,0.0,0.0,0.0,0.0,0.0,0.0,0.0,0.0,0.0,0.0,0.0,0.0,0.0,-2.245,-2.2691,-2.3417,-2.338,-2.3612,0.0,0.0,0.0,0.0,0.0,0.0,-2.5448,-2.5448,-2.546,-2.5365,-2.5405,-2.5529,-2.5812,-2.5824,-2.6038,-2.6533,-2.6533,-2.6533,-2.6533,-2.6533,-2.6533,-2.6533,-2.6533,-2.6609,-2.6653,-2.6584,-2.6533,-2.6533,-2.6533,-2.6533,0.0,-2.6533,-2.6533,-2.6533,0.0,0.0,0.0,0.0,0.0,0.0,0.0,0.0,0.0,0.0,0.0,0.0,0.0,0.0,0.0,0.0,0.0,0.0,0.0,0.0,0.0,0.0,0.0,0.0,0.0,0.0,0.0,0.0,0.0,0.0,0.0,0.0,0.0,0.0,0.0,0.0,0.0,0.0,0.0,0.0,0.0,0.0,0.0,0.0,0.0,0.0,0.0,0.0,0.0,0.0,0.0,0.0,0.0,0.0,0.0,0.0,0.0,0.0,0.0,0.0,0.0,0.0,0.0,0.0,0.0,0.0,0.0,0.0,0.0,0.0,0.0,0.0,0.0,0.0,0.0,0.0,0.0,0.0,0.0,-2.4368,-2.4262,0.0,0.0,0.0,0.0,-2.5256,-2.5281,-2.5473,-2.5813,-2.5851,-2.6025,-2.6433,-2.6445,-2.6458,-2.6483,-2.6483,-2.6496,-2.6533,-2.6533,-2.6533,-2.6533,-2.6533,-2.6533,-2.6533,-2.6533,-2.6753,-2.7205,-2.6747,-2.6533,-2.6533,-2.6533,-2.6533,-2.6533,-2.6533,-2.6533,-2.6533,0.0,0.0,0.0,0.0,0.0,0.0,0.0,0.0,0.0,0.0,0.0,0.0,0.0,0.0,0.0,0.0,0.0,0.0,0.0,0.0,0.0,0.0,0.0,0.0,0.0,0.0,0.0,0.0,0.0,0.0,0.0,0.0,0.0,0.0,0.0,0.0,0.0,0.0,0.0,0.0,0.0,0.0,0.0,0.0,0.0,0.0,0.0,0.0,0.0,0.0,0.0,0.0,0.0,0.0,0.0,0.0,0.0,0.0,0.0,0.0,0.0,0.0,0.0,0.0,0.0,0.0,0.0,0.0,0.0,0.0,0.0,0.0,0.0,0.0,0.0,0.0,0.0,0.0,0.0,-2.4935,-2.4823,0.0,0.0,-2.5498,-2.5715,-2.5715,-2.5927,-2.6152,-2.6287,-2.6299,-2.6319,-2.6521,-2.6533,-2.6697,-2.6979,-2.6979,-2.7168,-2.7519,-2.7519,-2.7519,-2.7519,-2.7519,-2.7519,-2.7519,-2.7519,-2.7632,-2.7795,-2.7607,-2.7519,-2.7519,-2.7519,-2.7519,-2.7519,-2.7519,-2.7519,-2.7519,0.0,0.0,0.0,0.0,0.0,0.0,0.0,0.0,0.0,0.0,0.0,0.0,0.0,0.0,0.0,0.0,0.0,0.0,0.0,0.0,0.0,0.0,0.0,0.0,0.0,0.0,0.0,0.0,0.0,0.0,0.0,0.0,0.0,0.0,0.0,0.0,0.0,0.0,0.0,0.0,0.0,0.0,-2.3569,0.0,0.0,0.0,0.0,0.0,0.0,0.0,0.0,0.0,0.0,0.0,0.0,0.0,0.0,0.0,0.0,0.0,0.0,0.0,0.0,0.0,0.0,0.0,0.0,0.0,0.0,0.0,0.0,0.0,0.0,0.0,0.0,0.0,0.0,0.0,-2.4709,-2.5448,-2.5331,-2.5342,-2.5728,-2.5952,-2.6101,-2.6101,-2.6319,-2.6533,-2.6533,-2.6697,-2.6741,-2.6741,-2.6917,-2.7193,-2.7557,-2.7557,-2.7745,-2.8109,-2.8109,-2.8109,-2.8109,-2.8109,-2.8109,-2.8109,-2.8109,-2.821,-2.8386,-2.8386,-2.8499,-2.8637,-2.826,-2.8109,-2.8109,-2.8109,-2.8109,-2.8109,0.0,0.0,0.0,0.0,0.0,0.0,0.0,0.0,0.0,0.0,0.0,0.0,0.0,0.0,0.0,0.0,0.0,0.0,0.0,0.0,0.0,0.0,0.0,0.0,0.0,0.0,0.0,0.0,0.0,0.0,0.0,0.0,0.0,0.0,0.0,0.0,0.0,0.0,0.0,0.0,0.0,0.0,-2.3403,0.0,0.0,0.0,0.0,0.0,0.0,0.0,0.0,0.0,0.0,0.0,0.0,0.0,0.0,0.0,0.0,0.0,0.0,0.0,0.0,0.0,0.0,0.0,0.0,0.0,0.0,0.0,0.0,0.0,0.0,0.0,0.0,0.0,-2.5256,-2.5141,-2.5293,-2.6036,-2.5823,-2.5904,-2.6595,-2.6589,-2.6533,-2.6546,-2.6546,-2.6559,-2.6584,-2.7017,-2.7306,-2.7306,-2.7821,-2.8109,-2.8134,-2.8147,-2.816,-2.8185,-2.8197,-2.821,-2.821,-2.821,-2.821,-2.821,-2.821,-2.8511,-2.9001,-2.9001,-2.934,-2.9729,-2.8599,-2.816,-2.816,-2.816,-2.816,-2.816,0.0,0.0,0.0,0.0,0.0,0.0,0.0,0.0,0.0,0.0,0.0,0.0,0.0,0.0,0.0,0.0,0.0,0.0,0.0,0.0,0.0,0.0,0.0,0.0,0.0,0.0,0.0,0.0,0.0,0.0,0.0,0.0,0.0,0.0,0.0,0.0,0.0,0.0,0.0,0.0,0.0,0.0,-2.3198,0.0,0.0,0.0,0.0,0.0,0.0,0.0,0.0,0.0,0.0,0.0,0.0,0.0,0.0,0.0,0.0,0.0,0.0,0.0,0.0,0.0,0.0,0.0,0.0,0.0,0.0,0.0,0.0,0.0,0.0,0.0,0.0,-2.5661,-2.5726,-2.5582,-2.5652,-2.6287,-2.6294,-2.6345,-2.6508,-2.6521,-2.6697,-2.703,-2.7055,-2.7231,-2.7632,-2.7795,-2.7883,-2.7883,-2.8021,-2.8298,-2.8699,-2.9114,-2.9528,-2.993,-3.0306,-3.0482,-3.0482,-3.0482,-3.0482,-3.0482,-3.0482,-3.057,-3.0708,-3.0708,-3.0809,-3.0846,-2.9754,-2.9327,-2.9327,-2.9327,-2.9327,-2.939,0.0,0.0,0.0,0.0,0.0,0.0,0.0,0.0,0.0,0.0,0.0,0.0,0.0,0.0,0.0,0.0,0.0,0.0,0.0,0.0,0.0,0.0,0.0,0.0,0.0,0.0,0.0,0.0,0.0,0.0,0.0,0.0,0.0,0.0,0.0,0.0,0.0,0.0,0.0,0.0,0.0,0.0,-2.3502,-2.3624,-2.3412,-2.3138,-2.3318,-2.333,-2.3271,-2.3271,0.0,0.0,0.0,0.0,0.0,0.0,0.0,0.0,0.0,0.0,0.0,0.0,0.0,0.0,0.0,0.0,0.0,0.0,0.0,0.0,0.0,0.0,0.0,0.0,-2.6177,-2.6177,-2.6177,-2.603,-2.6088,-2.6483,-2.6533,-2.6622,-2.6779,-2.6804,-2.703,-2.7582,-2.7632,-2.777,-2.8084,-2.8323,-2.8561,-2.88,-2.9038,-2.9415,-2.9955,-3.0294,-3.062,-3.0947,-3.1248,-3.1386,-3.1386,-3.1386,-3.1386,0.0,-3.1386,-3.1386,-3.1386,-3.1386,-3.1386,0.0,0.0,0.0,0.0,0.0,-3.047,-3.0507,0.0,0.0,0.0,0.0,0.0,0.0,0.0,0.0,0.0,0.0,0.0,0.0,0.0,0.0,0.0,0.0,0.0,0.0,0.0,0.0,0.0,0.0,0.0,0.0,0.0,0.0,0.0,0.0,0.0,0.0,0.0,0.0,0.0,0.0,0.0,0.0,0.0,0.0,0.0,0.0,0.0,0.0,-2.4092,-2.4092,-2.374,-2.3165,-2.3165,-2.3188,-2.3078,-2.3078,0.0,0.0,0.0,0.0,0.0,0.0,0.0,0.0,0.0,0.0,0.0,0.0,0.0,0.0,0.0,0.0,0.0,0.0,0.0,0.0,0.0,0.0,0.0,0.0,-2.6589,-2.6533,-2.6533,-2.6584,-2.6596,-2.6533,-2.6584,-2.6753,-2.7231,-2.7344,-2.7607,-2.816,-2.8197,-2.826,-2.8386,0.0,0.0,0.0,0.0,-3.0922,-3.1386,-3.1449,-3.1486,-3.1486,-3.1549,-3.1587,-3.1587,-3.1492,-3.141,-3.141,-3.1315,-3.1315,-3.141,-3.1315,-3.1352,-3.1472,-3.1461,-3.1386,-3.1386,-3.1304,-3.1304,0.0,0.0,0.0,0.0,0.0,0.0,0.0,0.0,0.0,0.0,0.0,0.0,0.0,0.0,0.0,0.0,0.0,0.0,0.0,0.0,0.0,0.0,0.0,0.0,0.0,0.0,0.0,0.0,0.0,0.0,0.0,0.0,0.0,0.0,0.0,0.0,0.0,0.0,0.0,0.0,0.0,0.0,0.0,-2.4669,-2.4669,-2.4318,-2.3841,-2.3841,-2.3527,-2.3078,-2.3078,-2.3078,-2.3078,-2.3078,0.0,0.0,0.0,0.0,0.0,0.0,0.0,0.0,0.0,0.0,0.0,0.0,0.0,0.0,0.0,0.0,0.0,0.0,0.0,0.0,-2.6508,-2.6521,-2.6533,-2.6533,-2.6841,-2.6954,-2.6584,-2.6854,-2.7168,-2.7268,-2.7682,-2.8172,-2.8725,-2.8775,-2.9164,-3.008,-3.0231,0.0,-3.106,-3.1185,-3.1286,-3.1386,-3.1838,-3.2051,-3.2051,0.0,0.0,-3.2742,-3.1945,-3.1586,-3.1499,-3.0773,-3.0861,-3.1487,-3.0761,-3.1098,-3.2147,-3.1639,-3.1386,-3.1304,-3.055,-3.0716,-3.1367,0.0,0.0,0.0,0.0,0.0,0.0,0.0,0.0,0.0,0.0,0.0,0.0,0.0,0.0,0.0,0.0,0.0,0.0,0.0,0.0,0.0,0.0,0.0,0.0,0.0,0.0,0.0,0.0,0.0,0.0,0.0,0.0,0.0,0.0,0.0,0.0,0.0,0.0,0.0,0.0,0.0,0.0,-2.5611,-2.5322,-2.487,-2.4381,-2.4104,-2.3816,-2.3565,-2.3565,-2.3565,-2.3615,-2.3891,-2.3979,-2.3979,0.0,0.0,0.0,0.0,0.0,0.0,0.0,0.0,0.0,0.0,0.0,0.0,0.0,0.0,-2.6521,0.0,0.0,-2.6533,-2.6533,-2.676,-2.6866,-2.6866,-2.7344,-2.7494,-2.6929,-2.7356,-2.7808,-2.8084,-2.8348,-2.8863,-2.9716,-2.9767,-3.0131,-3.0959,-3.0997,-3.1248,-3.1788,-3.18,-3.1938,-3.2227,-3.2503,-3.2792,-3.3056,-3.3357,-3.3633,-3.3897,-3.3341,-3.3162,-3.3162,-3.2689,-3.2689,-3.3162,-3.2689,-3.2925,-3.3547,-3.3196,-3.2686,-3.214,-3.1158,-3.1069,-3.146,0.0,0.0,0.0,0.0,0.0,0.0,0.0,0.0,0.0,0.0,0.0,0.0,0.0,0.0,0.0,0.0,0.0,0.0,0.0,0.0,0.0,0.0,0.0,0.0,0.0,0.0,0.0,0.0,0.0,0.0,0.0,0.0,0.0,0.0,0.0,0.0,0.0,0.0,0.0,0.0,0.0,0.0,-2.6483,-2.5937,-2.5435,-2.4908,-2.4469,-2.4243,-2.4155,-2.4155,-2.4155,-2.4243,-2.4682,-2.482,-2.482,-2.482,-2.4895,0.0,0.0,0.0,0.0,0.0,0.0,0.0,0.0,0.0,-2.6533,-2.6533,-2.6533,-2.6533,-2.6533,-2.6533,-2.6559,-2.6672,-2.6992,-2.7318,-2.7431,-2.7921,-2.8097,-2.7657,-2.7996,-2.8486,-2.9038,-2.9189,-2.9679,-3.0683,-3.0771,-3.0997,-3.1524,-3.1549,-3.18,-3.2365,-3.2491,-3.2767,-3.3232,-3.3345,-3.3621,-3.406,-3.406,-3.4299,-3.4726,-3.4351,-3.4156,-3.4156,-3.387,-3.3674,-3.357,-3.3961,-3.4023,-3.3924,-3.3924,-3.3498,-3.2688,-3.1838,-3.1662,-3.1757,0.0,0.0,0.0,0.0,0.0,0.0,0.0,0.0,0.0,0.0,0.0,0.0,0.0,0.0,0.0,0.0,0.0,0.0,0.0,0.0,0.0,0.0,0.0,0.0,0.0,0.0,0.0,0.0,0.0,0.0,0.0,0.0,0.0,0.0,0.0,0.0,0.0,0.0,0.0,0.0,0.0,0.0,-2.6521,-2.6458,-2.6013,-2.5498,-2.5435,-2.5121,-2.4732,-2.4732,-2.4732,-2.4745,-2.4808,-2.482,-2.482,-2.482,0.0,-2.5511,-2.5511,-2.5887,0.0,-2.6352,-2.6433,-2.6445,0.0,0.0,-2.6533,-2.6533,-2.6533,-2.6533,-2.6533,-2.6533,-2.6684,-2.7105,-2.7243,-2.7457,-2.7946,-2.8486,-2.8812,-2.875,-2.88,-2.9063,-2.9641,-3.0143,-3.067,-3.126,-3.1298,-3.1537,-3.2089,-3.2127,-3.239,-3.2968,-3.3458,-3.3746,-3.3809,-3.4299,-3.4562,-3.4625,-3.4625,-3.4663,-3.4623,-3.2828,-3.2065,-3.197,-3.1027,-3.0068,-2.9381,-3.1196,-3.1638,-3.135,-3.1262,-3.1429,-3.1806,-3.1718,-3.2242,-3.2699,0.0,0.0,0.0,0.0,0.0,0.0,0.0,0.0,0.0,0.0,0.0,0.0,0.0,0.0,0.0,0.0,0.0,0.0,0.0,0.0,0.0,0.0,0.0,0.0,0.0,0.0,0.0,0.0,0.0,0.0,0.0,0.0,0.0,0.0,0.0,0.0,0.0,0.0,0.0,0.0,0.0,0.0,-2.6533,-2.6533,-2.6314,-2.605,-2.5724,-2.546,0.0,0.0,-2.5272,-2.5335,-2.5674,-2.5774,-2.5774,-2.5774,-2.5925,0.0,-2.6101,0.0,0.0,0.0,-2.6533,-2.6533,-2.6533,-2.6533,-2.6533,-2.6533,-2.6533,-2.6634,-2.6879,-2.6942,-2.7118,0.0,-2.8034,-2.8323,-2.8549,-2.9076,-2.9553,-2.9867,-2.9905,-3.0005,-3.0244,-3.0746,-3.1286,-3.1825,-3.1863,-3.2114,-3.2692,-3.2717,-3.2968,-3.3533,-3.3771,-3.406,-3.4374,-3.4613,-3.4889,-3.5203,-3.5203,-3.5366,-3.568,-3.4789,-3.4114,-3.3443,-3.3056,-3.2264,-3.1385,-3.2165,-3.2389,-3.2273,-3.2184,-3.2308,-3.2342,-3.1138,-3.0996,-3.1174,0.0,0.0,0.0,0.0,0.0,0.0,0.0,0.0,0.0,0.0,0.0,0.0,0.0,0.0,0.0,0.0,0.0,0.0,0.0,0.0,0.0,0.0,0.0,0.0,0.0,0.0,0.0,0.0,0.0,0.0,0.0,0.0,0.0,0.0,0.0,0.0,0.0,0.0,0.0,0.0,0.0,0.0,-2.6533,-2.6533,-2.6533,-2.6471,-2.5988,-2.5837,0.0,0.0,-2.5837,-2.59,-2.6327,-2.6533,-2.6533,-2.6533,-2.6533,-2.6533,-2.6533,0.0,0.0,-2.6533,-2.6533,-2.6533,-2.6533,-2.6533,-2.6533,-2.6533,-2.6647,-2.6804,-2.7205,-2.7406,0.0,-2.8247,-2.8662,-2.8988,-2.9139,-2.9654,-3.0168,-3.057,-3.0871,-3.106,-3.106,-3.1399,-3.1851,-3.2416,-3.2453,-3.2704,-3.3269,-3.3307,-3.3558,-3.411,-3.4274,-3.455,-3.4951,-3.5102,-3.5378,-3.5768,-3.5768,-3.5781,-3.5966,-3.5367,-3.4471,-3.3487,-3.3487,-3.2989,-3.2297,-3.2297,-3.2297,-3.2297,-3.2297,-3.2297,-3.2106,-3.0599,-3.0193,-3.0391,0.0,0.0,0.0,0.0,0.0,0.0,0.0,0.0,0.0,0.0,0.0,0.0,0.0,0.0,0.0,0.0,0.0,0.0,0.0,0.0,0.0,0.0,0.0,0.0,0.0,0.0,0.0,0.0,0.0,0.0,0.0,0.0,0.0,0.0,0.0,0.0,0.0,0.0,0.0,0.0,0.0,0.0,-2.6533,-2.6533,-2.6533,-2.6533,-2.6508,0.0,0.0,0.0,-2.6496,-2.6508,-2.6521,-2.6533,0.0,-2.6533,-2.6533,0.0,0.0,0.0,-2.6533,-2.6533,-2.6533,-2.6533,-2.6533,-2.6533,-2.6533,-2.6533,-2.6892,-2.7268,-2.7281,-2.772,-2.826,-2.8812,-2.8925,-2.9126,-2.9691,-3.0244,-3.0595,-3.062,-3.1537,-3.2164,0.0,-3.2177,-3.2428,-3.3006,-3.3056,-3.3294,-3.3847,-3.3872,-3.4123,-3.4675,-3.5215,-3.5504,-3.5516,-3.6044,-3.632,-3.6332,-3.6332,-3.5846,-3.4775,-3.2678,-3.1187,-3.0193,-3.0193,-3.0099,-3.0099,-3.0099,-3.0099,-3.0099,-3.0099,-3.0099,-3.0099,-2.9994,-3.0692,-3.1381,0.0,0.0,0.0,0.0,0.0,0.0,0.0,0.0,0.0,0.0,0.0,0.0,0.0,0.0,0.0,0.0,0.0,0.0,0.0,0.0,0.0,0.0,0.0,0.0,0.0,0.0,0.0,0.0,0.0,0.0,0.0,0.0,0.0,0.0,0.0,0.0,0.0,0.0,0.0,0.0,0.0,0.0,-2.5887,-2.5887,-2.6126,-2.6533,0.0,0.0,0.0,0.0,0.0,0.0,-2.6533,0.0,0.0,-2.6533,0.0,0.0,0.0,0.0,-2.6533,-2.6533,-2.6533,-2.6533,-2.6533,-2.6533,-2.6634,-2.6929,-2.7155,-2.7507,-2.8235,-2.8524,-2.8837,-2.9402,-2.9503,-2.9704,-3.0256,-3.0507,-3.0871,-3.1587,-3.1989,0.0,0.0,0.0,0.0,-3.3056,-3.342,-3.3709,-3.3884,-3.4248,-3.47,-3.5253,-3.5454,-3.5332,-3.5003,-3.5281,-3.4969,-3.4288,-3.4981,-3.4787,-3.3796,-3.4471,-3.3773,-3.2196,-3.2889,-3.2387,-3.1084,-3.1084,-3.0692,-2.9994,-2.9994,-2.9994,-2.9994,-2.9994,-3.0193,-3.0495,0.0,0.0,0.0,0.0,0.0,0.0,0.0,0.0,0.0,0.0,0.0,0.0,0.0,0.0,0.0,0.0,0.0,0.0,0.0,0.0,0.0,0.0,0.0,0.0,0.0,0.0,0.0,0.0,0.0,0.0,0.0,0.0,0.0,0.0,0.0,0.0,0.0,0.0,0.0,0.0,0.0,0.0,-2.5624,-2.5824,-2.6138,0.0,0.0,0.0,0.0,0.0,0.0,0.0,0.0,0.0,0.0,0.0,0.0,0.0,0.0,-2.6533,-2.6533,-2.6533,-2.6533,-2.6584,-2.6703,-2.6753,-2.6917,-2.7469,-2.7733,-2.8084,-2.88,-2.9101,-2.9365,-2.9729,-2.9955,-3.0218,-3.057,-3.0947,-3.1436,-3.2127,-3.239,0.0,0.0,0.0,0.0,-3.337,-3.3709,-3.4073,-3.4462,-3.4826,-3.5265,-3.5818,-3.583,-3.5511,-3.4775,-3.4775,-3.4483,-3.3796,-3.4091,-3.3895,-3.3201,-3.3883,-3.3377,-3.2095,-3.2789,-3.2286,-3.0981,-3.0981,-3.0588,-2.9994,-2.9994,-2.9994,-2.9994,-2.9994,-2.9994,-2.9994,0.0,0.0,0.0,0.0,0.0,0.0,0.0,0.0,0.0,0.0,0.0,0.0,0.0,0.0,0.0,0.0,0.0,0.0,0.0,0.0,0.0,0.0,0.0,0.0,0.0,0.0,0.0,0.0,0.0,0.0,0.0,0.0,0.0,0.0,0.0,0.0,0.0,0.0,0.0,0.0,0.0,0.0,-2.5573,-2.6151,0.0,0.0,0.0,0.0,0.0,0.0,0.0,0.0,0.0,0.0,0.0,0.0,0.0,-2.6533,-2.6533,-2.6533,-2.6533,-2.6533,-2.6546,-2.664,-2.7155,-2.7306,-2.7482,-2.8034,-2.8561,-2.8938,0.0,0.0,-2.9792,-2.9792,-3.0256,-3.062,-3.0658,-3.1562,-3.2227,0.0,0.0,0.0,0.0,0.0,0.0,-3.3985,0.0,-3.4449,-3.5491,-3.5567,-3.583,-3.6345,-3.6358,-3.5763,-3.4775,-3.4678,-3.4678,-3.4581,-3.3697,-3.3201,-3.3101,-3.1105,-3.0088,-3.0099,-3.0099,-3.0088,-3.0099,-3.0099,-3.0099,-2.9994,-2.9994,-2.9994,-2.9994,-2.9994,-2.9994,-2.9994,0.0,0.0,0.0,0.0,0.0,0.0,0.0,0.0,0.0,0.0,0.0,0.0,0.0,0.0,0.0,0.0,0.0,0.0,0.0,0.0,0.0,0.0,0.0,0.0,0.0,0.0,0.0,0.0,0.0,0.0,0.0,0.0,0.0,0.0,0.0,0.0,0.0,0.0,0.0,0.0,0.0,0.0,-2.4469,0.0,0.0,0.0,0.0,0.0,0.0,0.0,0.0,0.0,0.0,0.0,-2.6533,0.0,0.0,-2.6533,-2.6533,-2.6533,-2.6533,-2.6533,-2.6766,-2.7105,-2.7256,-2.7607,-2.8059,-2.8612,-2.8825,-2.9063,0.0,0.0,0.0,-2.9792,-3.0256,0.0,-3.1135,-3.1788,0.0,0.0,0.0,-3.3244,-3.3658,-3.3822,0.0,0.0,-3.5127,-3.5253,-3.5529,-3.5931,-3.6219,-3.6358,-3.5667,-3.4678,-3.3598,-3.2789,-3.2376,-3.2376,-3.2989,-3.2801,-3.1982,-3.2297,-3.1993,-3.1289,-3.1993,-3.1891,-3.1187,-3.1187,-3.0692,-2.9994,-2.9994,-2.9994,-2.9994,-2.9994,-2.9994,-2.9994,0.0,0.0,0.0,0.0,0.0,0.0,0.0,0.0,0.0,0.0,0.0,0.0,0.0,0.0,0.0,0.0,0.0,0.0,0.0,0.0,0.0,0.0,0.0,0.0,0.0,0.0,0.0,0.0,0.0,0.0,0.0,0.0,0.0,0.0,0.0,0.0,0.0,0.0,0.0,0.0,0.0,0.0,0.0,0.0,0.0,0.0,0.0,0.0,0.0,0.0,0.0,-2.6533,-2.6533,-2.6533,-2.6533,-2.6533,0.0,-2.6533,-2.6533,-2.6533,-2.6584,-2.6766,-2.7055,-2.7406,-2.7896,-2.8247,-2.8624,-2.9189,-2.9302,0.0,0.0,0.0,0.0,0.0,0.0,0.0,-3.1348,-3.2089,-3.2717,0.0,-3.3081,0.0,-3.3847,-3.4123,-3.4613,0.0,0.0,-3.5655,-3.5893,-3.5804,-3.5858,-3.6358,-3.4872,-3.3796,-3.3201,-3.2588,-3.2286,-3.2286,-3.2901,-3.26,-3.1575,-3.1699,-3.1494,-3.0888,0.0,-3.1494,-3.0888,-3.0888,-3.0588,-2.9994,-2.9994,-2.9994,-2.9994,-2.9994,-2.9994,-2.9994,0.0,0.0,0.0,0.0,0.0,0.0,0.0,0.0,0.0,0.0,0.0,0.0,0.0,0.0,0.0,0.0,0.0,0.0,0.0,0.0,0.0,0.0,0.0,0.0,0.0,0.0,0.0,0.0,0.0,0.0,0.0,0.0,0.0,0.0,0.0,0.0,0.0,0.0,0.0,0.0,0.0,0.0,0.0,0.0,0.0,0.0,0.0,0.0,0.0,0.0,-2.6533,-2.6533,-2.6533,-2.6533,-2.6533,-2.6533,-2.6533,-2.6533,-2.6533,-2.6533,-2.6659,-2.7143,-2.7344,-2.7657,-2.8687,-2.8988,-2.9189,-2.9691,0.0,0.0,-2.9792,0.0,-2.9817,-2.9892,0.0,-3.1411,-3.1486,-3.2416,-3.3081,-3.3081,-3.3144,-3.3407,-3.396,-3.4512,-3.5064,-3.5617,-3.5655,-3.5868,-3.6332,-3.5367,-3.5078,-3.5763,-3.4091,-3.3101,-3.3001,-3.3101,-3.3201,-3.3201,-3.3201,-3.26,-3.1575,-3.0495,-2.9994,-2.9994,0.0,0.0,-2.9994,-2.9994,-2.9994,-2.9994,-2.9994,-2.9994,-2.9994,-2.9994,-2.9994,-2.9994,0.0,0.0,0.0,0.0,0.0,0.0,0.0,0.0,0.0,0.0,0.0,0.0,0.0,0.0,0.0,0.0,0.0,0.0,0.0,0.0,0.0,0.0,0.0,0.0,0.0,0.0,0.0,0.0,0.0,0.0,0.0,0.0,0.0,0.0,0.0,0.0,0.0,0.0,0.0,0.0,0.0,0.0,0.0,0.0,0.0,0.0,0.0,0.0,0.0,0.0,-2.6533,-2.6533,-2.6533,-2.6533,-2.6533,-2.6533,-2.6533,-2.6533,-2.6533,-2.6533,-2.6659,-2.7143,-2.762,-2.8134,-2.8787,-2.9302,0.0,0.0,0.0,-2.9792,-2.9792,-2.9792,0.0,-3.0407,0.0,0.0,0.0,0.0,-3.3081,0.0,0.0,0.0,0.0,0.0,0.0,0.0,0.0,0.0,-3.6358,-3.5367,-3.408,-3.2476,-3.2889,-3.2789,-3.188,-3.2789,-3.3201,-3.3201,-3.3201,-3.26,-3.1575,-3.0495,-2.9994,-2.9994,0.0,0.0,-2.9994,-2.9994,-2.9994,-2.9994,-2.9994,-2.9994,-2.9994,-2.9994,-2.9994,-2.9994,0.0,0.0,0.0,0.0,0.0,0.0,0.0,0.0,0.0,0.0,0.0,0.0,0.0,0.0,0.0,0.0,0.0,0.0,0.0,0.0,0.0,0.0,0.0,0.0,0.0,0.0,0.0,0.0,0.0,0.0,0.0,0.0,0.0,0.0,0.0,0.0,0.0,0.0,0.0,0.0,0.0,0.0,0.0,0.0,0.0,0.0,0.0,0.0,0.0,0.0,-2.6214,-2.6533,-2.6533,-2.6533,-2.6533,-2.6533,-2.6533,-2.6533,-2.6533,-2.6533,-2.6659,-2.7143,-2.7695,-2.8247,-2.88,0.0,0.0,0.0,0.0,-2.9792,-2.9792,0.0,0.0,0.0,0.0,0.0,0.0,0.0,0.0,0.0,0.0,0.0,0.0,0.0,0.0,0.0,0.0,0.0,-3.6358,-3.5367,-3.3784,-3.1677,-3.2083,-3.2083,-3.1586,-3.2083,-3.2387,-3.2387,-3.2387,-3.179,-3.0795,-3.0193,-2.9994,-2.9994,0.0,0.0,-2.9994,-2.9994,-2.9994,-2.9994,-2.9994,-2.9994,-2.9994,-2.9994,-2.9994,-2.9994,0.0,0.0,0.0,0.0,0.0,0.0,0.0,0.0,0.0,0.0,0.0,0.0,0.0,0.0,0.0,0.0,0.0,0.0,0.0,0.0,0.0,0.0,0.0,0.0,0.0,0.0,0.0,0.0,0.0,0.0,0.0,0.0,0.0,0.0,0.0,0.0,0.0,0.0,0.0,0.0,0.0,0.0,0.0,0.0,0.0,0.0,0.0,0.0,0.0,0.0,-2.59,-2.6302,-2.6483,-2.6533,-2.6533,-2.6533,-2.6533,-2.6533,-2.6533,-2.6533,-2.6659,-2.7143,-2.7695,-2.8247,-2.88,-2.9377,0.0,0.0,0.0,0.0,0.0,0.0,0.0,0.0,0.0,0.0,0.0,0.0,0.0,0.0,0.0,0.0,0.0,0.0,0.0,0.0,0.0,0.0,0.0,-3.5078,-3.3575,-3.1677,-3.1575,-3.1575,-3.1575,-3.1575,-3.1575,-3.1575,-3.1575,-3.1084,-2.9994,-2.9994,-2.9994,-2.9994,0.0,0.0,0.0,-3.0098,-3.0149,-3.0149,-3.0253,-3.0294,-3.0284,-3.0178,-3.0284,-3.0294,0.0,0.0,0.0,0.0,0.0,0.0,0.0,0.0,0.0,0.0,0.0,0.0,0.0,0.0,0.0,0.0,0.0,0.0,0.0,0.0,0.0,0.0,0.0,0.0,0.0,0.0,0.0,0.0,0.0,0.0,0.0,0.0,0.0,0.0,0.0,0.0,0.0,0.0,0.0,0.0,0.0,0.0,0.0,0.0,0.0,0.0,0.0,0.0,0.0,0.0,0.0,-2.5774,-2.6302,-2.6533,-2.6533,-2.6533,0.0,0.0,-2.6533,-2.6533,-2.6659,-2.7143,-2.7695,-2.8247,-2.88,0.0,0.0,0.0,-2.9792,-2.9792,0.0,0.0,0.0,0.0,0.0,0.0,0.0,0.0,0.0,0.0,0.0,0.0,0.0,0.0,0.0,0.0,0.0,0.0,0.0,-3.3895,-3.2789,-3.1677,-3.1575,-3.1575,-3.1575,-3.1575,-3.1575,-3.1575,-3.1575,-3.1084,-2.9994,-2.9994,-2.9994,-2.9994,0.0,0.0,0.0,-3.045,-3.0626,-3.0667,-3.1091,-3.1247,-3.1247,-3.0888,-3.1007,-3.1247,0.0,0.0,0.0,0.0,0.0,0.0,0.0,0.0,0.0,0.0,0.0,0.0,0.0,0.0,0.0,0.0,0.0,0.0,0.0,0.0,0.0,0.0,0.0,0.0,0.0,0.0,0.0,0.0,0.0,0.0,0.0,0.0,0.0,0.0,0.0,0.0,0.0,0.0,0.0,0.0,0.0,0.0,0.0,0.0,0.0,0.0,0.0,0.0,0.0,0.0,0.0,0.0,-2.6276,-2.6533,0.0,0.0,-2.6533,-2.6533,-2.6533,-2.6533,-2.6584,-2.6798,-2.7457,-2.816,-2.8386,0.0,0.0,-2.9792,-2.9792,-2.9792,-2.9792,0.0,0.0,0.0,0.0,0.0,0.0,0.0,0.0,0.0,0.0,0.0,0.0,0.0,0.0,0.0,0.0,0.0,0.0,-3.34,-3.27,-3.1677,-3.0981,-3.0692,-3.0692,-3.0692,-3.0692,-3.0692,-3.0692,-3.0391,-2.9994,-2.9994,-2.9994,-3.0015,0.0,0.0,0.0,-3.0915,-3.1102,-3.1122,-3.1309,-3.1261,-3.1131,-3.1141,-3.1021,-3.0791,0.0,0.0,0.0,0.0,0.0,0.0,0.0,0.0,0.0,0.0,0.0,0.0,0.0,0.0,0.0,0.0,0.0,0.0,0.0,0.0,0.0,0.0,0.0,0.0,0.0,0.0,0.0,0.0,0.0,0.0,0.0,0.0,0.0,0.0,0.0,0.0,0.0,0.0,0.0,0.0,0.0,0.0,0.0,0.0,0.0,0.0,0.0,0.0,0.0,0.0,0.0,0.0,0.0,0.0,0.0,0.0,-2.6533,-2.6533,-2.6533,-2.6533,-2.6533,-2.6533,-2.7168,-2.7858,0.0,0.0,0.0,-2.9528,-2.9679,-2.9792,-2.9792,-2.9792,-3.0143,-3.121,0.0,-3.1788,0.0,0.0,0.0,0.0,0.0,0.0,0.0,0.0,0.0,0.0,0.0,0.0,0.0,-3.27,-3.2387,-3.1575,-3.0588,-2.9994,-2.9994,-2.9994,-2.9994,-2.9994,-2.9994,-2.9994,-2.9994,-2.9994,-2.9994,0.0,0.0,0.0,0.0,-3.121,-3.1457,-3.1467,-3.1491,-3.142,-3.1289,-3.1319,-3.1197,-3.0954,0.0,0.0,0.0,0.0,0.0,0.0,0.0,0.0,0.0,0.0,0.0,0.0,0.0,0.0,0.0,0.0,0.0,0.0,0.0,0.0,0.0,0.0,0.0,0.0,0.0,0.0,0.0,0.0,0.0,0.0,0.0,0.0,0.0,0.0,0.0,0.0,0.0,0.0,0.0,0.0,0.0,0.0,0.0,0.0,0.0,0.0,0.0,0.0,0.0,0.0,0.0,0.0,0.0,0.0,0.0,0.0,-2.6533,-2.6533,-2.6533,-2.6533,-2.6533,-2.6533,-2.6879,-2.7293,0.0,0.0,0.0,0.0,-2.939,-2.9792,-2.9792,-2.9792,-3.0143,-3.121,-3.1386,-3.1788,-3.2918,0.0,0.0,0.0,0.0,0.0,0.0,0.0,0.0,0.0,0.0,0.0,0.0,0.0,-3.1575,-3.1575,-3.0588,-2.9994,-2.9994,-2.9994,-2.9994,-2.9994,-2.9994,-2.9994,-2.9994,-2.9994,0.0,0.0,0.0,0.0,0.0,-3.1318,-3.1564,-3.1605,-3.1711,-3.2008,-3.2238,-3.1546,-3.1777,-3.2238,0.0,0.0,0.0,0.0,0.0,0.0,0.0,0.0,0.0,0.0,0.0,0.0,0.0,0.0,0.0,0.0,0.0,0.0,0.0,0.0,0.0,0.0,0.0,0.0,0.0,0.0,0.0,0.0,0.0,0.0,0.0,0.0,0.0,0.0,0.0,0.0,0.0,0.0,0.0,0.0,0.0,0.0,0.0,0.0,0.0,0.0,0.0,0.0,0.0,0.0,0.0,0.0,0.0,0.0,0.0,0.0,0.0,0.0,-2.6533,-2.6533,-2.6533,-2.6533,-2.6866,-2.7281,-2.7281,0.0,0.0,0.0,0.0,0.0,-2.9792,-2.9792,-3.0143,-3.121,-3.1386,-3.1788,0.0,0.0,0.0,0.0,0.0,0.0,0.0,0.0,0.0,0.0,0.0,0.0,0.0,0.0,-3.0495,-3.0495,-3.0193,-2.9994,-2.9994,-2.9994,-2.9994,-2.9994,-2.9994,-2.9994,-2.9994,-2.9774,0.0,0.0,0.0,0.0,0.0,-3.1562,-3.1691,-3.1711,-3.1727,-3.1672,-3.1672,-3.1672,-3.1566,-3.1344,0.0,0.0,0.0,0.0,0.0,0.0,0.0,0.0,0.0,0.0,0.0,0.0,0.0,0.0,0.0,0.0,0.0,0.0,0.0,0.0,0.0,0.0,0.0,0.0,0.0,0.0,0.0,0.0,0.0,0.0,0.0,0.0,0.0,0.0,0.0,0.0,0.0,0.0,0.0,0.0,0.0,0.0,0.0,0.0,0.0,0.0,0.0,0.0,0.0,0.0,0.0,0.0,0.0,0.0,0.0,0.0,0.0,0.0,0.0,-2.6533,-2.6533,-2.6533,-2.6716,0.0,0.0,0.0,0.0,0.0,0.0,0.0,0.0,-2.9792,-3.0143,-3.121,-3.1386,-3.1788,0.0,0.0,0.0,0.0,0.0,0.0,0.0,0.0,0.0,0.0,0.0,0.0,0.0,0.0,-2.9994,-2.9879,-2.9994,-2.9994,-2.9994,-2.9994,-2.9994,-2.9994,-2.9994,-2.9994,-2.9994,0.0,0.0,0.0,0.0,0.0,0.0,-3.1421,-3.1556,-3.1556,-3.145,-3.1334,-3.1325,-3.145,-3.1344,-3.1112,0.0,0.0,0.0,0.0,0.0,0.0,0.0,0.0,0.0,0.0,0.0,0.0,0.0,0.0,0.0,0.0,0.0,0.0,0.0,0.0,0.0,0.0,0.0,0.0,0.0,0.0,0.0,0.0,0.0,0.0,0.0,0.0,0.0,0.0,0.0,0.0,0.0,0.0,0.0,0.0,0.0,0.0,0.0,0.0,0.0,0.0,0.0,0.0,0.0,0.0,0.0,0.0,0.0,0.0,0.0,0.0,0.0,0.0,0.0,0.0,0.0,0.0,0.0,0.0,0.0,0.0,0.0,0.0,0.0,0.0,0.0,0.0,-3.0193,-3.1223,-3.1424,-3.1825,0.0,0.0,0.0,0.0,0.0,0.0,0.0,0.0,0.0,0.0,0.0,0.0,0.0,0.0,0.0,-2.9659,-2.9879,-2.9994,-2.9889,-2.9889,-2.9889,-2.9889,-2.9889,-2.9889,-2.9889,0.0,0.0,0.0,0.0,0.0,0.0,-3.1102,-3.1208,-3.1218,-3.1005,-3.0995,-3.1218,-3.0995,-3.1112,-3.1218,0.0,0.0,0.0,0.0,0.0,0.0,0.0,0.0,0.0,0.0,0.0,0.0,0.0,0.0,0.0,0.0,0.0,0.0,0.0,0.0,0.0,0.0,0.0,0.0,0.0,0.0,0.0,0.0,0.0,0.0,0.0,0.0,0.0,0.0,0.0,0.0,0.0,0.0,0.0,0.0,0.0,0.0,0.0,0.0,0.0,0.0,0.0,0.0,0.0,0.0,0.0,0.0,0.0,0.0,0.0,0.0,0.0,0.0,0.0,0.0,0.0,0.0,0.0,0.0,0.0,0.0,0.0,0.0,0.0,0.0,0.0,0.0,0.0,-3.1286,-3.1738,-3.2265,0.0,0.0,0.0,0.0,0.0,0.0,0.0,0.0,0.0,0.0,0.0,0.0,0.0,0.0,0.0,-2.9659,-2.9659,-2.9564,-2.9343,-2.9343,-2.9343,-2.9343,-2.9343,-2.9343,-2.9343,0.0,0.0,0.0,0.0,0.0,-3.0325,-3.077,-3.0995,-3.0995,-3.0889,-3.0889,-3.1005,-3.0889,-3.0889,-3.1005,0.0,0.0,0.0,0.0,0.0,0.0,0.0,0.0,0.0,0.0,0.0,0.0,0.0,0.0,0.0,0.0,0.0,0.0,0.0,0.0,0.0,0.0,0.0,0.0,0.0,0.0,0.0,0.0,0.0,0.0,0.0,0.0,0.0,0.0,0.0,0.0,0.0,0.0,0.0,0.0,0.0,0.0,0.0,0.0,0.0,0.0,0.0,0.0,0.0,-2.3078,-2.3078,-2.3238,0.0,0.0,0.0,0.0,-2.6,0.0,0.0,0.0,0.0,0.0,0.0,0.0,0.0,0.0,0.0,0.0,0.0,0.0,0.0,0.0,0.0,0.0,-3.1062,0.0,0.0,0.0,0.0,0.0,0.0,0.0,0.0,0.0,0.0,0.0,0.0,0.0,0.0,0.0,0.0,0.0,-2.9142,-2.9142,-2.9132,-2.9132,-2.9132,-2.9132,-2.9132,-2.9132,-2.9132,0.0,0.0,0.0,0.0,0.0,-2.9941,-3.0391,-3.0703,-3.0889,-3.0889,-3.0889,-3.0889,-3.0889,-3.0889,-3.0889,0.0,0.0,0.0,0.0,0.0,0.0,0.0,0.0,0.0,0.0,0.0,0.0,0.0,0.0,0.0,0.0,0.0,0.0,0.0,0.0,0.0,0.0,0.0,0.0,0.0,0.0,0.0,0.0,0.0,0.0,0.0,0.0,0.0,0.0,0.0,0.0,0.0,0.0,0.0,0.0,0.0,0.0,0.0,0.0,0.0,0.0,0.0,0.0,0.0,-2.3078,-2.3078,-2.3165,-2.3715,0.0,0.0,0.0,0.0,0.0,0.0,0.0,0.0,0.0,0.0,0.0,0.0,0.0,0.0,0.0,0.0,0.0,0.0,0.0,0.0,0.0,0.0,0.0,0.0,0.0,0.0,0.0,0.0,0.0,0.0,0.0,0.0,0.0,0.0,0.0,0.0,0.0,0.0,0.0,-2.8737,-2.8834,-2.9026,-2.9026,-2.9026,-2.9026,-2.9026,-2.9026,-2.892,-2.8717,0.0,0.0,0.0,0.0,-2.96,-3.0019,-3.0469,-3.0889,-3.0889,-3.0889,-3.0889,-3.0889,-3.0889,-3.0889,0.0,0.0,0.0,0.0,0.0,0.0,0.0,0.0,0.0,0.0,0.0,0.0,0.0,0.0,0.0,0.0,0.0,0.0,0.0,0.0,0.0,0.0,0.0,0.0,0.0,0.0,0.0,0.0,0.0,0.0,0.0,0.0,0.0,0.0,0.0,0.0,0.0,0.0,0.0,0.0,0.0,0.0,0.0,0.0,0.0,0.0,0.0,0.0,0.0,-2.3078,-2.3078,-2.309,-2.3238,0.0,0.0,0.0,0.0,0.0,0.0,0.0,0.0,0.0,0.0,0.0,0.0,0.0,0.0,0.0,0.0,0.0,0.0,0.0,0.0,0.0,0.0,0.0,0.0,0.0,0.0,0.0,0.0,0.0,0.0,0.0,0.0,0.0,0.0,0.0,0.0,0.0,0.0,0.0,0.0,-2.8621,-2.8398,-2.8398,-2.8398,-2.8398,-2.8398,-2.8398,-2.8398,-2.8398,-2.8398,0.0,0.0,-2.917,-2.96,-3.0019,-3.0469,-3.0889,-3.0889,-3.0889,-3.0889,-3.0889,-3.0889,-3.0889,0.0,0.0,0.0,0.0,0.0,0.0,0.0,0.0,0.0,0.0,0.0,0.0,0.0,0.0,0.0,0.0,0.0,0.0,0.0,0.0,0.0,0.0,0.0,0.0,0.0,0.0,0.0,0.0,0.0,0.0,0.0,0.0,0.0,0.0,0.0,0.0,0.0,0.0,0.0,0.0,0.0,0.0,0.0,0.0,0.0,0.0,0.0,0.0,0.0,0.0,-2.3078,-2.3078,-2.3078,0.0,0.0,0.0,0.0,0.0,-2.6533,0.0,0.0,0.0,0.0,0.0,0.0,0.0,0.0,0.0,0.0,0.0,0.0,0.0,0.0,0.0,0.0,0.0,0.0,0.0,0.0,0.0,0.0,0.0,0.0,0.0,0.0,0.0,0.0,0.0,0.0,0.0,0.0,0.0,0.0,-2.8408,-2.8291,-2.8291,-2.8291,-2.8291,-2.8291,-2.8291,-2.8291,-2.8291,-2.8291,-2.8301,0.0,-2.8955,-2.959,-2.9785,-3.0264,-3.0889,-3.0889,-3.0889,-3.0889,-3.0889,-3.0889,-3.0889,0.0,0.0,0.0,0.0,0.0,0.0,0.0,0.0,0.0,0.0,0.0,0.0,0.0,0.0,0.0,0.0,0.0,0.0,0.0,0.0,0.0,0.0,0.0,0.0,0.0,0.0,0.0,0.0,0.0,0.0,0.0,0.0,0.0,0.0,0.0,0.0,0.0,0.0,0.0,0.0,0.0,0.0,0.0,0.0,0.0,0.0,0.0,0.0,0.0,0.0,0.0,0.0,0.0,0.0,0.0,0.0,-2.5598,-2.6533,-2.6533,-2.6383,0.0,0.0,0.0,0.0,0.0,0.0,0.0,0.0,0.0,0.0,0.0,0.0,0.0,0.0,0.0,0.0,0.0,0.0,0.0,0.0,0.0,0.0,0.0,0.0,0.0,0.0,0.0,0.0,0.0,0.0,0.0,0.0,0.0,0.0,-2.8291,-2.8291,-2.8291,-2.8291,-2.8291,-2.8291,-2.8291,-2.8291,-2.8291,-2.8291,-2.8291,-2.8721,-2.9424,-2.9531,-3.0029,-3.0742,-3.085,-3.0889,-3.0889,-3.0889,-3.0889,-3.0889,0.0,0.0,0.0,0.0,0.0,0.0,0.0,0.0,0.0,0.0,0.0,0.0,0.0,0.0,0.0,0.0,0.0,0.0,0.0,0.0,0.0,0.0,0.0,0.0,0.0,0.0,0.0,0.0,0.0,0.0,0.0,0.0,0.0,0.0,0.0,0.0,0.0,0.0,0.0,0.0,0.0,0.0,0.0,0.0,0.0,0.0,0.0,0.0,0.0,0.0,0.0,0.0,0.0,0.0,0.0,0.0,-2.5598,-2.6533,-2.6533,-2.5955,0.0,0.0,0.0,0.0,0.0,0.0,0.0,0.0,0.0,0.0,0.0,0.0,0.0,0.0,0.0,0.0,0.0,0.0,0.0,0.0,0.0,0.0,0.0,0.0,0.0,0.0,0.0,0.0,0.0,0.0,0.0,0.0,0.0,-2.8291,-2.8291,-2.8291,-2.8291,-2.8291,-2.8291,-2.8291,-2.8291,-2.8291,-2.8291,-2.8291,-2.8291,-2.8555,-2.8994,-2.9404,-2.9834,-3.0293,-3.0723,-3.0889,-3.0889,-3.0889,-3.0889,-3.0889,0.0,0.0,0.0,0.0,0.0,0.0,0.0,0.0,0.0,0.0,0.0,0.0,0.0,0.0,0.0,0.0,0.0,0.0,0.0,0.0,0.0,0.0,0.0,0.0,0.0,0.0,0.0,0.0,0.0,0.0,0.0,0.0,0.0,0.0,0.0,0.0,0.0,0.0,0.0,0.0,0.0,0.0,0.0,0.0,0.0,0.0,0.0,0.0,0.0,0.0,0.0,0.0,0.0,0.0,0.0,0.0,-2.5598,-2.6383,-2.5886,-2.5453,-2.4933,0.0,0.0,0.0,0.0,0.0,0.0,0.0,0.0,0.0,0.0,0.0,0.0,0.0,0.0,0.0,0.0,0.0,0.0,0.0,0.0,0.0,0.0,0.0,0.0,0.0,0.0,0.0,0.0,0.0,0.0,0.0,0.0,-2.8291,-2.8291,-2.8291,-2.8291,-2.8291,-2.8291,-2.8291,-2.8291,-2.8291,-2.8291,-2.8291,-2.8291,-2.8535,-2.8955,-2.9394,-2.9814,-3.0244,-3.0713,-3.0889,-3.0889,-3.0889,-3.0889,-3.0889,0.0,0.0,0.0,0.0,0.0,0.0,0.0,0.0,0.0,0.0,0.0,0.0,0.0,0.0,0.0,0.0,0.0,0.0,0.0,0.0,0.0,0.0,0.0,0.0,0.0,0.0,0.0,0.0,0.0,0.0,0.0,0.0,0.0,0.0,0.0,0.0,0.0,0.0,0.0,0.0,0.0,0.0,0.0,0.0,0.0,0.0,0.0,0.0,0.0,0.0,0.0,0.0,0.0,0.0,0.0,0.0,0.0,-2.6025,-2.5453,-2.4933,-2.4348,-2.3202,0.0,0.0,0.0,0.0,0.0,0.0,0.0,0.0,0.0,0.0,0.0,0.0,0.0,0.0,0.0,0.0,0.0,0.0,0.0,0.0,0.0,0.0,0.0,0.0,0.0,0.0,0.0,0.0,0.0,0.0,0.0,0.0,-2.8291,-2.8291,-2.8291,-2.8291,-2.8291,-2.8291,-2.8291,-2.8291,-2.8291,-2.8291,-2.8291,-2.8457,-2.8769,-2.9336,-2.9902,-3.0449,-3.0762,-3.0889,-3.0889,-3.0889,-3.0889,-3.0889,0.0,0.0,0.0,0.0,0.0,0.0,0.0,0.0,0.0,0.0,0.0,0.0,0.0,0.0,0.0,0.0,0.0,0.0,0.0,0.0,0.0,0.0,0.0,0.0,0.0,0.0,0.0,0.0,0.0,0.0,0.0,0.0,0.0,0.0,0.0,0.0,0.0,0.0,0.0,0.0,0.0,0.0,0.0,0.0,0.0,0.0,0.0,0.0,0.0,0.0,0.0,0.0,0.0,0.0,0.0,-2.482,-2.505,-2.5312,-2.53,-2.4564,-2.3599,0.0,0.0,0.0,0.0,0.0,0.0,0.0,0.0,0.0,0.0,0.0,0.0,0.0,0.0,0.0,0.0,0.0,0.0,0.0,0.0,0.0,0.0,0.0,0.0,0.0,0.0,0.0,0.0,0.0,0.0,0.0,0.0,0.0,-2.8291,-2.8291,-2.8291,-2.8291,-2.8291,-2.8291,-2.8291,-2.8291,-2.8291,-2.8291,-2.8291,-2.8291,-2.8359,-2.9219,-3.0088,-3.0889,-3.0889,-3.0889,-3.0889,-3.0889,-3.0889,-3.0889,0.0,0.0,0.0,0.0,0.0,0.0,0.0,0.0,0.0,0.0,0.0,0.0,0.0,0.0,0.0,0.0,0.0,0.0,0.0,0.0,0.0,0.0,0.0,0.0,0.0,0.0,0.0,0.0,0.0,0.0,0.0,0.0,0.0,0.0,0.0,0.0,0.0,0.0,0.0,0.0,0.0,0.0,0.0,0.0,0.0,0.0,0.0,0.0,0.0,0.0,0.0,0.0,0.0,0.0,0.0,-2.482,-2.5465,-2.5873,-2.4779,0.0,0.0,0.0,0.0,0.0,0.0,0.0,0.0,0.0,0.0,0.0,0.0,0.0,0.0,0.0,0.0,0.0,0.0,0.0,0.0,0.0,0.0,0.0,0.0,0.0,0.0,0.0,0.0,0.0,0.0,0.0,0.0,0.0,0.0,0.0,-2.8291,-2.8291,-2.8291,-2.8291,-2.8291,-2.8291,-2.8291,-2.8291,-2.8291,-2.8291,-2.8291,-2.8291,-2.8359,-2.9219,-3.0088,-3.0889,-3.0889,-3.0889,-3.0889,-3.0889,-3.0889,-3.0889,0.0,0.0,0.0,0.0,0.0,0.0,0.0,0.0,0.0,0.0,0.0,0.0,0.0,0.0,0.0,0.0,0.0,0.0,0.0,0.0,0.0,0.0,0.0,0.0,0.0,0.0,0.0,0.0,0.0,0.0,0.0,0.0,0.0,0.0,0.0,0.0,0.0,0.0,0.0,0.0,0.0,0.0,0.0,0.0,0.0,0.0,0.0,0.0,0.0,0.0,0.0,0.0,0.0,0.0,0.0,-2.46,-2.4981,-2.5134,0.0,0.0,0.0,0.0,0.0,0.0,0.0,0.0,0.0,0.0,0.0,0.0,0.0,0.0,0.0,0.0,0.0,0.0,0.0,0.0,0.0,0.0,0.0,0.0,0.0,0.0,0.0,0.0,0.0,0.0,0.0,0.0,0.0,0.0,0.0,0.0,-2.8291,-2.8291,-2.8291,-2.8291,-2.8291,-2.8291,-2.8291,-2.8291,-2.8291,-2.8291,-2.8291,-2.8389,-2.8594,-2.9287,-2.998,-3.0635,-3.082,-3.0889,-3.0889,-3.0889,-3.0889,-3.0889,0.0,0.0,0.0,0.0,0.0,0.0,0.0,0.0,0.0,0.0,0.0,0.0,0.0,0.0,0.0,0.0,0.0,0.0,0.0,0.0,0.0,0.0,0.0,0.0,0.0,0.0,0.0,0.0,0.0,0.0,0.0,0.0,0.0,0.0,0.0,0.0,0.0,0.0,0.0,0.0,0.0,0.0,0.0,0.0,0.0,0.0,0.0,0.0,0.0,0.0,0.0,0.0,0.0,0.0,0.0,-2.443,-2.4155,0.0,0.0,0.0,0.0,0.0,0.0,0.0,0.0,0.0,0.0,0.0,0.0,0.0,0.0,0.0,0.0,0.0,0.0,0.0,0.0,0.0,0.0,0.0,0.0,0.0,0.0,0.0,0.0,0.0,0.0,0.0,0.0,0.0,0.0,0.0,0.0,0.0,-2.8291,-2.8291,-2.8291,0.0,-2.8291,-2.8291,-2.8291,-2.8291,-2.8291,-2.8291,-2.8291,-2.8535,-2.8955,-2.9394,-2.9814,-3.0244,-3.0713,-3.0889,-3.0889,-3.0889,-3.0889,-3.0889,0.0,0.0,0.0,0.0,0.0,0.0,0.0,0.0,0.0,0.0,0.0,0.0,0.0,0.0,0.0,0.0,0.0,0.0,0.0,0.0,0.0,0.0,0.0,0.0,0.0,0.0,0.0,0.0,0.0,0.0,0.0,0.0,0.0,0.0,0.0,0.0,0.0,0.0,0.0,0.0,0.0,0.0,0.0,0.0,0.0,0.0,0.0,0.0,0.0,0.0,0.0,0.0,0.0,-2.4381,-2.4856,-2.517,0.0,0.0,0.0,0.0,0.0,0.0,0.0,0.0,0.0,0.0,0.0,0.0,0.0,0.0,0.0,0.0,0.0,0.0,0.0,0.0,0.0,0.0,0.0,0.0,0.0,0.0,0.0,0.0,0.0,0.0,0.0,0.0,0.0,0.0,0.0,0.0,0.0,-2.8291,-2.8291,-2.8291,-2.8291,0.0,-2.8291,-2.8291,-2.8291,-2.8291,-2.8291,-2.8291,-2.8291,-2.8535,-2.8955,-2.9394,-2.9814,-3.0244,-3.0713,-3.0889,-3.0889,-3.0889,-3.0889,-3.0889,0.0,0.0,0.0,0.0,0.0,0.0,0.0,0.0,0.0,0.0,0.0,0.0,0.0,0.0,0.0,0.0,0.0,0.0,0.0,0.0,0.0,0.0,0.0,0.0,0.0,0.0,0.0,0.0,0.0,0.0,0.0,0.0,0.0,0.0,0.0,0.0,0.0,0.0,0.0,0.0,0.0,0.0,0.0,0.0,0.0,0.0,0.0,0.0,0.0,0.0,0.0,0.0,0.0,0.0,-2.4841,-2.521,0.0,0.0,0.0,0.0,0.0,0.0,0.0,0.0,0.0,0.0,0.0,0.0,0.0,0.0,0.0,0.0,0.0,0.0,0.0,0.0,0.0,0.0,0.0,0.0,0.0,0.0,0.0,0.0,0.0,0.0,0.0,0.0,0.0,0.0,0.0,0.0,-2.8291,-2.8291,-2.8291,-2.8291,-2.8291,-2.8291,-2.8291,-2.8291,-2.8291,-2.8291,-2.8291,-2.8291,-2.8291,-2.8418,-2.8652,-2.9082,-2.9512,-2.9941,-3.0381,-3.0693,-3.0889,-3.0889,-3.0889,-3.0889,0.0,0.0,0.0,0.0,0.0,0.0,0.0,0.0,0.0,0.0,0.0,0.0,0.0,0.0,0.0,0.0,0.0,0.0,0.0,0.0,0.0,0.0,0.0,0.0,0.0,0.0,0.0,0.0,0.0,0.0,0.0,0.0,0.0,0.0,0.0,0.0,0.0,0.0,0.0,0.0,0.0,0.0,0.0,0.0,0.0,0.0,0.0,0.0,0.0,0.0,0.0,0.0,0.0,0.0,0.0,0.0,0.0,0.0,0.0,0.0,0.0,0.0,0.0,0.0,0.0,0.0,0.0,0.0,0.0,0.0,0.0,0.0,0.0,0.0,0.0,0.0,0.0,0.0,0.0,0.0,0.0,0.0,0.0,0.0,0.0,0.0,0.0,0.0,0.0,0.0,-2.8291,-2.8291,-2.8291,-2.8291,-2.8291,-2.8291,-2.8291,-2.8291,-2.8291,-2.8291,-2.8291,-2.8291,-2.8291,-2.8291,-2.8291,-2.8291,-2.833,-2.875,-2.918,-2.9609,-3.0029,-3.0478,-3.0889,-3.0889,-3.0889,-3.0889,0.0,0.0,0.0,0.0,0.0,0.0,0.0,0.0,0.0,0.0,0.0,0.0,0.0,0.0,0.0,0.0,0.0,0.0,0.0,0.0,0.0,0.0,0.0,0.0,0.0,0.0,0.0,0.0,0.0,0.0,0.0,0.0,0.0,0.0,0.0,0.0,0.0,0.0,0.0,0.0,0.0,0.0,0.0,0.0,0.0,0.0,0.0,0.0,0.0,0.0,0.0,0.0,0.0,0.0,0.0,0.0,0.0,0.0,0.0,0.0,0.0,0.0,0.0,0.0,0.0,0.0,0.0,0.0,0.0,0.0,0.0,0.0,0.0,0.0,0.0,0.0,0.0,0.0,0.0,0.0,0.0,0.0,0.0,0.0,0.0,0.0,0.0,0.0,0.0,-2.8291,-2.8291,-2.8291,-2.8291,-2.8291,-2.8291,-2.8291,-2.8291,-2.8291,-2.8291,-2.8291,-2.8291,-2.8291,-2.8291,-2.8291,-2.8291,-2.8291,-2.833,-2.875,-2.918,-2.9609,-3.0029,-3.0478,-3.0889,-3.0889,-3.0889,-3.0889,0.0,0.0,0.0,0.0,0.0,0.0,0.0,0.0,0.0,0.0,0.0,0.0,0.0,0.0,0.0,0.0,0.0,0.0,0.0,0.0,0.0,0.0,0.0,0.0,0.0,0.0,0.0,0.0,0.0,0.0,0.0,-2.1919,-2.2299,0.0,0.0,0.0,0.0,0.0,0.0,0.0,0.0,0.0,0.0,0.0,0.0,0.0,0.0,0.0,0.0,0.0,0.0,0.0,0.0,0.0,0.0,0.0,0.0,0.0,0.0,0.0,0.0,0.0,0.0,0.0,0.0,0.0,0.0,0.0,0.0,0.0,0.0,0.0,0.0,0.0,0.0,0.0,0.0,0.0,0.0,0.0,0.0,0.0,0.0,0.0,0.0,0.0,0.0,0.0,-2.8291,-2.8291,-2.8291,-2.8291,-2.8291,-2.8291,-2.8291,-2.8291,-2.8291,-2.8291,-2.8291,-2.8291,-2.8291,-2.8291,-2.8291,-2.8291,-2.8291,-2.8291,-2.831,-2.8496,-2.8818,-2.9248,-2.9678,-3.0117,-3.0537,-3.0791,-3.0889,-3.0889,0.0,0.0,0.0,0.0,0.0,0.0,0.0,0.0,0.0,0.0,0.0,0.0,0.0,0.0,0.0,0.0,0.0,0.0,0.0,0.0,0.0,0.0,0.0,0.0,0.0,0.0,0.0,0.0,0.0,0.0,-2.1707,-2.2121,-2.2385,0.0,-2.289,0.0,0.0,0.0,0.0,0.0,0.0,0.0,0.0,0.0,0.0,0.0,0.0,0.0,0.0,0.0,0.0,0.0,0.0,0.0,0.0,0.0,0.0,0.0,0.0,0.0,0.0,0.0,0.0,0.0,0.0,0.0,0.0,0.0,0.0,0.0,0.0,0.0,0.0,0.0,0.0,0.0,0.0,0.0,0.0,0.0,0.0,0.0,0.0,0.0,0.0,0.0,0.0,0.0,-2.8291,-2.8291,-2.8291,-2.8291,-2.8291,-2.8291,-2.8291,-2.8291,-2.8291,-2.8291,-2.8291,-2.8291,-2.8291,-2.8291,-2.8291,-2.8291,-2.8291,-2.8291,-2.8291,-2.8291,-2.8535,-2.8965,-2.9404,-2.9824,-3.0254,-3.0723,-3.0889,-3.0889,0.0,0.0,0.0,0.0,0.0,0.0,0.0,0.0,0.0,0.0,0.0,0.0,0.0,0.0,0.0,0.0,0.0,0.0,0.0,0.0,0.0,0.0,0.0,0.0,0.0,0.0,0.0,0.0,0.0,0.0,-2.2272,-2.2297,-2.2585,-2.3027,-2.3065,-2.3078,-2.3078,0.0,0.0,0.0,0.0,0.0,0.0,0.0,0.0,0.0,0.0,0.0,0.0,0.0,0.0,0.0,0.0,0.0,0.0,0.0,0.0,0.0,0.0,0.0,0.0,0.0,0.0,0.0,0.0,0.0,0.0,0.0,0.0,0.0,0.0,0.0,0.0,0.0,0.0,0.0,0.0,0.0,0.0,0.0,0.0,0.0,0.0,0.0,0.0,0.0,0.0,0.0,-2.8291,-2.8291,-2.8291,-2.8291,-2.8291,-2.8291,-2.8291,-2.8291,-2.8291,-2.8291,-2.8291,-2.8291,-2.8291,-2.8291,-2.8291,-2.8291,-2.8291,-2.8291,-2.8291,-2.8291,-2.8535,-2.8965,-2.9404,-2.9824,-3.0254,-3.0723,-3.0889,-3.0889,0.0,0.0,0.0,0.0,0.0,0.0,0.0,0.0,0.0,0.0,0.0,0.0,0.0,0.0,0.0,0.0,0.0,0.0,0.0,0.0,0.0,0.0,0.0,0.0,0.0,0.0,0.0,0.0,0.0,-2.192,-2.2322,-2.2673,-2.2949,-2.3078,-2.3078,-2.3339,-2.369,-2.369,0.0,0.0,0.0,0.0,0.0,0.0,0.0,0.0,0.0,0.0,0.0,0.0,0.0,0.0,0.0,0.0,0.0,0.0,0.0,0.0,0.0,0.0,0.0,0.0,0.0,0.0,0.0,0.0,0.0,0.0,0.0,0.0,0.0,0.0,0.0,0.0,0.0,0.0,0.0,0.0,0.0,0.0,0.0,0.0,0.0,0.0,0.0,0.0,0.0,0.0,-2.8291,-2.8291,-2.8291,-2.8291,-2.8291,-2.8291,-2.8291,-2.8291,-2.8291,-2.8291,-2.8291,-2.8291,-2.8291,-2.8291,-2.8291,-2.8291,-2.8291,-2.8291,-2.8291,-2.8291,-2.8379,-2.8564,-2.8984,-2.9414,-2.9853,-3.0283,-3.0635,-3.0889,0.0,0.0,0.0,0.0,0.0,0.0,0.0,0.0,0.0,0.0,0.0,0.0,0.0,0.0,0.0,0.0,0.0,0.0,0.0,0.0,0.0,0.0,0.0,0.0,0.0,0.0,0.0,0.0,0.0,0.0,0.0,0.0,-2.2871,-2.309,-2.3083,0.0,0.0,0.0,0.0,-2.4612,0.0,0.0,-2.3484,0.0,0.0,0.0,0.0,0.0,0.0,0.0,0.0,0.0,0.0,0.0,0.0,0.0,0.0,0.0,0.0,0.0,0.0,0.0,0.0,0.0,0.0,0.0,0.0,0.0,0.0,0.0,0.0,0.0,0.0,0.0,0.0,0.0,0.0,0.0,0.0,0.0,0.0,0.0,0.0,0.0,0.0,0.0,0.0,0.0,-2.8291,-2.8291,-2.8291,-2.8291,-2.8291,-2.8291,-2.8291,-2.8291,-2.8291,-2.8291,-2.8291,-2.8291,-2.8291,-2.8291,-2.8291,-2.8291,-2.8291,-2.8291,-2.8291,-2.8291,-2.8291,-2.833,-2.875,-2.9189,-2.9619,-3.0039,-3.0488,-3.0889,0.0,0.0,0.0,0.0,0.0,0.0,0.0,0.0,0.0,0.0,0.0,0.0,0.0,0.0,0.0,0.0,0.0,0.0,0.0,0.0,0.0,0.0,0.0,0.0,0.0,0.0,0.0,0.0,0.0,0.0,0.0,0.0,-2.2433,0.0,-2.2967,-2.3362,-2.4017,0.0,0.0,-2.4474,0.0,-2.3255,0.0,0.0,0.0,0.0,-2.0566,-2.1088,0.0,0.0,0.0,0.0,0.0,0.0,0.0,0.0,0.0,-2.0566,0.0,0.0,0.0,0.0,0.0,0.0,0.0,0.0,0.0,0.0,0.0,0.0,0.0,0.0,0.0,0.0,0.0,0.0,0.0,0.0,0.0,0.0,0.0,0.0,0.0,0.0,0.0,0.0,0.0,-2.8291,-2.8291,-2.8291,-2.8291,-2.8291,-2.8291,-2.8291,-2.8291,-2.8291,-2.8291,-2.8291,-2.8291,-2.8291,-2.8291,-2.8291,-2.8291,-2.8291,-2.8291,-2.8291,-2.8291,-2.8291,-2.8291,-2.833,-2.874,-2.918,-2.9619,-3.0029,-3.0478,-3.0889,0.0,0.0,0.0,0.0,0.0,0.0,0.0,0.0,0.0,0.0,0.0,0.0,0.0,0.0,0.0,0.0,0.0,0.0,0.0,0.0,0.0,0.0,0.0,0.0,0.0,0.0,0.0,0.0,0.0,0.0,0.0,0.0,0.0,0.0,-2.2235,-2.2661,-2.3304,-2.423,0.0,0.0,0.0,-2.253,0.0,0.0,0.0,0.0,0.0,-2.0712,0.0,0.0,-2.0944,-2.0944,0.0,0.0,0.0,0.0,-2.0566,-2.0566,-2.0566,0.0,0.0,0.0,0.0,0.0,0.0,0.0,0.0,0.0,0.0,0.0,0.0,0.0,0.0,0.0,0.0,0.0,0.0,0.0,0.0,0.0,0.0,0.0,0.0,0.0,0.0,0.0,-2.8291,-2.8291,-2.8291,-2.8291,-2.8291,-2.8291,-2.8291,-2.8291,-2.8291,-2.8291,-2.8291,-2.8291,-2.8291,-2.8291,-2.8291,-2.8291,-2.8291,-2.8291,-2.8291,-2.8291,-2.8291,-2.8291,-2.8291,-2.8301,-2.8418,-2.8916,-2.958,-2.9697,-3.0234,-3.0889,0.0,0.0,0.0,0.0,0.0,0.0,0.0,0.0,0.0,0.0,0.0,0.0,0.0,0.0,0.0,0.0,0.0,0.0,0.0,0.0,-1.8265,-1.8324,-1.861,0.0,0.0,0.0,0.0,0.0,0.0,0.0,0.0,0.0,0.0,0.0,0.0,0.0,0.0,0.0,0.0,0.0,-2.2798,0.0,0.0,-2.0867,-2.0566,0.0,0.0,0.0,-2.0566,-2.0566,-2.0566,0.0,0.0,0.0,0.0,-2.0566,-2.0566,-2.0566,0.0,0.0,0.0,0.0,0.0,0.0,0.0,-2.3135,0.0,0.0,0.0,0.0,0.0,0.0,0.0,0.0,0.0,0.0,0.0,0.0,0.0,0.0,0.0,0.0,0.0,0.0,0.0,0.0,-2.8291,-2.8291,-2.8291,-2.8291,-2.8291,-2.8291,-2.8291,-2.8291,-2.8291,-2.8291,-2.8291,-2.8291,-2.8291,-2.8291,-2.8291,-2.8291,-2.8291,-2.8291,-2.8291,-2.8291,-2.8291,-2.8291,-2.8291,-2.8291,-2.8291,-2.8818,-2.957,-2.957,-3.0137,-3.0889,0.0,0.0,0.0,0.0,0.0,0.0,0.0,0.0,0.0,0.0,0.0,0.0,0.0,0.0,0.0,0.0,0.0,0.0,0.0,0.0,-1.8059,-1.8048,-1.8101,-1.8322,0.0,0.0,0.0,0.0,0.0,0.0,0.0,0.0,0.0,0.0,0.0,0.0,0.0,0.0,0.0,-2.2209,-2.2209,-2.17,0.0,0.0,-2.0566,0.0,-2.0566,-2.0566,-2.0566,-2.0566,-2.0566,0.0,0.0,0.0,0.0,-2.0576,-2.0596,0.0,0.0,0.0,0.0,0.0,0.0,0.0,-2.2959,-2.3135,-2.3252,0.0,0.0,0.0,0.0,0.0,0.0,0.0,0.0,0.0,0.0,0.0,0.0,0.0,0.0,0.0,0.0,0.0,-2.8242,-2.8291,-2.8291,-2.8291,-2.8291,-2.8291,-2.8291,-2.8291,-2.8291,-2.8291,-2.8291,-2.8291,-2.8291,-2.8291,-2.8291,-2.8291,-2.8291,-2.8291,-2.8291,-2.8291,-2.8291,-2.8291,-2.8291,-2.8291,-2.8291,-2.8301,-2.834,-2.8857,-2.958,-2.9619,-3.0176,-3.0889,0.0,0.0,0.0,0.0,0.0,0.0,0.0,0.0,0.0,0.0,0.0,0.0,0.0,0.0,0.0,0.0,0.0,0.0,0.0,0.0,-1.7551,-1.766,-1.8077,-1.8384,-1.8532,0.0,0.0,0.0,0.0,0.0,0.0,0.0,0.0,0.0,0.0,0.0,0.0,0.0,0.0,-2.0944,-2.1118,0.0,0.0,-2.0644,-2.0566,-2.0566,-2.0566,-2.0566,-2.0566,0.0,-2.0566,-2.0566,0.0,0.0,0.0,0.0,0.0,0.0,0.0,0.0,0.0,0.0,0.0,0.0,-2.3027,-2.3135,-2.3164,0.0,0.0,0.0,0.0,0.0,0.0,0.0,0.0,0.0,0.0,0.0,0.0,0.0,0.0,0.0,0.0,0.0,-2.793,-2.8271,-2.8291,-2.8291,-2.8291,-2.8291,-2.8291,-2.8291,-2.8291,-2.8291,-2.8291,-2.8291,-2.8291,-2.8291,-2.8291,-2.8291,-2.8291,-2.8291,-2.8291,-2.8291,-2.8291,-2.8291,-2.8291,-2.8291,-2.8291,-2.833,-2.8662,-2.9111,-2.9609,-2.9951,-3.042,-3.0889,0.0,0.0,0.0,0.0,0.0,0.0,0.0,0.0,0.0,0.0,0.0,0.0,0.0,0.0,0.0,0.0,0.0,0.0,0.0,0.0,0.0,-1.8449,-1.8665,-1.8853,-1.8924,-1.8924,0.0,0.0,0.0,0.0,0.0,0.0,0.0,0.0,0.0,0.0,0.0,0.0,-2.0654,-2.0644,-2.0819,0.0,-2.0566,-2.0566,-2.0703,-2.0898,-2.0898,-2.1035,-2.123,-2.123,-2.123,0.0,0.0,-2.1377,-2.1514,0.0,-2.1387,-2.1562,0.0,0.0,0.0,-2.2353,0.0,0.0,0.0,-2.3135,-2.3135,0.0,0.0,0.0,0.0,0.0,0.0,0.0,0.0,0.0,0.0,0.0,0.0,0.0,0.0,0.0,0.0,0.0,-2.7842,-2.8262,-2.8291,-2.8291,-2.8291,-2.8291,-2.8291,-2.8291,-2.8291,-2.8291,-2.8291,-2.8291,-2.8291,-2.8291,-2.8291,-2.8291,-2.8291,-2.8291,-2.8291,-2.8291,-2.8291,-2.8291,-2.8291,-2.8291,-2.8291,-2.833,-2.875,-2.9189,-2.9619,-3.0039,-3.0123,-2.9903,0.0,0.0,0.0,0.0,0.0,0.0,0.0,0.0,0.0,0.0,0.0,0.0,0.0,0.0,0.0,0.0,0.0,0.0,0.0,0.0,0.0,0.0,-1.9287,-1.9287,-1.9287,-1.9287,-1.9287,0.0,0.0,0.0,0.0,0.0,0.0,0.0,0.0,0.0,0.0,0.0,0.0,-2.0693,0.0,-2.0869,-2.0703,-2.0791,-2.1045,-2.1357,-2.1357,-2.1582,-2.1885,-2.1885,0.0,-2.1885,-2.1885,-2.1943,0.0,0.0,0.0,0.0,0.0,0.0,0.0,0.0,0.0,-2.2725,0.0,0.0,0.0,0.0,0.0,0.0,0.0,0.0,0.0,0.0,0.0,0.0,0.0,0.0,0.0,0.0,0.0,0.0,0.0,0.0,-2.7842,-2.8262,-2.8291,-2.8291,-2.8291,-2.8291,-2.8291,-2.8291,-2.8291,-2.8291,-2.8291,-2.8291,-2.8291,-2.8291,-2.8291,-2.8291,-2.8291,-2.8291,-2.8291,-2.8291,-2.8291,-2.8291,-2.8291,-2.8291,-2.8291,-2.834,-2.8848,-2.9258,-2.9629,-2.9899,-2.9464,-2.892,0.0,0.0,0.0,0.0,0.0,0.0,0.0,0.0,0.0,0.0,0.0,0.0,0.0,0.0,0.0,0.0,0.0,0.0,-1.9287,0.0,0.0,0.0,0.0,0.0,-1.9287,-1.9287,-1.9287,-1.9287,0.0,0.0,0.0,0.0,0.0,0.0,-2.0566,0.0,0.0,0.0,-2.0791,0.0,-2.1162,-2.1162,0.0,-2.1592,-2.1768,-2.1816,-2.1816,-2.1846,-2.1885,0.0,-2.1885,-2.1885,0.0,-2.2139,0.0,0.0,0.0,0.0,0.0,0.0,0.0,0.0,-2.3066,0.0,0.0,0.0,0.0,0.0,0.0,0.0,0.0,0.0,0.0,0.0,0.0,0.0,0.0,0.0,0.0,0.0,0.0,0.0,0.0,0.0,0.0,-2.8262,-2.8291,-2.8291,-2.8291,-2.8291,-2.8291,-2.8291,-2.8291,-2.8291,-2.8291,-2.8291,-2.8291,-2.8291,-2.8291,-2.8291,-2.8291,-2.8291,-2.8291,-2.8291,-2.8291,-2.8291,-2.8291,-2.8291,-2.8291,-2.8369,-2.918,-2.9531,-2.9556,-2.9165,-2.9002,-2.8801,0.0,0.0,0.0,0.0,0.0,0.0,0.0,0.0,0.0,0.0,0.0,0.0,0.0,0.0,0.0,0.0,0.0,0.0,0.0,0.0,0.0,0.0,0.0,0.0,0.0,-2.0029,-2.0029,-2.0029,-2.0205,0.0,0.0,0.0,0.0,0.0,-2.0566,0.0,-2.0586,0.0,0.0,0.0,0.0,0.0,0.0,-2.1914,-2.2041,-2.2275,-2.2519,-2.2617,-2.2617,0.0,-2.2617,0.0,0.0,0.0,0.0,0.0,0.0,0.0,0.0,0.0,0.0,0.0,0.0,0.0,0.0,0.0,-2.3135,0.0,0.0,0.0,0.0,0.0,0.0,0.0,0.0,0.0,0.0,0.0,0.0,0.0,0.0,0.0,0.0,0.0,0.0,0.0,0.0,-2.8291,-2.8291,-2.8291,-2.8291,-2.8291,-2.8291,-2.8291,-2.8291,-2.8291,-2.8291,-2.8291,-2.8291,-2.8291,-2.8291,-2.752,-2.7628,-2.8184,-2.6844,-2.6617,-2.7295,-2.7295,-2.7437,-2.772,-2.8192,-2.8418,-2.8512,-2.8744,-2.7958,-2.6633,0.0,0.0,0.0,0.0,0.0,0.0,0.0,0.0,0.0,0.0,0.0,0.0,-2.0059,-1.986,0.0,0.0,0.0,-1.8975,0.0,0.0,-1.9213,0.0,0.0,0.0,0.0,0.0,-2.0566,-2.0566,-2.0566,0.0,0.0,0.0,0.0,0.0,0.0,-2.0635,-2.0771,0.0,0.0,-2.1641,-2.2266,-2.2578,-2.2646,-2.2344,-2.2422,-2.2725,-2.3027,-2.3135,-2.3047,-2.2775,-2.2687,0.0,-2.1596,0.0,0.0,0.0,0.0,0.0,-2.2599,0.0,0.0,0.0,0.0,0.0,0.0,0.0,0.0,0.0,0.0,0.0,0.0,0.0,0.0,0.0,0.0,0.0,0.0,0.0,0.0,0.0,0.0,0.0,0.0,0.0,0.0,0.0,-2.7949,0.0,-2.8281,-2.8291,-2.8291,-2.8291,-2.8291,-2.8291,-2.8291,-2.8291,-2.8291,-2.8291,-2.8291,-2.8291,-2.8291,-2.7079,-2.6971,-2.7736,-2.5617,-2.5177,-2.5963,-2.5963,-2.6307,-2.6704,-2.6987,-2.6982,-2.6804,-2.7591,-2.6641,-2.5071,0.0,-1.4393,0.0,0.0,0.0,0.0,0.0,0.0,0.0,0.0,0.0,0.0,0.0,0.0,0.0,0.0,0.0,-1.8078,-1.8078,0.0,-1.8078,0.0,0.0,0.0,0.0,0.0,-2.0566,-2.0566,-2.0566,0.0,0.0,0.0,0.0,0.0,0.0,-2.081,-2.1211,-2.123,-2.1709,-2.2471,-2.25,-2.2754,-2.3115,0.0,-2.3105,-2.3125,-2.3135,0.0,0.0,-2.205,-2.1695,0.0,0.0,0.0,0.0,0.0,0.0,0.0,0.0,0.0,0.0,0.0,0.0,0.0,0.0,0.0,-2.3769,0.0,0.0,0.0,0.0,0.0,0.0,0.0,0.0,0.0,0.0,0.0,0.0,0.0,0.0,0.0,0.0,0.0,0.0,-2.7607,-2.7676,0.0,-2.8271,-2.8291,-2.8291,-2.8291,-2.8291,-2.8291,-2.8291,-2.8291,-2.8291,-2.8291,-2.8291,-2.8291,-2.8291,-2.7079,-2.6527,-2.6527,-2.5287,-2.4718,-2.4718,-2.4718,-2.4949,-2.5326,-2.5826,-2.5394,-2.4571,-2.5059,-2.5194,-2.4949,0.0,0.0,0.0,0.0,0.0,0.0,0.0,-1.7961,0.0,0.0,0.0,0.0,0.0,0.0,-1.8238,0.0,0.0,-1.7107,-1.7107,-1.7107,0.0,0.0,0.0,-1.8407,0.0,0.0,-1.9775,-1.9775,-2.0323,0.0,0.0,0.0,0.0,0.0,0.0,-2.126,0.0,0.0,0.0,0.0,0.0,-2.2185,-2.2531,0.0,0.0,-2.3475,-2.274,-2.2637,0.0,-2.1742,-2.1369,-2.1173,-1.9947,-2.0136,-2.0703,-1.9852,-2.0231,0.0,0.0,0.0,-2.0617,-2.1369,0.0,0.0,0.0,0.0,0.0,0.0,0.0,0.0,0.0,0.0,0.0,0.0,0.0,0.0,0.0,0.0,0.0,0.0,0.0,0.0,0.0,0.0,0.0,-2.7197,-2.75,-2.7851,0.0,-2.8291,-2.8291,-2.8291,-2.8291,-2.796,-2.7079,-2.7853,-2.7853,-2.7079,-2.796,-2.7853,-2.7079,-2.5845,-2.5287,-2.5177,-2.3191,-2.2862,-2.3528,-2.3528,-2.3878,-2.4539,-2.4545,-2.473,-2.4913,-2.5032,-2.4579,-2.372,-1.4472,0.0,0.0,0.0,0.0,0.0,0.0,0.0,0.0,0.0,-1.7755,0.0,-1.8104,0.0,-1.7516,0.0,-1.666,-1.6408,-1.6408,-1.6316,0.0,-1.7239,-1.7481,0.0,0.0,0.0,0.0,-1.9055,0.0,-2.0046,0.0,0.0,0.0,0.0,0.0,0.0,0.0,0.0,-2.1892,0.0,0.0,-2.1505,0.0,0.0,-2.2565,0.0,0.0,-2.1825,-2.1942,-2.0779,-2.0401,-2.0208,-1.9056,-1.9251,-1.9731,-1.8867,-1.9251,-1.9925,-2.0111,-1.9828,0.0,0.0,-2.0313,0.0,0.0,0.0,0.0,0.0,0.0,0.0,0.0,0.0,0.0,0.0,0.0,0.0,0.0,0.0,0.0,0.0,0.0,0.0,0.0,0.0,-2.5968,-2.6973,-2.6956,-2.7256,0.0,0.0,-2.7853,-2.8291,-2.7853,-2.7295,-2.6527,-2.7295,-2.707,-2.5854,-2.6617,-2.6617,-2.5845,-2.4625,-2.4069,-2.3958,-2.2093,-2.1653,-2.2312,-2.2312,-2.2828,-2.3448,-2.333,-2.3739,-2.4332,-2.4332,-2.3845,-2.3106,0.0,0.0,0.0,0.0,-1.5449,0.0,0.0,0.0,-1.6968,0.0,-1.7147,-1.7129,-1.8221,-1.7584,-1.7134,-1.7208,-1.6455,0.0,-1.5938,-1.5747,0.0,0.0,-1.6529,-1.6866,-1.6866,0.0,0.0,0.0,0.0,0.0,0.0,0.0,0.0,0.0,-2.1396,0.0,-2.1049,-2.1049,-2.074,-2.0201,-2.0492,-2.0874,-2.1109,-2.082,0.0,-2.1046,-2.0829,-2.074,-2.0564,-1.9282,-1.889,-1.8701,-1.7839,-1.7547,-1.7547,-1.7554,-1.7547,-1.774,-1.8602,-1.889,-1.9086,-2.0047,0.0,0.0,0.0,0.0,-2.1263,0.0,0.0,0.0,0.0,0.0,0.0,0.0,0.0,0.0,0.0,0.0,0.0,0.0,0.0,0.0,0.0,-2.3989,-2.4846,-2.6739,-2.5956,0.0,0.0,0.0,0.0,-2.8067,-2.7079,-2.6418,-2.63,-2.6418,-2.5854,-2.4616,-2.4718,-2.4727,-2.4616,-2.3528,-2.2982,-2.2869,-2.1653,-2.1211,-2.1211,-2.1225,-2.1606,-2.2184,-2.2198,-2.2571,-2.3106,-2.3106,-2.3106,-2.3106,-1.5182,-1.5248,-1.5277,0.0,0.0,-1.5644,0.0,0.0,0.0,0.0,-1.6137,-1.6235,-1.6301,-1.614,-1.6001,-1.5999,-1.5828,0.0,0.0,0.0,0.0,-1.5658,-1.5828,-1.591,-1.591,-1.6866,0.0,-1.7383,0.0,0.0,-1.8682,0.0,0.0,0.0,0.0,0.0,-2.0454,-2.0454,-2.04,-2.023,-1.9845,-1.981,0.0,0.0,-1.8999,-1.949,-1.9714,-1.9969,-1.9984,-1.8884,-1.848,-1.8487,-1.7984,-1.7984,-1.8081,-1.7881,-1.7984,-1.8184,-1.8184,-1.8384,-1.8583,-1.859,-1.8788,-1.8884,0.0,0.0,0.0,0.0,0.0,0.0,0.0,0.0,0.0,0.0,0.0,0.0,0.0,0.0,0.0,0.0,0.0,0.0,-2.2785,-2.2885,-2.3723,-2.5685,-2.5543,0.0,0.0,0.0,0.0,-2.5617,-2.6182,-2.5643,-2.3871,-2.5634,-2.5525,-2.3416,-2.4283,-2.4283,-2.3416,-2.3087,-2.2539,-2.1653,-2.1318,-2.1211,-2.1233,-2.1474,-2.1818,-2.2206,-2.2425,-2.2754,-2.3106,-2.3106,-2.3106,-2.3106,-1.5257,0.0,0.0,0.0,0.0,0.0,-1.5466,0.0,0.0,-1.5762,-1.5913,0.0,-1.6034,-1.5861,-1.5826,-1.5874,-1.5888,0.0,0.0,0.0,0.0,-1.5888,-1.5789,-1.5698,-1.5698,-1.6232,0.0,-1.6595,0.0,0.0,-1.7745,0.0,0.0,0.0,0.0,-1.9686,0.0,-1.9169,-1.9153,-1.9408,-1.8912,0.0,0.0,-1.8267,-1.8185,-1.8527,-1.8626,-1.8868,-1.9027,-1.8311,-1.8003,-1.8003,-1.7905,-1.7905,-1.8003,-1.7905,-1.7905,-1.8003,-1.7905,-1.7905,-1.8003,-1.7905,-1.7905,-1.8108,-1.822,-1.822,-1.822,0.0,0.0,0.0,0.0,0.0,0.0,0.0,0.0,0.0,0.0,0.0,0.0,0.0,0.0,0.0,-2.1089,-2.1489,-2.2528,-2.4266,0.0,0.0,0.0,0.0,0.0,-2.4718,-2.4855,-2.4309,-2.2974,-2.4309,-2.4086,-2.2207,-2.2862,-2.2862,-2.2207,-2.2207,-2.1873,-2.1211,-2.1211,-2.1211,-2.1233,-2.1562,-2.1891,-2.2228,-2.2667,-2.2945,-2.3106,-2.3106,-2.3106,-2.3106,0.0,0.0,0.0,0.0,0.0,0.0,0.0,-1.5986,0.0,-1.6002,0.0,-1.618,-1.6409,-1.6246,-1.6185,0.0,0.0,-1.6245,-1.6245,-1.6041,-1.6041,-1.6245,-1.6041,-1.5925,-1.5885,-1.6082,0.0,0.0,0.0,0.0,-1.6588,0.0,0.0,0.0,0.0,0.0,0.0,-1.7923,-1.783,0.0,-1.8119,-1.8191,-1.8318,-1.8016,-1.8016,-1.7911,-1.7694,-1.7799,-1.7911,-1.7687,-1.7582,-1.7582,-1.7582,-1.7582,-1.7582,-1.7582,-1.7582,-1.7582,-1.7582,-1.7582,-1.7582,-1.7582,-1.7582,-1.7687,-1.7911,-1.7911,-1.7911,-1.7911,-1.8115,0.0,0.0,0.0,0.0,0.0,0.0,0.0,0.0,0.0,0.0,0.0,0.0,0.0,0.0,0.0,0.0,0.0,0.0,0.0,0.0,0.0,0.0,0.0,-2.3416,0.0,-2.2757,0.0,-2.2425,-2.1211,-2.1211,-2.1211,-2.1211,-2.1211,-2.1211,-2.1211,-2.1211,-2.1211,-2.124,-2.1606,-2.1979,-2.2359,-2.2777,-2.2988,-2.2981,-2.2981,-2.2988,-2.2981,0.0,0.0,0.0,0.0,0.0,0.0,0.0,-1.5917,-1.6043,-1.5782,-1.6003,0.0,-1.6285,-1.6312,-1.633,-1.6626,-1.6652,0.0,0.0,0.0,0.0,-1.6652,-1.6553,-1.644,-1.6199,-1.6296,-1.6175,0.0,-1.6123,-1.6312,-1.6312,0.0,0.0,0.0,0.0,0.0,-1.7739,-1.7858,0.0,-1.7695,-1.7943,-1.8073,-1.8016,-1.7799,-1.7799,-1.7911,-1.7694,-1.7582,-1.7687,-1.7582,-1.7582,-1.7582,-1.7582,-1.7582,-1.7582,-1.7582,-1.7582,-1.7582,-1.7582,-1.7582,-1.7582,-1.7582,-1.7582,-1.7582,-1.7694,-1.7687,-1.7687,-1.7687,-1.7687,-1.7687,-1.7582,0.0,0.0,0.0,0.0,0.0,0.0,0.0,0.0,0.0,0.0,0.0,0.0,0.0,0.0,0.0,0.0,0.0,0.0,0.0,0.0,0.0,0.0,0.0,0.0,0.0,0.0,-2.1211,-2.1211,-2.1211,-2.1211,-2.1211,-2.1211,-2.1211,-2.1211,-2.1211,-2.1254,-2.1854,-2.2311,-2.2587,-2.2695,-2.248,-2.2362,-2.2613,-2.2731,-2.2738,0.0,0.0,0.0,0.0,0.0,0.0,0.0,-1.613,0.0,-1.6238,-1.6368,-1.6477,-1.667,-1.6599,-1.6553,-1.6693,-1.6707,-1.6707,-1.6707,-1.6707,-1.6707,-1.6707,-1.6707,0.0,-1.65,0.0,-1.6426,-1.6279,-1.6384,-1.6488,0.0,0.0,0.0,0.0,0.0,-1.741,0.0,0.0,0.0,-1.7707,-1.7745,-1.7799,-1.7813,-1.7762,-1.7929,-1.7956,-1.8003,-1.8056,-1.8029,-1.7876,-1.7822,-1.7849,-1.8003,-1.8056,-1.8056,-1.8056,-1.8056,-1.8056,-1.8056,-1.8056,-1.8056,-1.8056,-1.8056,-1.8056,-1.8056,-1.8056,-1.8056,-1.8056,-1.8056,-1.8056,-1.8056,-1.8056,0.0,0.0,0.0,0.0,0.0,0.0,0.0,0.0,0.0,0.0,0.0,0.0,0.0,0.0,0.0,0.0,0.0,0.0,0.0,0.0,0.0,0.0,0.0,0.0,0.0,-2.1211,-2.0967,-2.1081,-2.1211,-2.0967,-2.1081,-2.1211,-2.1211,-2.1211,-2.1262,-2.1913,-2.2306,-2.2606,-2.2606,-2.2362,-2.2111,-2.2237,-2.2487,-2.2606,0.0,-1.5241,0.0,0.0,-1.5538,0.0,0.0,-1.6261,-1.6464,-1.6667,-1.6674,-1.6783,-1.7082,-1.6901,-1.682,-1.6887,-1.6894,-1.6894,-1.6894,-1.6894,-1.6894,-1.6894,-1.6894,-1.686,-1.68,-1.68,-1.6767,0.0,-1.6707,-1.6673,0.0,0.0,0.0,0.0,0.0,0.0,0.0,0.0,-1.7694,-1.7911,-1.7761,-1.7682,-1.7716,-1.8023,-1.8143,-1.817,-1.8404,-1.849,-1.8464,-1.829,-1.819,-1.8183,-1.8417,-1.849,-1.849,-1.849,-1.849,-1.849,-1.849,-1.849,-1.849,-1.849,-1.849,-1.849,-1.849,-1.849,-1.849,-1.849,-1.849,-1.849,-1.849,-1.849,0.0,0.0,0.0,0.0,0.0,0.0,0.0,0.0,0.0,0.0,0.0,0.0,0.0,0.0,0.0,0.0,0.0,0.0,0.0,0.0,0.0,-2.1211,-2.1211,0.0,-2.1211,0.0,-2.0845,-2.0838,-2.1089,-2.0838,-2.0845,-2.0974,-2.1096,-2.1284,-2.1336,-2.1846,-2.2177,-2.2355,-2.248,-2.2237,-2.1859,-2.1985,-2.2111,-2.2487,0.0,0.0,0.0,0.0,0.0,0.0,0.0,-1.5953,-1.6667,-1.6667,-1.6667,-1.6881,-1.7177,-1.721,-1.7215,-1.7475,-1.7502,-1.7502,-1.7502,-1.7502,-1.7502,-1.7502,-1.7502,-1.7375,-1.7114,-1.7108,-1.6974,0.0,0.0,-1.6573,-1.6319,0.0,0.0,0.0,0.0,0.0,0.0,-1.7569,-1.7582,-1.7609,-1.7889,-1.8003,-1.8036,-1.8337,-1.845,-1.8457,-1.8477,-1.849,-1.8524,-1.8758,-1.8664,-1.8457,-1.8484,-1.849,-1.849,-1.849,-1.849,-1.849,-1.849,-1.849,-1.849,-1.849,-1.849,-1.849,-1.849,-1.849,-1.849,-1.849,-1.849,-1.849,-1.849,-1.849,-1.8484,0.0,0.0,0.0,0.0,0.0,0.0,0.0,0.0,0.0,0.0,0.0,0.0,0.0,0.0,0.0,0.0,0.0,0.0,-2.1211,0.0,-2.1211,-2.1211,-2.1211,0.0,-2.1211,-2.0845,-2.0723,-2.0723,-2.0716,-2.0608,-2.0385,-2.0974,-2.1416,-2.1709,-2.1766,-2.168,-2.1734,-2.1985,-2.1734,-2.1235,-2.1481,-2.1607,-2.1734,0.0,0.0,0.0,0.0,0.0,0.0,0.0,-1.5614,-1.6196,-1.7105,-1.7081,-1.7088,-1.7375,-1.7408,-1.7455,-1.7569,-1.7582,-1.7582,-1.7582,-1.7582,-1.7582,-1.7582,-1.7582,-1.7528,-1.7415,-1.7408,-1.7348,0.0,0.0,0.0,-1.7061,-1.7174,0.0,0.0,0.0,-1.7582,-1.7595,-1.7782,-1.7862,-1.7889,-1.819,-1.831,-1.8343,-1.8637,-1.8751,-1.8771,-1.8951,-1.9018,-1.9038,-1.9152,-1.8998,-1.8778,-1.8965,-1.9018,-1.9018,-1.9018,-1.9018,-1.9018,-1.9018,-1.9018,-1.9018,-1.9018,-1.9018,-1.9018,-1.9018,-1.9018,-1.9018,-1.9018,-1.9018,-1.9018,-1.9018,-1.9018,-1.8958,0.0,0.0,0.0,0.0,0.0,0.0,0.0,0.0,0.0,0.0,0.0,0.0,0.0,0.0,0.0,0.0,0.0,0.0,-2.1211,0.0,-2.1211,-2.1211,-2.1211,-2.1211,-2.1211,-2.0737,-2.0493,-2.0716,-2.0263,-2.0155,-2.0284,-2.0706,-2.1149,-2.1442,-2.1626,-2.1596,-2.1607,-2.1734,-2.1481,-2.1109,-2.1235,-2.1488,-2.1607,-1.2899,0.0,-1.323,0.0,-1.3081,-1.38,-1.4389,-1.5048,-1.5755,-1.648,-1.6733,-1.7023,-1.7569,-1.7582,-1.7582,-1.7582,-1.7582,-1.7582,-1.7582,-1.7582,-1.7582,-1.7582,-1.7582,0.0,-1.7582,-1.7582,-1.7582,-1.7582,-1.7582,0.0,0.0,0.0,0.0,0.0,-1.7716,-1.7769,-1.7862,-1.8083,-1.8176,-1.8203,-1.8497,-1.8617,-1.8651,-1.8945,-1.9052,-1.9085,-1.9292,-1.9366,-1.9366,-1.9366,-1.9225,-1.9092,-1.9299,-1.9366,-1.9366,-1.9366,-1.9366,-1.9366,-1.9366,-1.9366,-1.9366,-1.9366,-1.9366,-1.9366,-1.9366,-1.9366,-1.9366,-1.9366,-1.9366,-1.9366,-1.9366,-1.9366,-1.9299,0.0,0.0,0.0,0.0,0.0,0.0,0.0,0.0,0.0,0.0,0.0,0.0,0.0,0.0,0.0,0.0,0.0,0.0,0.0,0.0,0.0,0.0,-2.1203,-2.1203,-2.1081,-2.05,-2.0385,-2.0608,-1.9931,-1.9931,-2.0291,-2.0365,-2.0669,-2.1094,-2.1401,-2.1458,-2.1481,-2.1607,-2.1362,-2.1109,-2.1109,-2.1235,-2.1481,-1.1911,-1.2799,-1.3051,-1.0852,-1.249,-1.3696,-1.2625,-1.4347,-1.5423,-1.4347,-1.5321,-1.6482,-1.7503,-1.7582,-1.7582,-1.7582,-1.7582,-1.7582,-1.7582,-1.7582,-1.7582,0.0,0.0,-1.7582,-1.7582,-1.7582,-1.7582,-1.7582,0.0,0.0,-1.7154,0.0,-1.7475,-1.8043,-1.8043,-1.8203,-1.8477,-1.8484,-1.8484,-1.851,-1.8804,-1.8918,-1.8951,-1.9252,-1.9366,-1.9366,-1.9366,-1.9366,-1.9366,-1.9366,-1.9366,-1.9366,-1.9366,-1.9366,-1.9366,-1.9366,-1.9366,-1.9366,-1.9366,-1.9366,-1.9366,-1.9366,-1.9366,-1.9366,-1.9366,-1.9366,-1.9366,-1.9366,-1.9366,-1.9366,-1.9366,-1.9366,-1.9366,-1.9366,0.0,0.0,0.0,0.0,0.0,0.0,0.0,0.0,0.0,0.0,0.0,0.0,0.0,0.0,0.0,0.0,0.0,-2.1211,-2.1211,0.0,-2.0716,-2.1081,-2.1081,-2.0716,-2.0385,-2.027,-2.027,-1.9707,-1.9707,-2.0291,-1.9902,-2.0199,-2.0732,-2.104,-2.1216,-2.1109,-2.1481,-2.1362,-2.1109,-2.1109,-2.1109,-2.1109,-1.1031,-1.1315,-1.1467,-1.0716,-1.1302,-1.1923,-1.2501,-1.3292,-1.3894,-1.4484,-1.4904,-1.5261,-1.5626,-1.6404,-1.7302,0.0,-1.8196,-1.8196,0.0,-1.8196,-1.8196,-1.8196,-1.8196,-1.8196,-1.8196,-1.8196,-1.8196,-1.8196,0.0,0.0,0.0,-1.8063,-1.817,-1.835,-1.835,-1.8404,-1.8504,-1.8704,-1.8784,-1.8811,-1.9105,-1.9225,-1.9239,-1.9332,-1.9366,-1.9366,-1.9366,-1.9366,-1.9366,-1.9366,-1.9366,-1.9366,-1.9366,-1.9366,-1.9366,-1.9366,-1.9366,-1.9366,-1.9366,-1.9366,-1.9366,-1.9366,-1.9366,-1.9366,-1.9366,-1.9366,-1.9366,-1.9366,-1.9366,-1.9366,-1.9366,-1.9366,-1.9366,-1.9366,0.0,0.0,0.0,0.0,0.0,0.0,0.0,0.0,0.0,-1.9482,0.0,0.0,0.0,0.0,0.0,0.0,0.0,0.0,-2.0845,0.0,-2.0716,-2.0838,-2.0723,-2.0385,-2.0155,-1.9815,-1.9707,-1.9482,-1.9482,-1.9734,-1.9999,-2.0147,-2.0389,-2.0893,-2.1148,-2.1109,-2.1235,-2.1235,-2.1109,-2.1109,-2.1109,-2.1109,-1.0672,-1.0749,-1.0798,-1.0798,-1.085,-1.1152,-1.205,-1.2514,-1.2895,-1.3359,-1.3784,-1.4183,-1.4188,-1.4948,0.0,-1.7024,-1.7117,0.0,-1.7117,-1.7117,-1.7117,-1.7117,-1.7117,-1.7117,-1.7117,0.0,0.0,-1.7805,-1.8262,-1.849,-1.849,-1.849,-1.8551,-1.8651,-1.8651,-1.8718,-1.8831,-1.9011,-1.9092,-1.9105,-1.9292,-1.9366,-1.9366,-1.9366,-1.9366,-1.9366,-1.9366,-1.9366,-1.9366,-1.9366,-1.9366,-1.9366,-1.9366,-1.9366,-1.9366,-1.9366,-1.9366,-1.9366,-1.9366,-1.9366,-1.9366,-1.9366,-1.9366,-1.9366,-1.9366,-1.9366,-1.9366,-1.9366,-1.9366,-1.9366,-1.9366,-1.9366,-1.9366,-1.9366,0.0,-1.9366,0.0,0.0,0.0,0.0,0.0,0.0,0.0,-1.9366,0.0,0.0,0.0,0.0,0.0,0.0,0.0,-2.0493,-2.0493,0.0,-2.0378,-2.0493,-2.0378,-2.0162,-1.9931,-1.9707,-1.9366,-1.9366,-1.9366,-1.9399,-1.998,-2.0234,-2.0274,-2.0869,-2.1109,-2.1109,-2.1109,-2.1109,-2.1109,-2.1109,-2.1109,-2.1109,-1.0729,-1.0871,0.0,0.0,-1.1118,0.0,-1.124,-1.2153,-1.2497,-1.1372,-1.2333,-1.3147,-1.3269,-1.3437,-1.3858,-1.4479,0.0,0.0,0.0,-1.4778,-1.4778,-1.4778,-1.4778,0.0,-1.4778,-1.5919,-1.66,-1.6606,-1.7974,-1.8551,-1.8551,-1.8551,-1.8698,-1.8951,-1.8951,-1.9112,-1.9366,-1.9366,-1.9366,-1.9366,-1.9366,-1.9366,-1.9366,-1.9366,-1.9366,-1.9366,-1.9366,-1.9366,-1.9366,-1.9366,-1.9366,-1.9243,-1.9243,-1.9243,-1.9133,-1.9366,-1.9366,-1.9366,-1.9366,-1.9366,-1.9243,-1.9243,-1.9249,-1.9133,-1.9133,-1.9133,-1.9133,-1.9133,-1.9243,-1.9243,-1.9243,-1.9366,-1.9366,-1.9366,-1.9366,-1.9366,-1.9366,0.0,0.0,0.0,0.0,0.0,0.0,-1.9366,-1.9366,0.0,0.0,0.0,0.0,0.0,-2.027,-2.027,-2.027,-2.0155,-1.9815,-2.0162,-2.004,-1.9815,-1.9815,-1.9591,-1.9366,-1.9366,-1.9379,-1.9432,-1.9993,-2.0241,-2.0307,-2.0875,-2.1109,-2.1109,-2.1109,-2.1109,-2.1109,-2.1109,-2.1109,-2.1109,0.0,0.0,-1.1163,-1.1163,-1.1196,-1.1269,-1.1411,-1.1666,-1.1833,-1.1626,-1.1918,-1.2183,-1.2187,-1.2225,-1.2333,-1.2477,-1.4227,-1.5402,-1.5402,-1.5402,-1.5402,-1.5402,-1.5402,-1.5402,-1.5402,-1.5637,-1.6337,-1.7267,-1.857,-1.9158,-1.9158,-1.9158,-1.9199,-1.9265,-1.9265,-1.9299,-1.9366,-1.9366,-1.9366,-1.9366,-1.9366,-1.9366,-1.9366,-1.9366,-1.9366,-1.9366,-1.9366,-1.9366,-1.9366,-1.9366,-1.8765,-1.7929,-1.7929,-1.7226,-1.6873,-1.8777,-1.9366,-1.9366,-1.9366,-1.8648,-1.7929,-1.7929,-1.7226,-1.652,-1.652,-1.652,-1.652,-1.652,-1.7226,-1.7929,-1.7929,-1.8765,-1.9366,-1.9366,-1.9366,-1.9366,-1.9366,-1.9366,0.0,0.0,-1.9366,-1.9366,-1.9366,-1.9366,-1.9366,0.0,0.0,0.0,0.0,0.0,-1.9707,-1.9931,-1.9931,-1.9931,-1.9815,-1.9931,-1.9815,-1.9475,-1.9475,-1.9482,-1.9366,-1.9366,-1.9492,-1.972,-2.008,-2.0361,-2.0601,-2.0962,-2.1109,-2.1109,-2.1109,-2.1109,-2.1109,-2.1109,-2.1109,-2.1109,-1.1224,-1.1289,-1.135,-1.135,-1.1419,-1.1508,-1.161,-1.1626,-1.1663,-1.1764,-1.1776,-1.1776,-1.1776,-1.1776,-1.1776,-1.1776,-1.3084,-1.3913,-1.3913,-1.3913,-1.3913,-1.3913,-1.3913,-1.3913,-1.3913,-1.4381,-1.5332,-1.6626,-1.7343,-1.7941,-1.8525,-1.8525,-1.8887,-1.9366,-1.9366,-1.9366,-1.9366,-1.9366,-1.9366,-1.9366,-1.9366,-1.9366,-1.9366,-1.9366,-1.9366,-1.9366,-1.9366,-1.901,-1.8525,-1.8525,-1.7695,-1.6626,-1.6626,-1.6161,-1.593,-1.7232,-1.7701,-1.7701,-1.7701,-1.7109,-1.6626,-1.6626,-1.6161,-1.5575,-1.5575,-1.5575,-1.5575,-1.5575,-1.6161,-1.6868,-1.7331,-1.8052,-1.8765,-1.9366,-1.9366,-1.9366,-1.9366,-1.9366,0.0,-1.9366,-1.9366,-1.9366,-1.9366,-1.9366,-1.9366,-1.9366,0.0,0.0,-1.9366,-1.9366,-1.9482,-1.9591,-1.9591,-1.9591,-1.9591,-1.9591,-1.9591,-1.9366,-1.9366,-1.9366,-1.9372,-1.9506,-1.9653,-1.9826,-2.0254,-2.0528,-2.0702,-2.0989,-2.1109,-2.1109,-2.1109,-2.1109,-2.1109,-2.1109,-2.1109,-2.1109,-1.1305,-1.1435,-1.1541,-1.1541,-1.1671,-1.1776,-1.1776,-1.1776,-1.1776,-1.1776,-1.1776,-1.1776,-1.1776,-1.1776,-1.1776,-1.1776,-1.1776,-1.1776,-1.1776,-1.1776,-1.1776,-1.1776,-1.1776,-1.1776,-1.1776,-1.308,-1.4262,-1.5332,-1.5451,-1.6161,-1.722,-1.722,-1.7935,-1.9127,-1.9127,-1.9249,-1.9366,-1.9366,-1.9366,-1.9366,-1.9366,-1.9249,-1.9127,-1.9127,-1.9004,-1.8777,-1.8777,-1.8175,-1.722,-1.722,-1.6391,-1.5332,-1.5332,-1.5219,-1.4981,-1.4981,-1.4981,-1.51,-1.5456,-1.5456,-1.5213,-1.51,-1.4981,-1.4981,-1.4981,-1.4981,-1.4981,-1.4981,-1.5219,-1.5688,-1.6744,-1.7097,-1.7578,-1.8655,-1.901,-1.9127,-1.9127,0.0,-1.9366,-1.9366,-1.9366,-1.9366,-1.9366,-1.9366,-1.9366,-1.9366,-1.9366,0.0,0.0,-1.9366,-1.9366,-1.9366,-1.9366,-1.9366,-1.9366,-1.9366,-1.9366,-1.9366,-1.9366,-1.9392,-1.9439,-1.9686,-1.9846,-1.996,-2.0461,-2.0702,-2.0762,-2.1009,-2.1109,-2.1109,-2.1109,-2.1109,-2.1109,-2.1109,-2.1109,-2.1109,-1.1687,-1.1715,-1.1736,-1.1736,-1.1756,-1.1776,-1.1776,-1.1776,-1.1776,-1.1776,-1.1776,-1.1776,-1.1776,-1.1776,-1.1776,-1.1776,-1.1776,-1.1776,-1.1776,-1.1776,-1.1776,-1.1776,-1.1776,-1.1776,-1.1776,-1.308,-1.3784,-1.4023,-1.5095,-1.5693,-1.5924,-1.5924,-1.6514,-1.7812,-1.7812,-1.8409,-1.9366,-1.9366,-1.9366,-1.9366,-1.9366,-1.8765,-1.7812,-1.7812,-1.7103,-1.6166,-1.6166,-1.6042,-1.5924,-1.5924,-1.5095,-1.4023,-1.4023,-1.332,-1.2371,-1.2371,-1.2371,-1.2844,-1.4981,-1.4857,-1.3789,-1.2608,-1.2371,-1.2371,-1.2371,-1.2371,-1.2371,-1.2371,-1.32,-1.4023,-1.4257,-1.5213,-1.5924,-1.6166,-1.7103,-1.7812,-1.7812,0.0,-1.9366,-1.9366,-1.9366,-1.9366,-1.9366,-1.9366,-1.9366,-1.9366,-1.9366,-1.9366,-1.9366,-1.9366,-1.9366,-1.9366,-1.9366,-1.9366,-1.9366,-1.9366,-1.9366,-1.9366,-1.9366,-1.9499,-1.9733,-1.978,-2.0074,-2.0548,-2.0635,-2.0815,-2.1042,-2.1089,-2.1109,-2.1109,-2.1109,-2.1109,-2.1109,-2.1109,-2.1109,-2.1109,-1.1402,-1.1402,-1.1281,-1.1522,-1.1522,-1.1522,-1.1522,-1.1651,-1.1776,-1.1776,-1.1776,-1.1776,-1.1776,-1.1776,-1.1776,-1.1776,-1.1776,-1.1776,-1.1776,-1.1776,-1.1776,-1.1776,-1.1776,-1.1776,-1.1776,-1.2367,-1.2724,-1.2724,-1.3071,-1.378,-1.4619,-1.4376,-1.509,-1.6514,-1.6514,-1.6756,-1.7349,-1.7349,-1.7349,-1.7349,-1.7349,-1.6991,-1.6514,-1.6514,-1.6161,-1.5575,-1.5575,-1.5213,-1.4619,-1.4619,-1.367,-1.2724,-1.2724,-1.2251,-1.1776,-1.1776,-1.1776,-1.2014,-1.32,-1.3084,-1.2487,-1.1893,-1.1776,-1.1776,-1.1776,-1.1776,-1.1776,-1.1776,-1.2251,-1.284,-1.3545,-1.4143,-1.4857,-1.5456,-1.6042,0.0,0.0,-1.8052,-1.8648,-1.9366,-1.9366,-1.9366,-1.9366,-1.9366,-1.9366,-1.9366,-1.9366,-1.9366,-1.9366,-1.9366,-1.9366,-1.9366,-1.9366,-1.9366,-1.9366,-1.9366,-1.9366,-1.9372,-1.9526,-1.9673,-1.9813,-2.0127,-2.0421,-2.0681,-2.0842,-2.0989,-2.1109,-2.1109,-2.1109,-2.1109,-2.1109,-2.1109,-2.1109,-2.1109,-2.1109,-2.1109,-1.1152,-1.1031,-1.091,-1.1152,-1.1152,-1.1152,-1.1273,-1.1522,-1.1651,-1.1776,-1.1776,-1.1776,-1.1776,-1.1776,-1.1776,-1.1776,-1.1776,-1.1776,-1.1651,-1.1651,-1.1772,-1.1776,-1.1772,-1.1651,-1.153,-1.153,-1.153,-1.153,-1.1277,-1.1872,-1.3066,-1.2826,-1.354,-1.5095,-1.5095,-1.5332,-1.5575,-1.5575,-1.5575,-1.5575,-1.5575,-1.5456,-1.5213,-1.5213,-1.4976,-1.4743,-1.4743,-1.4147,-1.3315,-1.3315,-1.2603,-1.1776,-1.1776,-1.1776,-1.1776,-1.1776,-1.1776,-1.1776,-1.1776,-1.1776,-1.1776,-1.1776,-1.1776,-1.1776,-1.1776,-1.1776,-1.1776,-1.1776,-1.1776,-1.2134,-1.308,-1.3315,-1.3555,-1.4505,0.0,0.0,0.0,-1.6862,-1.7578,-1.8771,-1.9004,-1.9127,-1.9366,-1.9366,-1.9366,-1.9366,-1.9366,-1.9366,-1.9366,-1.9366,-1.9366,-1.9366,-1.9366,-1.9366,-1.9366,-1.9366,-1.9399,-1.9472,-1.9693,-1.9873,-2.002,-2.0474,-2.0715,-2.0788,-2.1009,-2.1109,-2.1109,-2.1109,-2.1109,-2.1109,-2.1109,-2.1109,-2.1109,-2.1109,-2.1109,-2.1109,-1.0789,-1.0789,-1.0789,-1.0789,-1.0789,-1.091,-1.1273,-1.1273,-1.1398,-1.1776,-1.1776,-1.1776,-1.1776,-1.1776,-1.1776,-1.1776,-1.1776,-1.1651,-1.1394,-1.1394,-1.1522,-1.1776,-1.1522,-1.1152,-1.091,-1.091,-1.091,-1.091,-1.091,-1.091,-1.1031,-1.1269,-1.2109,-1.3421,-1.3665,-1.45,-1.5575,-1.5575,-1.5575,-1.5575,-1.5575,-1.4857,-1.3784,-1.3784,-1.3075,-1.2134,-1.2134,-1.2014,-1.1897,-1.1897,-1.1897,-1.1776,-1.1776,-1.1776,-1.1776,-1.1776,-1.1776,-1.1776,-1.1776,-1.1776,-1.1776,-1.1776,-1.1776,-1.1776,-1.1776,-1.1776,-1.1776,-1.1776,-1.1776,-1.1776,-1.1893,-1.1897,-1.2014,-1.2014,0.0,0.0,-1.4023,-1.4976,-1.6161,-1.7455,-1.7689,-1.8052,-1.9249,-1.9366,-1.9366,-1.9366,-1.9366,-1.9366,-1.9366,-1.9366,-1.9366,-1.9366,-1.9366,-1.9366,-1.9366,-1.9366,-1.9499,-1.9766,-1.9786,-2.0087,-2.0615,-2.0661,-2.0822,-2.1076,-2.1096,-2.1109,-2.1109,-2.1109,-2.1109,-2.1109,-2.1109,-2.1109,-2.1109,-2.1109,-2.1109,-2.1109,-1.0425,-1.0304,-1.0304,-1.0425,-1.0547,-1.0547,-1.0668,-1.091,-1.1031,-1.1156,-1.116,-1.116,-1.116,-1.116,-1.1281,-1.1522,-1.1281,-1.1156,-1.1273,-1.1152,-1.1031,-1.116,-1.1031,-1.091,-1.0789,-1.0789,-1.0789,-1.0789,-1.0547,-1.0547,-1.0789,-1.0668,-1.1148,-1.1989,-1.2109,-1.2595,-1.32,-1.32,-1.32,-1.32,-1.32,-1.2964,-1.2487,-1.2487,-1.2251,-1.1776,-1.1776,-1.1776,-1.1776,-1.1776,-1.1776,-1.1776,-1.1776,-1.1776,-1.1776,-1.1776,-1.1776,-1.1776,-1.1776,-1.1776,-1.1776,-1.1776,-1.1776,-1.1776,-1.1776,-1.1776,-1.1776,-1.1776,-1.1776,-1.1776,-1.1776,-1.1776,-1.1776,-1.1776,0.0,-1.284,-1.355,-1.4143,-1.4857,-1.6155,-1.6985,-1.7689,-1.8169,-1.8887,-1.9366,-1.9366,-1.9366,-1.9366,-1.9366,-1.9366,-1.9366,-1.9366,-1.9366,-1.9366,-1.9366,-1.9366,-1.9512,-1.9806,-1.9987,-2.0281,-2.0681,-2.0862,-2.1002,-2.1109,-2.1109,-2.1109,-2.1109,-2.1109,-2.1109,-2.1109,-2.1109,-2.1109,-2.1109,-2.1109,-2.1109,-2.1109,-1.0061,-0.9943,-0.9822,-1.0061,-1.0183,-1.0183,-1.0304,-1.0547,-1.0668,-1.0789,-1.0789,-1.0789,-1.0789,-1.0789,-1.091,-1.1152,-1.091,-1.091,-1.1031,-1.0668,-1.0547,-1.0668,-1.0668,-1.0547,-1.0547,-1.0547,-1.0547,-1.0547,-1.0304,-1.0304,-1.0425,-1.0304,-1.0547,-1.1031,-1.1152,-1.1277,-1.1526,-1.1647,-1.1647,-1.1651,-1.1776,-1.1776,-1.1776,-1.1776,-1.1776,-1.1776,-1.1776,-1.1776,-1.1776,-1.1776,-1.1776,-1.1776,-1.1776,-1.1776,-1.1776,-1.1776,-1.1776,-1.1776,-1.1776,-1.1776,-1.1776,-1.1776,-1.1776,-1.1776,-1.1776,-1.1776,-1.1776,-1.1776,-1.1776,-1.1776,-1.1776,-1.1776,-1.1776,-1.1776,-1.1776,-1.213,-1.296,-1.3075,-1.3555,-1.4857,-1.58,-1.6503,-1.6868,-1.7701,-1.8181,-1.8181,-1.8532,-1.9004,-1.9366,-1.9366,-1.9366,-1.9366,-1.9366,-1.9412,-1.9499,-1.9506,-1.9646,-1.994,-2.0234,-2.0528,-2.0822,-2.1022,-2.1109,-2.1109,-2.1109,-2.1109,-2.1109,-2.1109,-2.1109,-2.1109,-2.1109,-2.1109,-2.1109,-2.1109,-2.1109,-2.1109,-0.9822,-0.9822,-0.9822,-0.9822,-0.9822,-0.9943,-1.0304,-1.0304,-1.0425,-1.0789,-1.0789,-1.0789,-1.0789,-1.0789,-1.0789,-1.0789,-1.0789,-1.0668,-1.0304,-0.994,-0.994,-1.0304,-1.0304,-1.0183,-0.9822,-0.9822,-0.9822,-0.9822,-0.9822,-0.9822,-0.9822,-1.0183,-1.0304,-1.0304,-1.0668,-1.0789,-1.0789,-1.1152,-1.1273,-1.1273,-1.1651,-1.1776,-1.1776,-1.1776,-1.1776,-1.1776,-1.1776,-1.1776,-1.1776,-1.1776,-1.1776,-1.1776,-1.1776,-1.1776,-1.1776,-1.1776,-1.1776,-1.1776,-1.1776,-1.1776,-1.1776,-1.1776,-1.1776,-1.1776,-1.1776,-1.1776,-1.1776,-1.1776,-1.1776,-1.1776,-1.1776,-1.1776,-1.1776,-1.1776,-1.1776,-1.1776,-1.1776,-1.1776,-1.2251,-1.3545,-1.3665,-1.4143,-1.5456,-1.5569,-1.5575,-1.5575,-1.675,-1.8046,-1.9366,-1.9366,-1.9366,-1.9372,-1.9372,-1.9512,-1.98,-1.98,-1.9947,-2.0241,-2.0535,-2.0828,-2.1109,-2.1109,-2.1109,-2.1109,-2.1109,-2.1109,-2.1109,-2.1109,-2.1109,-2.1109,-2.1109,-2.1109,-2.1109,-2.1109,-2.1109,-2.1109,-0.9822,-0.9822,-0.9822,-0.9822,-0.9822,-0.9819,-0.994,-0.994,-0.994,-1.0061,-1.0061,-1.0061,-1.0061,-1.0061,-1.0183,-1.0425,-1.0183,-1.0061,-0.9943,-0.9822,-0.9822,-0.994,-0.994,-0.9943,-0.9822,-0.9822,-0.9822,-0.9822,-0.9822,-0.9822,-0.9822,-0.9943,-1.0065,-1.0304,-1.0425,-1.0547,-1.0789,-1.091,-1.091,-1.1031,-1.1277,-1.1398,-1.1522,-1.1651,-1.1776,-1.1776,-1.1776,-1.1776,-1.1776,-1.1776,-1.1776,-1.1776,-1.1776,-1.1776,-1.1776,-1.1776,-1.1776,-1.1776,-1.1776,-1.1776,-1.1776,-1.1776,-1.1776,-1.1776,-1.1776,-1.1776,-1.1776,-1.1776,-1.1776,-1.1776,-1.1776,-1.1776,-1.1776,-1.1776,-1.1776,-1.1776,-1.1776,-1.1776,-1.1897,-1.2371,-1.3195,-1.3904,-1.4262,-1.5095,-1.5575,-1.5575,-1.675,-1.7695,-1.8052,-1.8887,-1.9459,-1.9659,-1.9673,-1.9813,-2.01,-1.99,-2.0054,-2.0541,-2.0635,-2.0828,-2.1109,-2.1109,-2.1109,-2.1109,-2.1109,-2.1109,-2.1109,-2.1109,-2.1109,-2.1109,-2.1109,-2.1109,-2.1109,-2.1109,-2.1109,-2.1109,-0.9822,-0.9822,-0.9822,-0.9822,-0.9822,-0.9822,-0.9822,-0.9822,-0.9822,-0.9822,-0.9822,-0.9822,-0.9822,-0.9822,-0.994,-1.0061,-0.9943,-0.9822,-0.9822,-0.9822,-0.9822,-0.9822,-0.9822,-0.9822,-0.9822,-0.9822,-0.9822,-0.9822,-0.9822,-0.9822,-0.9822,-0.9822,-0.9943,-1.0061,-1.0061,-1.0183,-1.0425,-1.0547,-1.0547,-1.0668,-1.091,-1.1152,-1.1152,-1.1522,-1.1526,-1.1405,-1.1655,-1.1651,-1.1405,-1.1655,-1.1776,-1.1776,-1.1776,-1.1776,-1.1776,-1.1776,-1.1776,-1.1776,-1.1776,-1.1776,-1.1776,-1.1776,-1.1776,-1.1776,-1.1776,-1.1776,-1.1776,-1.1776,-1.1776,-1.1776,-1.1776,-1.1776,-1.1776,-1.1776,-1.1776,-1.1776,-1.1776,-1.1776,-1.1776,-1.1776,-1.2487,-1.296,-1.296,-1.3674,-1.4267,-1.4857,-1.5564,-1.6391,-1.7455,-1.8276,-1.9129,-1.9793,-1.9913,-2.0114,-2.0408,-2.0234,-2.0327,-2.0675,-2.0795,-2.0942,-2.1109,-2.1109,-2.1109,-2.1109,-2.1109,-2.1109,-2.1109,-2.1109,-2.1109,-2.1109,-2.1109,-2.1109,-2.1109,-2.1109,-2.1109,-2.1109,-0.9822,-0.9822,-0.9822,-0.9822,-0.9822,-0.9822,-0.9822,-0.9822,-0.9822,-0.9822,-0.9822,-0.9822,-0.9822,-0.9822,-0.9822,-0.9822,-0.9822,-0.9822,-0.9822,-0.9822,-0.9822,-0.9822,-0.9822,-0.9822,-0.9822,-0.9822,-0.9822,-0.9822,-0.9822,-0.9822,-0.9822,-0.9822,-0.9822,-0.9822,-0.9822,-0.9822,-0.9822,-1.0183,-1.0304,-1.0304,-1.0668,-1.0789,-1.0789,-1.1152,-1.1031,-1.091,-1.1526,-1.1285,-1.091,-1.1526,-1.1655,-1.1655,-1.1655,-1.1655,-1.1655,-1.1655,-1.1772,-1.1776,-1.1776,-1.1776,-1.1776,-1.1776,-1.1776,-1.1776,-1.1776,-1.1776,-1.1776,-1.1776,-1.1776,-1.1776,-1.1776,-1.1776,-1.1776,-1.1776,-1.1776,-1.1776,-1.1776,-1.1776,-1.1776,-1.1776,-1.1776,-1.1776,-1.1776,-1.1776,-1.2255,-1.3453,-1.3693,-1.4769,-1.7044,-1.7631,-1.8501,-1.9635,-2.0013,-2.0414,-2.0715,-2.0715,-2.0715,-2.0722,-2.0982,-2.1109,-2.1109,-2.1109,-2.1109,-2.1109,-2.1109,-2.1109,-2.1109,-2.1109,-2.1109,-2.1109,-2.1109,-2.1109,-2.1109,-2.1109,-2.1109,-2.1109,-0.9822,-0.9822,-0.9822,-0.9822,-0.9822,-0.9822,-0.9822,-0.9822,-0.9822,-0.9822,-0.9822,-0.9822,-0.9822,-0.9822,-0.9822,-0.9822,-0.9822,-0.9822,-0.9822,-0.9822,-0.9822,-0.9822,-0.9822,-0.9822,-0.9822,-0.9822,-0.9822,-0.9822,-0.9822,-0.9822,-0.9822,-0.9822,-0.9822,-0.9822,-0.9822,-0.9822,-0.9822,-0.9819,-0.9943,-0.994,-1.0304,-1.0425,-1.0425,-1.0789,-1.091,-1.0789,-1.091,-1.0914,-1.0789,-1.0914,-1.1035,-1.1035,-1.1035,-1.1035,-1.1035,-1.1035,-1.1156,-1.1398,-1.1398,-1.1647,-1.1776,-1.1776,-1.1776,-1.1776,-1.1776,-1.1776,-1.1776,-1.1776,-1.1776,-1.1776,-1.1776,-1.1776,-1.1776,-1.1776,-1.1776,-1.1776,-1.1776,-1.1776,-1.1776,-1.1776,-1.1776,-1.1776,-1.1776,-1.1776,-1.195,-1.2323,-1.3306,-1.4226,-1.4873,-1.6903,-1.8386,-1.8846,-2.0041,-2.0722,-2.1009,-2.1015,-2.1015,-2.1015,-2.1082,-2.1109,-2.1109,-2.1109,-2.1109,-2.1109,-2.1109,-2.1109,-2.1109,-2.1109,-2.1109,-2.1109,-2.1109,-2.1109,-2.1109,-2.1109,-2.1109,-2.1109,-0.9822,-0.9822,-0.9822,-0.9822,-0.9822,-0.9822,-0.9822,-0.9822,-0.9822,-0.9822,-0.9822,-0.9822,-0.9822,-0.9822,-0.9822,-0.9822,-0.9822,-0.9822,-0.9822,-0.9822,-0.9822,-0.9822,-0.9822,-0.9822,-0.9822,-0.9822,-0.9822,-0.9822,-0.9822,-0.9822,-0.9822,-0.9822,-0.9822,-0.9822,-0.9822,-0.9822,-0.9822,-0.9822,-0.9822,-0.9822,-0.994,-1.0061,-1.0061,-1.0425,-1.0425,-1.0304,-1.0668,-1.0789,-1.0789,-1.0668,-1.0668,-1.0789,-1.0789,-1.0789,-1.0789,-1.0789,-1.091,-1.1031,-1.1031,-1.1277,-1.1526,-1.1526,-1.1651,-1.1776,-1.1776,-1.1776,-1.1776,-1.1776,-1.1776,-1.1776,-1.1776,-1.1776,-1.1776,-1.1776,-1.1776,-1.1776,-1.1776,-1.1845,-1.1898,-1.1898,-1.1975,-1.2028,-1.2028,-1.2028,-1.2069,-1.2154,-1.2781,-1.3439,-1.4154,-1.5623,-1.6871,-1.7628,-1.8512,-1.9283,-2.0068,-2.0075,-2.0462,-2.1109,-2.1109,-2.1109,-2.1109,-2.1109,-2.1109,-2.1109,-2.1109,-2.1109,-2.1109,-2.1109,-2.1109,-2.1109,-2.1109,-2.1109,-2.1109,-2.1109,-2.1109,-2.1109,-0.9822,-0.9822,-0.9822,-0.9822,-0.9822,-0.9822,-0.9822,-0.9822,-0.9822,-0.9822,-0.9822,-0.9822,-0.9822,-0.9822,-0.9822,-0.9822,-0.9822,-0.9822,-0.9822,-0.9822,-0.9822,-0.9822,-0.9822,-0.9822,-0.9822,-0.9822,-0.9822,-0.9822,-0.9822,-0.9822,-0.9822,-0.9822,-0.9822,-0.9822,-0.9822,-0.9822,-0.9822,-0.9822,-0.9822,-0.9822,-0.9822,-0.9822,-0.9819,-1.0061,-1.0061,-0.9822,-1.0425,-1.0668,-1.0547,-1.0304,-1.0425,-1.0668,-1.0668,-1.0668,-1.0668,-1.0668,-1.0668,-1.0668,-1.0668,-1.091,-1.1152,-1.1152,-1.1522,-1.1659,-1.1691,-1.1797,-1.1776,-1.1776,-1.1801,-1.1821,-1.1821,-1.1845,-1.187,-1.187,-1.187,-1.187,-1.187,-1.1987,-1.2077,-1.2077,-1.2215,-1.2308,-1.2308,-1.2308,-1.232,-1.2349,-1.2353,-1.286,-1.3888,-1.4426,-1.515,-1.6175,-1.6744,-1.749,-1.8652,-1.8652,-1.9297,-2.0462,-2.0462,-2.0589,-2.1109,-2.1109,-2.1109,-2.1109,-2.1109,-2.1109,-2.1109,-2.1109,-2.1109,-2.1109,-2.1109,-2.1109,-2.1109,-2.1109,-2.1109,-2.1109,-0.9822,-0.9822,-0.9822,-0.9822,-0.9822,-0.9822,-0.9822,-0.9822,-0.9822,-0.9822,-0.9822,-0.9822,-0.9822,-0.9822,-0.9822,-0.9822,-0.9822,-0.9822,-0.9822,-0.9822,-0.9822,-0.9822,-0.9822,-0.9822,-0.9822,-0.9822,-0.9822,-0.9822,-0.9822,-0.9822,-0.9822,-0.9822,-0.9822,-0.9822,-0.9822,-0.9822,-0.9822,-0.9822,-0.9822,-0.9822,-0.9822,-0.9822,-0.9822,-0.9822,-0.9819,-0.9822,-0.9943,-0.994,-0.994,-0.994,-0.9943,-0.994,-0.994,-0.994,-0.994,-0.994,-1.0183,-1.0425,-1.0425,-1.0668,-1.091,-1.091,-1.1152,-1.1437,-1.1468,-1.1638,-1.1776,-1.1776,-1.1894,-1.1996,-1.1996,-1.2125,-1.2235,-1.2235,-1.2235,-1.2235,-1.2235,-1.2255,-1.2268,-1.2268,-1.2292,-1.2308,-1.2308,-1.2308,-1.2369,-1.2519,-1.2527,-1.2726,-1.3012,-1.4205,-1.4995,-1.5125,-1.6312,-1.7103,-1.7232,-1.7232,-1.7361,-1.7496,-1.7496,-1.878,-2.1109,-2.1109,-2.1109,-2.1109,-2.1109,-2.1109,-2.1109,-2.1109,-2.1109,-2.1109,-2.1109,-2.1109,-2.1109,-2.1109,-2.1109,-2.1109,-0.9822,-0.9822,-0.9822,-0.9822,-0.9822,-0.9822,-0.9822,-0.9822,-0.9822,-0.9822,-0.9822,-0.9822,-0.9822,-0.9822,-0.9822,-0.9822,-0.9822,-0.9822,-0.9822,-0.9822,-0.9822,-0.9822,-0.9822,-0.9822,-0.9822,-0.9822,-0.9822,-0.9822,-0.9822,-0.9822,-0.9822,-0.9822,-0.9822,-0.9822,-0.9822,-0.9822,-0.9822,-0.9822,-0.9822,-0.9822,-0.9822,-0.9822,-0.9822,-0.9822,-0.9822,-0.9822,-0.9822,-0.9822,-0.9822,-0.9822,-0.9822,-0.9822,-0.9822,-0.9822,-0.9822,-0.9822,-0.9943,-1.0065,-1.0065,-1.0368,-1.0681,-1.0681,-1.1001,-1.1211,-1.1287,-1.1627,-1.1825,-1.2073,-1.2134,-1.2186,-1.2186,-1.2251,-1.2308,-1.2308,-1.2308,-1.2308,-1.2308,-1.2389,-1.2487,-1.2592,-1.2605,-1.2605,-1.2605,-1.2605,-1.2633,-1.271,-1.2718,-1.2751,-1.2832,-1.3354,-1.3744,-1.3744,-1.439,-1.5038,-1.5814,-1.5814,-1.6203,-1.698,-1.698,-1.7619,-1.8786,-1.8786,-1.8786,-1.8786,-1.8786,-1.917,-1.9941,-1.9941,-2.0329,-2.1109,-2.1109,-2.1109,-2.1109,-2.1109,-2.1109,-2.1109]}]]